[[{"header":{"parameterUnit":"m.s-1","parameterCategory":1,"la1":30.6,"la2":29.2853,"lo1":-89.7004,"lo2":-87.6739,"dy":0.0162,"dx":0.0183,"nx":112,"ny":82,"refTime":"2024-06-22T00:00:00:Z","depth":0,"parameterNumber":2,"parameterNumberName":"U-component_of_WINDS"},"data":[0.0,0.0,0.0,0.0,0.0,0.0,0.0,0.0,0.0,0.0,0.0,0.0,0.0,0.0,0.0,0.0,0.0,0.0,0.0,0.0,0.0,0.0,0.0,0.0,0.0,0.0,0.0,0.0,0.0,0.0,0.0,0.0,0.0,0.0,0.0,0.0,0.0,0.0,0.0,0.0,0.0,0.0,0.0,0.0,0.0,0.0,0.0,0.0,0.0,0.0,0.0,0.0,0.0,0.0,0.0,0.0,0.0,0.0,0.0,0.0,0.0,0.0,0.0,0.0,0.0,0.0,0.0,0.0,0.0,0.0,0.0,0.0,0.0,0.0,0.0,0.0,0.0,0.0,0.0,0.0,0.0,0.0,0.0,0.0,0.0,0.0,0.0,0.0,0.0,0.0,-3.5013,-3.6769,-3.9059,-3.9982,-3.8769,-3.8536,-3.7058,-3.3704,0.0,0.0,0.0,0.0,0.0,0.0,0.0,0.0,0.0,0.0,0.0,0.0,0.0,0.0,0.0,0.0,0.0,0.0,0.0,0.0,0.0,0.0,0.0,0.0,0.0,0.0,0.0,0.0,0.0,0.0,0.0,0.0,0.0,0.0,0.0,0.0,0.0,0.0,0.0,0.0,0.0,0.0,0.0,0.0,0.0,0.0,0.0,0.0,0.0,0.0,0.0,0.0,0.0,0.0,0.0,0.0,0.0,0.0,0.0,0.0,0.0,0.0,0.0,0.0,0.0,0.0,0.0,0.0,0.0,0.0,0.0,0.0,0.0,0.0,0.0,0.0,0.0,0.0,0.0,0.0,0.0,0.0,0.0,0.0,0.0,0.0,0.0,0.0,0.0,0.0,0.0,0.0,0.0,0.0,0.0,0.0,0.0,0.0,0.0,0.0,0.0,0.0,0.0,0.0,-3.4968,-3.8662,-3.9905,-4.0182,-3.9398,-3.8714,-3.7328,-3.5034,0.0,0.0,0.0,0.0,0.0,0.0,0.0,0.0,0.0,0.0,0.0,0.0,0.0,0.0,0.0,0.0,0.0,0.0,0.0,0.0,0.0,0.0,0.0,0.0,0.0,0.0,0.0,0.0,0.0,0.0,0.0,0.0,0.0,0.0,0.0,0.0,0.0,0.0,0.0,0.0,0.0,0.0,0.0,0.0,0.0,0.0,0.0,0.0,0.0,0.0,0.0,0.0,0.0,0.0,0.0,0.0,0.0,0.0,0.0,0.0,0.0,0.0,0.0,0.0,0.0,0.0,0.0,0.0,0.0,0.0,0.0,0.0,0.0,0.0,0.0,0.0,0.0,0.0,0.0,0.0,0.0,0.0,0.0,0.0,0.0,0.0,0.0,0.0,0.0,0.0,0.0,0.0,0.0,0.0,0.0,0.0,0.0,0.0,0.0,0.0,0.0,0.0,0.0,-3.3444,-3.5414,-3.9123,-3.9428,-3.9241,-3.8882,-3.8157,-3.6462,-3.3545,-3.2197,0.0,0.0,0.0,0.0,0.0,0.0,0.0,0.0,0.0,0.0,0.0,0.0,0.0,0.0,0.0,0.0,0.0,0.0,0.0,0.0,0.0,0.0,0.0,0.0,0.0,0.0,0.0,0.0,0.0,0.0,0.0,0.0,0.0,0.0,0.0,0.0,0.0,0.0,0.0,0.0,0.0,0.0,0.0,0.0,0.0,0.0,0.0,0.0,0.0,0.0,0.0,0.0,0.0,0.0,0.0,0.0,0.0,0.0,0.0,0.0,0.0,0.0,0.0,0.0,0.0,0.0,0.0,0.0,0.0,0.0,0.0,0.0,0.0,0.0,0.0,0.0,0.0,0.0,0.0,0.0,0.0,0.0,0.0,0.0,0.0,0.0,0.0,0.0,0.0,0.0,0.0,0.0,0.0,0.0,0.0,0.0,0.0,0.0,0.0,0.0,0.0,0.0,-3.5046,-3.623,-3.9066,-3.8659,-3.8129,-3.7977,-3.6872,-3.4884,-3.1955,-3.0644,0.0,0.0,0.0,0.0,0.0,0.0,0.0,0.0,0.0,0.0,0.0,0.0,0.0,0.0,0.0,0.0,0.0,0.0,0.0,0.0,0.0,0.0,0.0,0.0,0.0,0.0,0.0,0.0,0.0,0.0,0.0,0.0,0.0,0.0,0.0,0.0,0.0,0.0,0.0,0.0,0.0,0.0,0.0,0.0,0.0,0.0,0.0,0.0,0.0,0.0,0.0,0.0,0.0,0.0,0.0,0.0,0.0,0.0,0.0,0.0,0.0,0.0,0.0,0.0,0.0,0.0,0.0,0.0,0.0,0.0,0.0,0.0,0.0,0.0,0.0,0.0,0.0,0.0,0.0,0.0,0.0,0.0,0.0,0.0,0.0,0.0,0.0,0.0,0.0,0.0,0.0,0.0,0.0,0.0,0.0,0.0,0.0,0.0,0.0,0.0,0.0,0.0,-3.5431,-3.7539,-3.8899,-3.7936,-3.7139,-3.703,-3.4593,-3.2673,-3.1691,-2.889,0.0,0.0,0.0,0.0,0.0,0.0,0.0,0.0,0.0,0.0,0.0,0.0,0.0,0.0,0.0,0.0,0.0,0.0,0.0,0.0,0.0,0.0,0.0,0.0,0.0,0.0,0.0,0.0,0.0,0.0,0.0,0.0,0.0,0.0,0.0,0.0,0.0,0.0,0.0,0.0,0.0,0.0,0.0,0.0,0.0,0.0,0.0,0.0,0.0,0.0,0.0,0.0,0.0,0.0,0.0,0.0,0.0,0.0,0.0,0.0,0.0,0.0,0.0,0.0,0.0,0.0,0.0,0.0,0.0,0.0,0.0,0.0,0.0,0.0,0.0,0.0,0.0,0.0,0.0,0.0,0.0,0.0,0.0,0.0,0.0,0.0,0.0,0.0,0.0,0.0,0.0,0.0,0.0,0.0,0.0,0.0,0.0,0.0,0.0,0.0,0.0,0.0,-3.3071,-3.4934,-3.6182,-3.5525,-3.5099,-3.5379,-3.4054,-3.2388,-3.0422,0.0,0.0,0.0,0.0,0.0,0.0,0.0,0.0,0.0,0.0,0.0,0.0,0.0,0.0,0.0,0.0,0.0,0.0,0.0,0.0,0.0,0.0,0.0,0.0,0.0,0.0,0.0,0.0,0.0,0.0,0.0,0.0,0.0,0.0,0.0,0.0,0.0,0.0,0.0,0.0,0.0,0.0,0.0,0.0,0.0,0.0,0.0,0.0,0.0,0.0,0.0,0.0,0.0,0.0,0.0,0.0,0.0,0.0,0.0,0.0,0.0,0.0,0.0,0.0,0.0,0.0,0.0,0.0,0.0,0.0,0.0,0.0,0.0,0.0,0.0,0.0,0.0,0.0,0.0,0.0,0.0,0.0,0.0,0.0,0.0,0.0,0.0,0.0,0.0,0.0,0.0,0.0,0.0,0.0,0.0,0.0,0.0,0.0,0.0,0.0,0.0,0.0,-2.9679,-3.1694,-3.3392,-3.4426,-3.3797,-3.3487,-3.4026,-3.2875,-3.1302,-2.9289,0.0,0.0,0.0,0.0,0.0,0.0,0.0,0.0,0.0,0.0,0.0,0.0,0.0,0.0,0.0,0.0,0.0,0.0,0.0,0.0,0.0,0.0,0.0,0.0,0.0,0.0,0.0,0.0,0.0,0.0,0.0,0.0,0.0,0.0,0.0,0.0,0.0,0.0,0.0,0.0,0.0,0.0,0.0,0.0,0.0,0.0,0.0,0.0,0.0,0.0,0.0,0.0,0.0,0.0,0.0,0.0,0.0,0.0,0.0,0.0,0.0,0.0,0.0,0.0,0.0,0.0,0.0,0.0,0.0,0.0,0.0,0.0,0.0,0.0,0.0,0.0,0.0,0.0,0.0,0.0,0.0,0.0,0.0,0.0,0.0,0.0,0.0,0.0,0.0,0.0,0.0,0.0,0.0,0.0,0.0,0.0,0.0,0.0,0.0,0.0,0.0,0.0,-2.9319,-3.1815,-3.3663,-3.4142,-3.3079,-3.2586,-3.303,-3.0764,-2.9039,0.0,0.0,0.0,0.0,0.0,0.0,0.0,0.0,0.0,0.0,0.0,0.0,0.0,0.0,0.0,0.0,0.0,0.0,0.0,0.0,0.0,0.0,0.0,0.0,0.0,0.0,0.0,0.0,0.0,0.0,0.0,0.0,0.0,0.0,0.0,0.0,0.0,0.0,0.0,0.0,0.0,0.0,0.0,0.0,0.0,0.0,0.0,0.0,0.0,0.0,0.0,0.0,0.0,0.0,0.0,0.0,0.0,0.0,0.0,0.0,0.0,0.0,0.0,0.0,0.0,0.0,0.0,0.0,0.0,0.0,0.0,0.0,0.0,0.0,0.0,0.0,0.0,0.0,0.0,0.0,0.0,0.0,0.0,0.0,0.0,0.0,0.0,0.0,0.0,0.0,0.0,0.0,0.0,0.0,0.0,0.0,0.0,0.0,0.0,0.0,0.0,0.0,0.0,-2.8061,-3.0677,-3.2372,-3.1991,-3.1612,-3.1474,-3.1622,-3.0913,-2.9706,-2.7889,0.0,0.0,0.0,0.0,0.0,0.0,0.0,0.0,0.0,0.0,0.0,0.0,0.0,0.0,0.0,0.0,0.0,0.0,0.0,0.0,0.0,0.0,0.0,0.0,0.0,0.0,0.0,0.0,0.0,0.0,0.0,0.0,0.0,0.0,0.0,0.0,0.0,0.0,0.0,0.0,0.0,0.0,0.0,0.0,0.0,0.0,0.0,0.0,0.0,0.0,0.0,0.0,0.0,0.0,0.0,0.0,0.0,0.0,0.0,0.0,0.0,0.0,0.0,0.0,0.0,0.0,0.0,0.0,0.0,0.0,0.0,0.0,0.0,0.0,0.0,0.0,0.0,0.0,0.0,0.0,0.0,0.0,0.0,0.0,0.0,0.0,0.0,0.0,0.0,0.0,0.0,0.0,0.0,0.0,0.0,0.0,0.0,0.0,0.0,0.0,0.0,0.0,-2.7433,-2.9949,-3.1492,-3.1061,-3.0986,-3.0986,-3.0986,-3.0986,-3.0061,-2.7871,0.0,0.0,0.0,0.0,0.0,0.0,0.0,0.0,0.0,0.0,0.0,0.0,0.0,0.0,0.0,0.0,0.0,0.0,0.0,0.0,0.0,0.0,0.0,0.0,0.0,0.0,0.0,0.0,0.0,0.0,0.0,0.0,0.0,0.0,0.0,0.0,0.0,0.0,0.0,0.0,0.0,0.0,0.0,0.0,0.0,0.0,0.0,0.0,0.0,0.0,0.0,0.0,0.0,0.0,0.0,0.0,0.0,0.0,0.0,0.0,0.0,0.0,0.0,0.0,0.0,0.0,0.0,0.0,0.0,0.0,0.0,0.0,0.0,0.0,0.0,0.0,0.0,0.0,0.0,0.0,0.0,0.0,0.0,0.0,0.0,0.0,0.0,0.0,0.0,0.0,0.0,0.0,0.0,0.0,0.0,0.0,0.0,0.0,0.0,0.0,0.0,0.0,-2.7346,-2.9549,-3.0986,-3.0986,-3.0986,-3.0986,-3.0986,-3.0986,-3.0157,-2.8269,0.0,0.0,0.0,0.0,0.0,0.0,0.0,0.0,0.0,0.0,0.0,0.0,0.0,0.0,0.0,0.0,0.0,0.0,0.0,0.0,0.0,0.0,0.0,0.0,0.0,0.0,0.0,0.0,0.0,0.0,0.0,0.0,0.0,0.0,0.0,0.0,0.0,0.0,0.0,0.0,0.0,0.0,0.0,0.0,0.0,0.0,0.0,0.0,0.0,0.0,0.0,0.0,0.0,0.0,0.0,0.0,0.0,0.0,0.0,0.0,-3.3981,0.0,0.0,0.0,0.0,0.0,0.0,0.0,0.0,0.0,0.0,0.0,0.0,0.0,0.0,0.0,0.0,0.0,0.0,0.0,0.0,0.0,0.0,0.0,0.0,0.0,0.0,0.0,0.0,0.0,0.0,0.0,0.0,0.0,0.0,0.0,0.0,0.0,0.0,0.0,0.0,0.0,-2.7346,-2.9549,-3.0986,-3.0986,-3.0986,-3.0949,-3.0773,-3.0773,-3.0104,-2.8597,-2.6841,0.0,0.0,0.0,0.0,0.0,0.0,0.0,0.0,0.0,0.0,0.0,0.0,0.0,0.0,0.0,0.0,0.0,0.0,0.0,0.0,0.0,0.0,0.0,0.0,0.0,0.0,0.0,0.0,0.0,0.0,0.0,0.0,0.0,0.0,0.0,0.0,0.0,0.0,0.0,0.0,0.0,0.0,0.0,0.0,0.0,0.0,0.0,0.0,0.0,0.0,0.0,0.0,0.0,0.0,0.0,0.0,0.0,0.0,0.0,0.0,-3.6432,0.0,0.0,0.0,0.0,0.0,0.0,0.0,0.0,0.0,0.0,0.0,0.0,0.0,0.0,0.0,0.0,0.0,0.0,0.0,0.0,0.0,0.0,0.0,0.0,0.0,0.0,0.0,0.0,0.0,0.0,0.0,0.0,0.0,0.0,0.0,0.0,0.0,0.0,0.0,0.0,-2.7798,-2.9719,-3.0986,-3.0986,-3.0986,-3.0911,-3.0736,-3.0698,-3.016,-2.8966,-2.7519,0.0,0.0,0.0,0.0,0.0,0.0,0.0,0.0,0.0,0.0,0.0,0.0,0.0,0.0,0.0,0.0,0.0,0.0,0.0,0.0,0.0,0.0,0.0,0.0,0.0,0.0,0.0,0.0,0.0,0.0,0.0,0.0,0.0,0.0,0.0,0.0,0.0,0.0,0.0,0.0,0.0,0.0,0.0,0.0,0.0,0.0,0.0,0.0,0.0,0.0,0.0,0.0,0.0,-4.2504,-4.2807,-4.2709,-4.3335,-4.3595,-4.3415,-4.0966,-4.0054,-4.0094,-3.8003,0.0,0.0,0.0,0.0,0.0,0.0,0.0,0.0,0.0,0.0,0.0,0.0,0.0,0.0,0.0,0.0,0.0,0.0,0.0,0.0,0.0,0.0,0.0,0.0,-3.2515,-3.1575,0.0,0.0,0.0,0.0,0.0,0.0,0.0,0.0,0.0,0.0,0.0,0.0,-2.8276,-2.9902,-3.0949,-3.0949,-3.0911,-3.0798,-3.0622,-3.0584,-3.0227,-2.9352,-2.8276,-2.7164,0.0,0.0,0.0,0.0,0.0,0.0,0.0,0.0,0.0,0.0,0.0,0.0,0.0,0.0,0.0,0.0,0.0,0.0,0.0,0.0,0.0,0.0,0.0,0.0,0.0,0.0,0.0,0.0,0.0,0.0,0.0,0.0,-3.0278,-3.0509,0.0,0.0,0.0,0.0,0.0,0.0,0.0,0.0,0.0,0.0,0.0,0.0,0.0,-4.1485,-4.2108,-4.3357,-4.3763,-4.3304,-4.3993,-4.431,-4.431,-4.4412,-4.4361,-4.417,-4.3783,0.0,-4.1557,-4.0508,0.0,0.0,0.0,0.0,0.0,0.0,0.0,0.0,0.0,0.0,0.0,0.0,0.0,0.0,0.0,0.0,0.0,0.0,0.0,0.0,0.0,0.0,-3.4064,-3.4051,-3.3064,-3.1883,0.0,-2.8978,-2.7198,-2.6464,-2.5533,0.0,0.0,0.0,0.0,0.0,0.0,0.0,-2.8294,-2.977,-3.0736,-3.0736,-3.0558,-3.0406,-3.0203,-3.019,-3.005,-2.9756,-2.8649,-2.7756,-2.7092,-2.5548,0.0,0.0,0.0,0.0,0.0,0.0,0.0,0.0,0.0,0.0,0.0,0.0,0.0,0.0,0.0,0.0,0.0,0.0,0.0,0.0,0.0,0.0,0.0,0.0,0.0,0.0,0.0,0.0,0.0,-2.9717,-3.1999,-3.2922,-3.4443,-3.4968,0.0,0.0,0.0,0.0,0.0,0.0,0.0,0.0,0.0,-4.2193,-4.2959,-4.3671,-4.4398,-4.5772,-4.6319,-4.6043,-4.673,-4.7056,-4.7056,-4.7056,-4.6777,-4.6178,-4.6105,-4.5131,-4.3514,-4.1905,-4.0269,-3.8725,0.0,0.0,0.0,0.0,-3.5912,-3.4852,-3.5444,-3.5185,0.0,-3.3065,0.0,0.0,0.0,0.0,0.0,0.0,0.0,0.0,0.0,0.0,-3.4209,-3.4048,-3.3312,-3.2424,-3.1702,-3.044,-2.9125,0.0,-2.753,-2.7112,-2.613,0.0,0.0,0.0,0.0,-2.8678,-2.9132,-3.0062,-3.066,-3.0533,-3.0444,-3.033,-3.0113,-3.0113,-3.0011,-2.9792,-2.9327,-2.88,-2.8235,-2.6917,-2.5674,0.0,0.0,0.0,0.0,0.0,0.0,0.0,0.0,0.0,0.0,0.0,0.0,0.0,0.0,0.0,0.0,0.0,0.0,0.0,0.0,0.0,0.0,0.0,0.0,0.0,0.0,0.0,0.0,-3.1655,-3.3936,-3.5349,-3.7105,-3.7624,0.0,0.0,0.0,0.0,0.0,0.0,-4.1409,-4.1512,-4.2499,-4.4669,-4.5252,-4.5772,-4.6261,-4.7331,-4.7804,-4.7631,-4.8173,-4.8443,-4.8443,-4.8443,-4.8048,-4.7325,-4.6988,-4.6115,-4.4783,-4.2953,-4.1372,-4.0034,-3.9322,-3.8242,-3.7194,-3.7676,-3.7078,-3.615,-3.7083,-3.6954,-3.6257,-3.5111,0.0,-3.3355,-3.1545,0.0,0.0,0.0,0.0,-3.3206,-3.5009,-3.473,-3.398,-3.3751,-3.33,-3.2722,-3.1914,-3.142,-3.0727,0.0,-2.9287,-2.9091,-2.7785,0.0,0.0,0.0,0.0,-2.9424,-2.9693,-3.0223,-3.0508,-3.033,-3.0292,-3.019,-3.0049,-3.0011,-2.9972,-2.9792,-2.9792,-2.9465,-2.8712,-2.7934,-2.6892,-2.5624,0.0,0.0,0.0,0.0,0.0,0.0,0.0,0.0,0.0,0.0,0.0,0.0,0.0,0.0,0.0,0.0,0.0,0.0,0.0,0.0,0.0,0.0,0.0,0.0,0.0,0.0,0.0,0.0,0.0,-3.7919,-4.0057,0.0,0.0,0.0,0.0,-4.0425,-4.1494,-4.2898,-4.4497,-4.4538,-4.5529,-4.7806,-4.7793,-4.7767,-4.777,-4.7855,-4.7564,-4.6853,-4.6887,-4.6904,-4.6904,-4.6904,-4.6722,-4.6337,-4.5634,-4.5087,-4.4652,-4.3843,-4.3019,-4.2258,-4.1541,-4.0812,-4.0105,-3.9499,-3.8856,-3.8144,-3.7598,-3.7267,-3.7189,-3.7903,-3.7124,-3.5809,-3.5608,-3.4611,0.0,0.0,-3.5292,-3.4732,-3.5869,-3.485,-3.3517,-3.3507,-3.3131,-3.2502,-3.1695,-3.15,-3.1344,0.0,-3.0438,-3.0022,-2.9944,0.0,-2.8925,-2.8925,-2.9235,-2.9497,-2.9523,-2.9884,-3.0126,-3.0113,-2.9934,-2.983,-2.983,-2.983,-2.9792,-2.9792,-2.9792,-2.9302,-2.8197,-2.8097,-2.7281,-2.5624,-2.4519,0.0,0.0,0.0,0.0,0.0,0.0,0.0,0.0,0.0,0.0,0.0,0.0,0.0,0.0,0.0,0.0,0.0,0.0,0.0,0.0,0.0,0.0,0.0,0.0,0.0,0.0,0.0,0.0,-4.1071,-4.3335,0.0,-4.3328,-4.3527,-4.3912,-4.4354,-4.407,-4.4722,-4.6704,-4.6777,-4.7352,-4.8623,-4.8643,-4.8612,-4.8612,-4.8612,-4.8477,-4.8223,-4.8223,-4.8223,-4.8206,-4.8132,-4.7679,-4.6993,-4.665,-4.6065,-4.5334,-4.4605,-4.3876,-4.3168,-4.292,-4.2099,-4.1087,-4.0847,-4.0042,-3.8993,-3.8605,-3.8442,-3.8341,-3.8005,-3.7228,-3.6347,-3.6193,-3.5787,-3.5511,-3.6236,-3.5782,-3.5141,-3.5503,-3.4821,-3.3953,-3.3666,-3.3333,-3.2953,-3.2678,-3.2329,-3.1941,-3.1435,-3.075,-3.0221,-2.9956,-2.9886,-2.9775,-2.9365,-2.9752,-3.0036,-2.9897,-3.0025,-3.0049,-2.9934,-2.983,-2.9792,-2.9792,-2.9453,-2.9239,-2.9239,-2.89,-2.8524,-2.8122,-2.777,-2.7293,-2.6691,-2.5586,-2.4481,0.0,0.0,0.0,0.0,0.0,0.0,0.0,0.0,0.0,0.0,0.0,0.0,0.0,0.0,0.0,0.0,0.0,0.0,0.0,0.0,0.0,0.0,0.0,0.0,0.0,-3.8753,-4.1615,-4.348,-4.5599,-4.6717,-4.6212,-4.656,-4.6958,-4.7257,-4.649,-4.6782,-4.8545,-4.8159,-4.8359,-4.934,-4.9137,-4.9001,-4.9001,-4.9001,-4.9001,-4.9001,-4.9001,-4.9001,-4.9001,-4.8863,-4.8406,-4.7764,-4.7373,-4.6801,-4.6096,-4.5367,-4.4638,-4.3959,-4.3698,-4.2741,-4.1492,-4.1492,-4.06,-3.9373,-3.9177,-3.9141,-3.9081,-3.8179,-3.7703,-3.7386,-3.7048,-3.7048,-3.7084,-3.6852,-3.6185,-3.5467,-3.5264,-3.462,-3.3916,-3.3665,-3.3486,-3.3289,-3.3026,-3.2692,-3.2296,-3.1783,-3.1177,-3.0623,-3.0081,-3.015,-3.0177,-2.9769,-2.9986,-3.0152,-3.0011,-3.0011,-2.9934,-2.9792,-2.9792,-2.9792,-2.9792,-2.9264,-2.8976,-2.9202,-2.8524,-2.8109,-2.8109,-2.757,-2.7228,-2.704,-2.59,-2.4983,-2.4268,0.0,0.0,0.0,0.0,0.0,0.0,0.0,0.0,0.0,0.0,0.0,0.0,0.0,0.0,0.0,0.0,0.0,0.0,0.0,0.0,0.0,0.0,0.0,-3.8317,-4.0383,-4.2755,-4.5128,-4.6812,-4.7601,-4.7119,-4.9067,-4.9955,-4.8944,-4.8814,-4.9181,-5.0031,-4.8748,-4.8629,-5.005,-4.9407,-4.9018,-4.9001,-4.9001,-4.9001,-4.9001,-4.9001,-4.9001,-4.9001,-4.8863,-4.869,-4.8433,-4.7606,-4.7117,-4.6874,-4.6129,-4.54,-4.4688,-4.3913,-4.2726,-4.1492,-4.1492,-4.06,-3.9337,-3.9177,-3.9228,-3.9301,-3.8716,-3.8775,-3.898,-3.8389,-3.8501,-3.8583,-3.751,-3.6568,-3.5775,-3.5142,-3.4191,-3.3398,-3.3398,-3.3556,-3.3487,-3.2713,-3.2599,-3.2504,-3.2094,-3.173,-3.1281,-3.0522,-3.0228,-3.0075,-3.0075,-2.9934,0.0,-2.9792,-2.9792,-2.9792,-2.9792,-2.9792,-2.9792,-2.9792,-2.9264,-2.9126,-2.9704,-2.8699,-2.8084,-2.8084,-2.757,-2.7065,-2.6524,-2.5435,-2.485,-2.4813,0.0,0.0,0.0,0.0,0.0,0.0,0.0,0.0,0.0,0.0,0.0,0.0,0.0,0.0,0.0,0.0,0.0,0.0,0.0,0.0,0.0,-3.8139,-4.0727,-4.0727,-4.3786,-4.6502,-4.7751,-4.8822,-4.9846,-5.0849,-5.0127,-4.9767,-5.015,-4.9326,-4.9181,-5.0031,-4.9712,-4.9678,-5.0084,-4.9898,-4.9543,-4.9018,-4.9001,-4.9001,-4.9001,-4.9001,-4.9001,-4.9001,-4.8721,-4.8547,-4.8467,-4.798,-4.7735,-4.7636,-4.6891,-4.6477,-4.6131,-4.4343,-4.2768,-4.1459,-4.0959,-4.0095,-3.9177,-3.9301,-3.9141,-3.8943,-3.8958,-3.8811,-3.8664,-3.8649,-3.8612,-3.8375,-3.7448,-3.6699,-3.5923,-3.4855,-3.4092,-3.3556,-3.324,-3.3356,-3.3433,-3.3208,-3.317,-3.3047,-3.253,-3.2039,-3.1518,-3.089,-3.0276,-2.9869,-2.9869,-2.983,0.0,-2.9792,-2.9792,-2.9792,-2.9792,-2.9792,-2.9792,-2.9792,-2.9264,-2.8787,-2.8586,-2.7908,-2.7507,-2.7507,-2.7369,-2.7241,-2.709,-2.6753,-2.6201,0.0,0.0,0.0,0.0,0.0,0.0,0.0,0.0,0.0,0.0,0.0,0.0,0.0,0.0,0.0,0.0,0.0,0.0,0.0,0.0,0.0,0.0,-4.1107,-4.3823,-4.4167,-4.6212,-4.8261,-4.9727,-5.0307,-5.1086,-5.2371,-5.1362,-5.0651,-5.0708,-5.0345,-5.0235,-5.0522,-5.0557,-5.0557,-5.0557,-5.0253,-4.9746,-4.9018,-4.9001,-4.9154,-4.9458,-4.9154,-4.9171,-4.9441,-4.8776,-4.8515,0.0,-4.8164,-4.8001,-4.7968,-4.7537,-4.7173,0.0,0.0,0.0,0.0,0.0,-3.9702,-3.9228,-3.9337,-3.9265,-3.9068,-3.9104,-3.8995,-3.8848,-3.8833,-3.876,-3.8538,-3.7601,-3.7049,-3.6478,-3.5019,-3.4441,-3.4079,-3.3398,-3.3313,-3.3398,-3.3283,-3.3283,-3.3182,-3.2853,-3.2335,0.0,-3.1223,-3.0372,-2.9792,-2.9792,-2.9792,-2.9792,-2.9792,-2.9792,-2.9792,-2.9792,-2.9792,-2.9792,-2.9792,-2.9264,0.0,0.0,0.0,-2.7632,-2.7632,-2.7632,0.0,0.0,0.0,0.0,0.0,0.0,0.0,0.0,-2.6941,-2.6603,0.0,0.0,0.0,0.0,0.0,0.0,0.0,0.0,0.0,0.0,0.0,0.0,0.0,0.0,0.0,0.0,-4.4114,-4.6848,-4.7844,-4.8061,-4.8912,-5.1049,-5.1285,-5.1611,-5.2426,-5.2361,-5.1825,-5.0761,-5.137,-5.1604,-5.1231,0.0,0.0,0.0,0.0,-4.9746,-4.9018,-4.9001,-4.9323,-4.9965,-4.9407,-4.9424,-4.9949,-4.9028,-4.8599,-4.8483,-4.8164,-4.8001,-4.8001,-4.8001,-4.7456,-4.6436,-4.4383,-4.302,-4.2009,-4.0092,-3.9388,-3.9388,-3.9388,0.0,0.0,-3.9177,-3.9228,-3.9301,-3.898,-3.898,-3.887,-3.7829,-3.7563,-3.7165,-3.5413,-3.4979,-3.4746,-3.3641,-3.3398,-3.3356,-3.3154,-3.3124,-3.3124,-3.3124,-3.2604,-3.2051,-3.1574,-3.0595,-2.9867,-2.9804,-2.9792,-2.9792,-2.9792,-2.9792,-2.9792,-2.9792,0.0,0.0,-2.9792,-2.9315,-2.9214,-2.9666,-2.875,-2.8197,-2.8197,-2.826,-2.826,-2.8197,-2.826,-2.8499,-2.8888,-2.8963,-2.9289,-2.9754,-2.8174,-2.7533,0.0,0.0,0.0,0.0,0.0,0.0,0.0,0.0,0.0,0.0,0.0,0.0,0.0,0.0,0.0,-4.3769,-4.558,-4.7228,-4.9329,-5.018,-5.0778,-5.123,-5.1285,-5.1611,-5.2426,-5.1473,-5.0781,-5.0699,-5.0978,-5.1193,-5.1199,-5.1185,-5.1185,-5.1185,-5.0473,-4.9746,-4.9018,-4.9001,-4.9069,-4.9221,0.0,0.0,-4.9238,-4.933,-4.9053,-4.8483,-4.8164,-4.8001,-4.8001,-4.8001,-4.6861,-4.4982,-4.3428,-4.1663,-3.999,-3.9562,-3.9388,-3.9388,-3.9388,-3.9388,-3.9388,-3.9337,-3.9265,-3.9177,-3.9265,-3.9177,0.0,-3.7994,-3.7895,-3.7553,-3.5346,-3.4979,-3.491,-3.3471,-3.3283,-3.3356,-3.3154,-3.3124,-3.3124,-3.3124,-3.2604,-3.2177,-3.2077,-3.1173,-3.0306,-2.9867,-2.9792,-2.9792,-2.9792,-2.9792,-2.9792,-2.9792,-2.9792,-2.9792,-2.9792,-2.9691,-2.9478,-2.9076,-2.885,-2.8737,-2.8737,-2.9214,-2.9252,-2.8737,-2.9227,-2.9289,-2.8888,-2.9402,-2.9679,-2.9779,-2.876,-2.827,0.0,0.0,0.0,0.0,0.0,0.0,0.0,0.0,0.0,0.0,0.0,-3.6731,-3.9459,0.0,-4.3226,-4.6051,-4.7215,-4.8469,-5.0438,-5.1125,-5.1546,-5.1869,-5.19,-5.2063,-5.2462,-5.1849,-5.1401,-5.1314,-5.1741,-5.1938,-5.174,-5.2147,-5.2012,-5.1202,-5.0845,-5.0118,-4.9018,-4.9001,-4.9187,-4.9543,-4.9543,-4.9543,-4.9543,-4.9308,-4.8948,-4.8483,-4.8212,-4.8049,-4.7968,-4.7555,-4.6338,-4.4559,-4.3122,-4.1449,-3.9873,-3.9508,-3.9388,-3.9388,-3.9388,-3.9388,-3.9388,-3.9388,-3.9337,-3.9265,-3.9373,-3.9265,-3.9017,-3.8708,-3.8634,-3.83,-3.683,-3.6267,-3.5735,-3.4387,-3.3797,-3.3471,-3.3154,-3.3124,-3.3124,-3.3124,-3.2842,-3.2554,-3.2265,-3.1537,-3.0821,-3.0281,-2.9967,-2.9792,-2.9792,-2.9792,-2.9792,-2.9792,-2.9792,-2.9792,-2.9792,-2.9792,-2.9666,-2.9377,-2.9365,-2.9365,-2.9365,-2.9641,-2.9654,-2.9365,-2.9641,-2.9654,-2.9365,-2.9654,-2.9792,-2.9804,-2.9611,-2.9564,0.0,0.0,0.0,0.0,0.0,0.0,0.0,-3.1884,-3.2838,-3.4897,-3.7247,-3.9496,-4.1597,-4.3934,-4.6146,-4.7919,-4.8841,-4.9886,-5.1375,-5.173,-5.201,-5.2499,-5.2549,-5.2549,-5.2549,-5.2457,-5.2245,-5.1944,-5.2344,-5.2535,-5.2304,-5.2924,-5.2706,-5.1471,-5.1388,-5.0777,-4.9441,-4.9289,-4.9509,-5.0084,-4.9492,-4.9458,-4.9864,-4.9285,-4.8841,-4.8547,-4.8292,-4.8115,-4.7935,-4.6981,-4.5933,-4.4709,-4.2968,-4.1589,-4.0502,-3.9709,-3.9388,-3.9388,-3.9388,-3.9388,-3.9388,-3.9388,-3.9388,-3.9388,-3.9388,-3.9301,-3.9177,-3.9337,-3.9265,-3.8995,-3.83,-3.7615,-3.6816,-3.5494,-3.4553,-3.3839,-3.3441,-3.3197,-3.3124,-3.3124,-3.3124,-3.293,-3.2466,-3.1913,-3.1336,-3.0708,-3.0143,-2.9792,-2.9792,-2.9792,-2.9792,-2.9792,-2.9792,-2.9792,-2.9792,-2.9792,-2.9792,-2.9792,-2.9792,-2.9792,-2.9792,-2.9792,-2.9792,-2.9792,-2.9792,-2.9792,-2.9792,-2.9792,-2.9792,-2.9804,-3.0357,-3.062,-2.7574,-2.7952,-2.8837,-3.0798,-3.1181,-3.2038,0.0,-3.5876,-3.5823,-3.7621,-3.9745,-4.1651,-4.274,-4.4922,-4.7302,-4.9625,-5.015,-5.0797,-5.2415,-5.2656,-5.2692,-5.2761,-5.2779,-5.2779,-5.2779,-5.2244,-5.1909,-5.1974,-5.151,-5.1536,-5.2274,-5.2384,-5.2367,-5.2181,-5.2181,-5.1792,-5.0948,-5.0304,-5.0016,-5.0084,-4.9999,-4.9678,-4.9154,-4.9573,-4.9409,-4.8755,-4.8356,-4.8115,-4.7902,-4.641,-4.5722,-4.5299,-4.2574,-4.1438,-4.1115,-3.9873,-3.9388,-3.9388,-3.9388,-3.9388,-3.9388,-3.9388,-3.9388,-3.9388,-3.9388,-3.9388,-3.9373,-3.9388,-3.9388,-3.9141,-3.8121,-3.7933,-3.7668,-3.6148,-3.5305,-3.4746,-3.4343,-3.3654,-3.3124,-3.3124,-3.3124,-3.3056,-3.2993,-3.2503,-3.1775,-3.0771,-3.0143,-2.9792,-2.9792,-2.9792,-2.9792,-2.9792,-2.9792,-2.9792,-2.9792,-2.9792,-2.9792,-2.9792,-2.9792,-2.9792,-2.9792,-2.9792,-2.9792,-2.9792,-2.9792,-2.9792,-2.9792,-2.9792,-2.9792,-2.9804,-3.0357,-3.062,-2.9301,-2.9898,-3.073,-3.249,-3.3159,-3.4078,-3.6702,-3.6973,-3.713,-3.8765,-4.0957,-4.285,-4.3706,-4.6219,-4.8641,-5.0114,-5.0438,-5.1049,-5.2587,-5.2532,-5.2486,-5.2879,-5.2556,-5.2465,-5.2769,-5.2563,-5.243,-5.2617,-5.1979,-5.1812,-5.2255,-5.2294,-5.2097,-5.1674,-5.208,-5.1961,-5.1217,-5.0896,-5.0744,-5.0744,-5.0744,-5.0355,-4.9644,-4.9902,-4.9523,-4.8595,-4.8324,-4.8115,-4.7886,-4.6793,-4.6092,-4.5446,-4.3017,-4.179,-4.122,-3.9903,-3.9388,-3.9388,-3.9388,-3.9388,-3.9388,-3.9388,-3.9388,-3.9388,-3.9388,-3.9388,-3.9388,-3.9388,-3.9388,-3.9301,-3.887,-3.8375,-3.7834,-3.7165,-3.6267,-3.5413,-3.4731,-3.4217,-3.3696,-3.3197,-3.3124,-3.3124,-3.3124,-3.2591,-3.2064,-3.1612,-3.0821,-3.0156,-2.9829,-2.9792,-2.9792,-2.9792,-2.9792,-2.9792,-2.9792,-2.9792,-2.9792,-2.9792,-2.9792,-2.9792,-2.9792,-2.9792,-2.9792,-2.9792,-2.9792,-2.9792,-2.9792,-2.9792,-2.9955,-3.0281,-3.0821,-3.1235,-3.0696,-3.1496,-3.2372,-3.4081,-3.5017,-3.5945,-3.7354,-3.7634,-3.7932,-3.9104,-4.1061,-4.2868,-4.3907,-4.6552,-4.8999,-5.0258,-5.0764,-5.1446,-5.2733,-5.2587,-5.2433,-5.2697,-5.2302,-5.2153,-5.255,-5.2561,-5.2676,-5.3092,-5.2437,-5.2075,-5.2277,-5.2296,-5.2053,-5.1522,-5.2249,-5.2384,-5.186,-5.1623,-5.1522,-5.1505,-5.1099,-5.0625,-5.0084,-4.9881,-4.9335,-4.8564,-4.8356,-4.8212,-4.7984,-4.7152,-4.6359,-4.5482,-4.335,-4.2056,-4.122,-3.9903,-3.9388,-3.9388,-3.9388,-3.9388,-3.9388,-3.9388,-3.9388,-3.9388,-3.9388,-3.9388,-3.9388,-3.9388,-3.9388,-3.9388,-3.9388,-3.8848,-3.8263,-3.8121,-3.7218,-3.6201,-3.548,-3.5006,-3.4496,-3.3611,-3.3454,-3.3368,-3.3154,-3.2729,-3.239,-3.224,-3.1549,-3.0809,-3.0105,-2.988,-2.9792,-2.9792,-2.9792,-2.9792,-2.9792,-2.9792,-2.9792,-2.9792,-2.9792,-2.9792,-2.9792,-2.9792,-2.9792,-2.9792,-2.9792,-2.9792,-2.9792,-2.9942,-3.0231,-3.0633,-3.1298,-3.1838,-3.1288,-3.2261,-3.3395,-3.5657,-3.674,-3.7467,-3.8438,-3.851,-3.8446,-3.8679,-3.9884,-4.139,-4.303,-4.5388,-4.7838,-5.0218,-5.1364,-5.2252,-5.3075,-5.3167,-5.2894,-5.2123,-5.1995,-5.1995,-5.2013,-5.1909,-5.2215,-5.3146,-5.2444,-5.2058,-5.2201,-5.2271,-5.2293,-5.2282,-5.3061,-5.345,-5.3433,-5.2655,-5.2266,-5.2249,-5.0811,-5.0101,-5.0067,-4.9357,-4.8942,-4.8786,-4.8595,-4.8388,-4.813,-4.7169,-4.6359,-4.5482,-4.335,-4.2056,-4.122,-3.9903,-3.9388,-3.9388,-3.9388,-3.9388,-3.9388,-3.9388,-3.9388,-3.9388,-3.9388,-3.9388,-3.9388,-3.9388,-3.9388,-3.9388,-3.9388,-3.9388,-3.9265,-3.887,-3.8121,-3.7333,-3.6922,-3.6148,-3.5318,-3.4509,-3.4356,-3.4105,-3.3253,-3.3056,-3.2855,-3.2303,-3.219,-3.1788,-3.0721,-3.0118,-2.9792,-2.9792,-2.9792,-2.9792,-2.9792,-2.9792,-2.9792,-2.9792,-2.9792,-2.9792,-2.9792,-2.9792,-2.9792,-2.9792,-2.9792,-2.9792,-2.9792,-3.0331,-3.0595,-3.0645,-3.17,-3.219,-3.2217,-3.3389,-3.4746,-3.6626,-3.7261,-3.7668,-3.8524,-3.8643,-3.8627,-3.8692,-3.9928,-4.1324,-4.242,-4.5059,-4.7698,-4.9625,-5.1094,-5.227,-5.3096,-5.3185,-5.3093,-5.2839,-5.2325,-5.2197,-5.2747,-5.2265,-5.2284,-5.313,-5.2504,-5.1884,-5.1501,-5.1542,-5.1344,-5.086,-5.2046,-5.2706,-5.2706,-5.2959,-5.2841,-5.2283,-5.0794,-5.0084,-5.0067,-4.934,-4.8925,-4.8786,-4.8738,-4.85,-4.8195,-4.7836,-4.6931,-4.5555,-4.3922,-4.2515,-4.122,-3.9903,-3.9388,-3.9388,-3.9388,-3.9388,-3.9388,-3.9388,-3.9388,-3.9388,-3.9388,-3.9388,-3.9388,-3.9388,-3.9388,-3.9388,-3.9388,-3.9301,-3.9177,-3.9177,-3.8686,-3.7985,-3.741,-3.6869,-3.6042,-3.4675,-3.4397,-3.4105,-3.324,-3.3124,-3.288,-3.2303,-3.1612,-3.1022,-3.067,-3.0131,-2.9792,-2.9792,-2.9792,-2.9792,-2.9792,-2.9792,-2.9792,-2.9792,-2.9792,-2.9792,-2.9792,-2.9792,-2.9792,-2.9792,-2.9792,-2.998,-3.0331,-3.052,-3.0984,-3.1687,-3.2039,-3.2416,-3.3284,-3.4552,-3.5848,-3.7514,-3.7933,-3.8065,-3.8579,-3.8707,-3.8615,-3.8322,-3.9331,-4.0581,-4.168,-4.3792,-4.6305,-4.9151,-5.0455,-5.1591,-5.3004,-5.3185,-5.3075,-5.2821,-5.2307,-5.2307,-5.3112,-5.2472,-5.2325,-5.3151,-5.3043,-5.2395,-5.1233,-5.1472,-5.1194,-5.0227,-5.1653,-5.2382,-5.23,-5.2807,-5.2553,-5.1505,-5.0541,-4.9949,-4.9678,-4.9221,-4.894,-4.8863,-4.8801,-4.8595,-4.8292,-4.8227,-4.7203,-4.5555,-4.4202,-4.2767,-4.122,-3.9903,-3.9388,-3.9388,-3.9388,-3.9388,-3.9388,-3.9388,-3.9388,-3.9388,-3.9388,-3.9388,-3.9388,-3.9388,-3.9388,-3.9388,-3.9388,-3.9301,-3.9177,-3.9177,-3.8885,-3.8464,-3.7857,-3.7553,-3.6936,-3.5548,-3.5019,-3.4579,-3.3696,-3.3326,-3.2955,-3.2579,-3.1763,-3.1047,-3.067,-3.0131,-2.9792,-2.9792,-2.9792,-2.9792,-2.9792,-2.9792,-2.9792,-2.9792,-2.9792,-2.9792,-2.9792,-2.9792,-2.9792,-2.9792,-2.9993,-3.0269,-3.062,-3.0997,-3.1537,-3.2227,-3.2428,-3.2717,-3.4435,-3.572,-3.678,-3.8322,-3.8707,-3.8707,-3.8707,-3.867,-3.8432,-3.7713,-3.8138,-3.9129,-4.0728,-4.1772,-4.392,-4.8711,-4.9517,-5.0417,-5.2876,-5.3185,-5.2931,-5.2142,-5.205,-5.2362,-5.3133,-5.2546,-5.2417,-5.3148,0.0,-5.344,-5.1396,-5.1977,-5.1713,-5.0379,-5.1747,-5.243,-5.2181,-5.2181,-5.1471,-5.0084,-5.005,-4.9678,-4.9001,-4.9001,-4.9001,-4.9001,-4.8863,-4.8707,-4.8483,-4.8292,-4.7253,-4.5591,-4.4237,-4.2767,-4.122,-3.9903,-3.9388,-3.9388,-3.9388,-3.9388,-3.9388,-3.9388,-3.9388,-3.9388,-3.9388,-3.9388,-3.9388,-3.9388,-3.9388,-3.9388,-3.9388,-3.9388,-3.9301,-3.8907,-3.8819,-3.8708,-3.8315,-3.8202,-3.7924,-3.7053,-3.6162,-3.5318,-3.4509,-3.3696,-3.3124,-3.3124,-3.2591,-3.1838,-3.0796,-3.0168,-2.9829,-2.9792,-2.9792,-2.9792,-2.9792,-2.9792,-2.9792,-2.9792,-2.9792,-2.9792,-2.9792,-2.9792,-2.9792,-2.9792,-3.0331,-3.0593,-3.0658,-3.17,-3.2227,-3.2277,-3.2817,-3.3124,-3.5624,-3.7019,-3.8193,-3.8597,-3.8707,-3.8707,-3.8707,-3.823,-3.7933,-3.8303,-3.8065,-3.83,-3.99,-4.1827,-4.4176,-4.7241,-4.9279,-5.1114,-5.2949,-5.3185,-5.3112,-5.2931,-5.2894,-5.2986,-5.3167,-5.3555,-5.3628,-5.3222,-5.339,-5.2858,-5.1378,-5.1384,-5.0842,-4.9549,-5.0854,-5.1266,-5.0659,-5.0659,-5.0456,-5.0084,-4.9543,-4.9187,-4.9001,-4.9001,-4.9001,-4.9001,-4.897,-4.8846,-4.8707,-4.8532,-4.7389,-4.5703,-4.4256,-4.2767,-4.122,-3.9903,-3.9388,-3.9388,-3.9388,-3.9388,-3.9388,-3.9388,-3.9388,-3.9388,-3.9388,-3.9388,-3.9388,-3.9388,-3.9388,-3.9388,-3.9388,-3.9388,-3.9373,-3.9265,-3.9017,-3.8782,-3.8671,-3.8412,-3.7924,-3.7053,-3.5696,-3.462,-3.4439,-3.3696,-3.3124,-3.3124,-3.2591,-3.1964,-3.1286,-3.0733,-3.0244,-2.9829,-2.9792,-2.9792,-2.9792,-2.9792,-2.9792,-2.9792,-2.9792,-2.9792,-2.9792,-2.9792,-2.9792,-2.9792,-3.0331,-3.0809,-3.1198,-3.1876,-3.2441,-3.2855,-3.3048,-3.3124,-3.6597,-3.7734,-3.8707,-3.8707,-3.8707,-3.8615,-3.8248,-3.8102,-3.7845,-3.7206,-3.7588,-3.8098,-3.8267,-4.0579,-4.324,-4.5645,-4.8085,-5.0398,-5.2399,-5.2986,-5.3185,-5.3185,-5.3185,-5.3332,-5.3702,-5.383,-5.383,-5.3739,-5.3739,-5.3062,-5.1515,-5.1371,-5.0742,-4.9453,-5.0399,-5.065,-5.0101,-5.0084,-4.9932,-4.961,-4.9204,-4.9001,-4.9001,-4.9001,-4.9001,-4.9001,0.0,-4.8909,-4.8769,-4.8595,-4.7671,-4.6234,-4.4395,-4.2965,-4.1682,-3.9997,-3.9388,-3.9388,-3.9388,-3.9388,-3.9388,-3.9388,-3.9388,-3.9388,-3.9388,-3.9388,-3.9388,-3.9388,-3.9388,-3.9388,-3.9388,-3.9388,-3.9337,-3.9177,-3.8943,-3.8745,-3.856,-3.8352,-3.7924,-3.7053,-3.6136,-3.5264,-3.4522,-3.3979,-3.3526,-3.3167,-3.2805,-3.239,-3.1825,-3.1085,-3.0495,-3.0181,-2.9942,-2.9792,-2.9792,-2.9792,-2.9792,-2.9792,-2.9792,-2.9792,-2.9792,-2.9792,-2.9792,-2.9792,-3.0557,-3.1097,-3.1386,-3.2202,-3.2754,-3.3124,-3.3124,-3.3124,-3.7452,-3.8172,-3.8707,-3.8707,-3.8707,-3.8524,-3.7823,-3.8028,-3.7808,-3.5756,-3.6857,-3.7863,-3.667,-3.9001,-4.1884,-4.4306,-4.6746,-4.9169,-5.1646,-5.2601,-5.3096,-5.3206,-5.3185,-5.3482,-5.4179,-5.361,-5.35,-5.4197,-5.4234,-5.3467,-5.1687,-5.1576,-5.1017,-4.9816,-5.0201,-5.0311,-5.0084,-4.9999,-4.9627,-4.9001,-4.9001,-4.9001,-4.9001,-4.9001,-4.9001,-4.9001,0.0,0.0,-4.8801,-4.8627,-4.8,-4.6921,-4.4719,-4.3321,-4.2258,-4.0257,-3.9481,-3.9388,-3.9388,-3.9388,-3.9388,-3.9388,-3.9388,-3.9388,-3.9388,-3.9388,-3.9388,-3.9388,-3.9388,-3.9388,-3.9388,-3.9388,-3.9301,-3.8943,-3.8819,-3.8708,-3.8352,-3.824,-3.7962,-3.7208,-3.6975,-3.6413,-3.4827,-3.4468,-3.4105,-3.324,-3.3124,-3.2893,-3.239,-3.1449,-3.0771,-3.0633,-3.0181,-2.988,-2.9804,-2.9792,-2.9792,-2.9792,-2.9792,-2.9792,-2.9792,-2.9792,-2.9792,-2.9792,-3.0846,-3.1386,-3.1386,-3.2528,-3.3124,-3.3124,-3.3124,-3.3124,-3.8354,-3.864,-3.8707,-3.8707,-3.8707,-3.867,-3.8524,-3.7569,-3.678,-3.7033,-3.6321,-3.5977,-3.7088,-3.9386,-4.1884,-4.4306,-4.6746,-4.9169,-5.1646,-5.2105,-5.2454,-5.3112,-5.3185,-5.324,-5.339,-5.3277,-5.3259,-5.3387,-5.3427,-5.2885,-5.1669,-5.1421,-5.1023,-5.0288,-4.9719,-4.9661,-5.0084,-4.9492,-4.9137,-4.9001,-4.9001,-4.9001,-4.9001,-4.9001,-4.9001,-4.9001,-4.9001,0.0,-4.894,-4.8801,-4.8145,-4.7108,-4.5439,-4.3838,-4.233,-4.083,-3.9915,-3.9388,-3.9388,-3.9388,-3.9388,-3.9388,-3.9388,-3.9388,-3.9388,-3.9388,-3.9388,-3.9388,-3.9388,-3.9388,-3.9388,-3.9388,-3.9388,-3.9301,-3.9031,-3.8782,-3.8708,-3.8427,-3.8165,-3.8,-3.7414,-3.657,-3.5548,-3.4855,-3.4105,-3.324,-3.3124,-3.3043,-3.2943,-3.2353,-3.1599,-3.0708,-3.0532,-3.0281,-2.9829,-2.9792,-2.9792,-2.9792,-2.9792,-2.9792,-2.9792,-2.9792,-2.9792,-2.9792,-3.0846,-3.1386,-3.1386,-3.2528,-3.3124,-3.3124,-3.3124,-3.3124,-3.8696,-3.8777,-3.875,-3.8707,-3.8395,-3.7955,-3.7551,-3.6853,-3.6156,-3.5675,-3.5624,-3.5675,-3.5625,-3.7959,-4.0438,-4.2034,-4.465,-4.7481,-5.0385,-5.1158,-5.1873,-5.3059,-5.3293,-5.3314,-5.3206,-5.323,-5.3251,-5.3206,-5.3185,-5.2739,-5.1669,-5.0982,-5.0406,-4.9943,-4.9555,-4.9399,-4.9526,-4.9187,-4.9001,-4.9001,-4.9001,-4.9001,-4.9001,-4.9001,-4.9001,-4.9001,-4.9001,0.0,-4.9001,-4.8863,-4.8435,-4.7752,-4.5783,-4.4226,-4.2919,-4.1129,-4.0021,-3.9388,-3.9388,-3.9388,-3.9388,-3.9388,-3.9388,-3.9388,-3.9388,-3.9388,-3.9388,-3.9388,-3.9388,-3.9388,-3.9388,-3.9388,-3.9337,-3.9141,-3.876,-3.8486,-3.8486,-3.8352,-3.8202,-3.8202,-3.7848,-3.7285,-3.6439,-3.5561,-3.4731,-3.3894,-3.3411,-3.3124,-3.3124,-3.2566,-3.1901,-3.1097,-3.0783,-3.0394,-2.9842,-2.9792,-2.9792,-2.9792,-2.9792,-2.9792,-2.9792,-2.9792,-2.993,-3.0218,-3.0997,-3.1537,-3.1813,-3.2667,-3.3124,-3.3124,-3.3124,-3.3124,-3.8781,-3.8822,-3.8777,-3.8723,-3.8102,-3.7327,-3.6703,-3.6285,-3.5661,-3.4339,-3.4963,-3.5487,-3.4599,-3.6689,-3.8988,-4.0391,-4.2853,-4.5787,-4.9231,-5.0263,-5.1311,-5.307,-5.3398,-5.3418,-5.323,-5.3274,-5.3256,-5.3206,-5.2995,-5.2495,-5.1644,-5.0684,-4.9976,-4.95,-4.9518,-4.9337,-4.9001,-4.9001,-4.9001,-4.9001,-4.9001,-4.9001,-4.9001,-4.9001,-4.9001,-4.9001,-4.9001,0.0,0.0,-4.8863,-4.8574,-4.8052,-4.6039,-4.4593,-4.3454,-4.1445,-4.025,-3.961,-3.9445,-3.9388,-3.9388,-3.9388,-3.9388,-3.9388,-3.9388,-3.9388,-3.9388,-3.9388,-3.9388,-3.9388,-3.9388,-3.9388,-3.9301,-3.8907,-3.8538,-3.824,-3.8202,-3.8202,-3.8202,-3.8202,-3.8202,-3.7872,-3.6805,-3.6068,-3.5264,-3.4259,-3.3539,-3.3124,-3.3124,-3.2566,-3.2001,-3.1449,-3.0922,-3.0394,-2.9842,-2.9792,-2.9792,-2.9792,-2.9792,-2.9792,-2.9792,-2.9905,-3.0168,-3.0608,-3.1235,-3.1775,-3.2215,-3.2792,-3.3124,-3.3124,-3.3124,-3.3124,-3.8707,-3.8851,-3.8777,-3.8723,-3.8102,-3.7474,-3.7419,-3.6211,-3.5078,-3.4931,-3.4417,-3.4476,-3.5906,-3.7006,-3.8711,-4.1778,-4.3197,-4.5283,-4.9215,-4.9842,-5.0802,-5.3202,-5.3499,-5.344,-5.3297,-5.3297,-5.3256,-5.3206,-5.2291,-5.1701,-5.1619,-5.1026,-5.0352,-4.9518,-4.9518,-4.9337,-4.9001,-4.9001,-4.9001,-4.9001,-4.9001,-4.9001,-4.9001,-4.9001,-4.9001,-4.9001,-4.9001,0.0,0.0,-4.8863,-4.8289,-4.7398,-4.641,-4.5055,-4.3525,-4.1975,-4.0974,-4.032,-3.961,-3.9388,-3.9388,-3.9388,-3.9388,-3.9388,-3.9388,-3.9388,-3.9388,-3.9388,-3.9388,-3.9388,-3.9388,-3.9388,-3.9301,-3.8907,-3.8612,-3.8404,-3.824,-3.8202,-3.8202,-3.8202,-3.8202,-3.7682,-3.6029,-3.5655,-3.5061,-3.3441,-3.3154,-3.3124,-3.3124,-3.2566,-3.2001,-3.1449,-3.0922,-3.0394,-2.9842,-2.9792,-2.9792,-2.9792,-2.9792,-2.9792,-2.9792,-3.0269,-3.057,-3.062,-3.1625,-3.2164,-3.2215,-3.2792,-3.3124,-3.3124,-3.3124,-3.3124,-3.8645,-3.8925,-3.8851,-3.8822,-3.782,-3.6834,-3.6834,-3.5575,-3.4392,-3.4352,-3.4121,-3.4315,-3.5563,-3.6463,-3.7933,-4.0767,-4.1884,-4.3647,-4.7199,-4.8142,-4.9362,-5.1763,-5.2601,-5.3062,-5.3283,-5.338,-5.3357,-5.3206,-5.2806,-5.2291,-5.1626,-5.0793,-5.0103,-4.9619,-4.9547,-4.9398,-4.9107,-4.9032,-4.9001,-4.9001,-4.9001,-4.9001,-4.9001,-4.9001,-4.9001,-4.9001,-4.9001,0.0,0.0,-4.8956,-4.8332,-4.7328,-4.653,-4.5179,-4.3509,-4.2041,-4.1075,-4.0374,-3.9646,-3.9388,-3.9388,-3.9388,-3.9388,-3.9388,-3.9388,-3.9388,-3.9388,-3.9388,-3.9388,-3.9388,-3.9388,-3.9228,-3.898,-3.8686,-3.8464,-3.8277,-3.8202,-3.8202,-3.8202,-3.8202,-3.8202,-3.7796,-3.6596,-3.5949,-3.5224,-3.4063,-3.3454,-3.2955,-3.2604,-3.2064,-3.1512,-3.0984,-3.0733,-3.0394,-2.9842,-2.9792,-2.9792,-2.9792,-2.9792,-2.9942,-3.0281,-3.0507,-3.0758,-3.1072,-3.1825,-3.2215,-3.2215,-3.2792,-3.3124,-3.3124,-3.3124,-3.3124,-3.8243,-3.8779,-3.8921,-3.8892,-3.7649,-3.6426,-3.6426,-3.5158,-3.3985,-3.3934,-3.4175,-3.467,-3.5599,-3.6409,-3.7715,-4.003,-4.1045,-4.2668,-4.5895,-4.7098,-4.8508,-5.0898,-5.1807,-5.2456,-5.2978,-5.3132,-5.3196,-5.3206,-5.2912,-5.2384,-5.1626,-5.0739,-5.0074,-4.9708,-4.956,-4.9381,-4.9199,-4.9063,-4.9001,-4.9001,-4.9001,-4.9001,-4.9001,-4.9001,-4.9001,-4.9001,-4.9001,0.0,0.0,-4.8703,-4.8009,-4.7055,-4.621,-4.5003,-4.3614,-4.2302,-4.1525,-4.0974,-4.0041,-3.9717,-3.9681,-3.9481,-3.9388,-3.9388,-3.9388,-3.9388,-3.9388,-3.9388,-3.9388,-3.9388,-3.9388,-3.9104,-3.8745,-3.8612,-3.8389,-3.8202,-3.8202,-3.8202,-3.8202,-3.8202,-3.8202,-3.7924,-3.7053,-3.6201,-3.5318,-3.4509,-3.3654,-3.2867,-3.229,-3.1725,-3.1185,-3.067,-3.047,-3.0218,-2.9829,-2.9792,-2.9792,-2.9792,-2.9792,-2.9967,-3.0357,-3.0532,-3.0859,-3.1386,-3.1938,-3.2303,-3.2466,-3.288,-3.3124,-3.3124,-3.3124,-3.3124,-3.7377,-3.84,-3.8979,-3.8925,-3.7691,-3.6496,-3.6496,-3.5198,-3.3998,-3.3998,-3.4694,-3.5552,-3.6433,-3.7243,-3.8364,-4.0123,-4.107,-4.2742,-4.603,-4.72,-4.8612,-5.1101,-5.1416,-5.1695,-5.2324,-5.2456,-5.271,-5.3164,-5.2221,0.0,-5.1601,-5.1096,-5.0446,-4.9737,-4.956,-4.9381,-4.9199,-4.9063,-4.9001,-4.9001,-4.9001,-4.9001,-4.9001,-4.9001,-4.9001,0.0,0.0,0.0,0.0,-4.8006,-4.7174,-4.64,-4.532,-4.4501,-4.378,-4.2912,-4.2585,-4.2396,-4.0974,-4.0478,-4.0389,-3.9661,-3.9388,-3.9388,-3.9388,-3.9388,-3.9388,-3.9388,-3.9388,-3.9388,-3.9388,-3.9104,-3.8782,-3.8782,-3.8486,-3.8202,-3.8202,-3.8202,-3.8202,-3.8202,-3.8202,-3.7924,-3.7053,-3.6201,-3.5318,-3.4509,-3.3654,-3.2867,-3.229,-3.1725,-3.1185,-3.067,-3.0131,-2.9804,-2.9792,-2.9792,-2.9792,-2.9792,-2.9792,-2.9792,-2.9804,-3.0331,-3.0859,-3.1386,-3.1938,-3.2491,-3.3111,-3.3124,-3.3124,-3.3124,-3.3124,-3.3124,-3.6604,-3.7201,-3.7377,-3.7386,-3.6988,-3.643,-3.5869,-3.5371,-3.4925,-3.461,-3.5011,-3.579,-3.6947,-3.753,-3.8674,-4.1164,-4.2035,-4.3262,-4.5693,-4.6993,-4.8426,-5.0339,-5.2011,-5.3028,-5.3134,-5.2743,-5.2536,-5.2654,-5.2012,-5.1442,-5.1052,-5.0884,-5.0519,-4.9918,-4.9637,-4.9488,-4.9428,-4.9155,-4.9001,-4.9001,-4.9001,-4.9001,-4.9001,-4.9001,-4.9001,0.0,0.0,0.0,0.0,-4.7943,-4.6932,-4.5593,-4.5239,-4.4527,-4.3598,-4.2881,-4.2617,-4.2396,-4.0974,-4.0512,-4.0389,-3.9646,-3.9388,-3.9388,-3.9388,-3.9388,-3.9388,-3.9388,-3.9388,-3.9373,-3.9228,-3.898,-3.876,-3.8612,-3.8389,-3.8202,-3.8202,-3.8202,-3.8202,-3.8202,-3.8202,-3.772,-3.6267,-3.5775,-3.5102,-3.3725,-3.2954,-3.2277,-3.1725,-3.1185,-3.0658,-3.0118,-2.9892,-2.9792,-2.9792,-2.9792,-2.9792,-2.9792,-2.9792,-2.9967,-3.0331,-3.052,-3.0859,-3.1386,-3.1938,-3.2303,-3.2491,-3.288,-3.3124,-3.3124,-3.3124,-3.3124,-3.5799,-3.6358,-3.6454,-3.6509,-3.6159,-3.5684,-3.5165,-3.4862,-3.4674,-3.4681,-3.5168,-3.5887,-3.6967,-3.7613,-3.8646,-4.0676,-4.1634,-4.2816,-4.4839,-4.6452,-4.8161,-5.012,-5.1892,-5.2978,-5.3038,-5.2532,-5.2266,-5.2384,-5.1719,-5.1158,-5.0803,-5.0803,-5.0547,-5.004,-4.9725,-4.9547,-4.9518,-4.9216,-4.9063,-4.9001,-4.9001,-4.9001,-4.9001,-4.9001,-4.8849,0.0,0.0,0.0,0.0,-4.7192,-4.6414,-4.5345,-4.4943,-4.4382,-4.37,-4.3174,-4.2974,-4.282,-4.1689,-4.1109,-4.0771,-4.0056,-3.9625,-3.9388,-3.9388,-3.9388,-3.9388,-3.9388,-3.9388,-3.9337,-3.9141,-3.8943,-3.876,-3.8553,-3.8366,-3.8202,-3.8202,-3.8202,-3.8202,-3.8202,-3.8202,-3.7872,-3.6791,-3.6029,-3.5264,-3.4191,-3.2975,-3.2014,-3.1461,-3.0934,-3.0407,-2.9854,-2.9792,-2.9792,-2.9792,-2.9792,-2.9792,-2.9792,-2.9792,-2.9942,-3.0294,-3.0306,-3.0645,-3.1373,-3.1725,-3.2114,-3.2541,-3.2905,-3.3124,-3.3124,-3.3124,-3.3124,0.0,-3.567,-3.5977,-3.5977,-3.5246,-3.4495,-3.444,-3.3882,0.0,-3.4325,-3.5134,-3.5931,-3.6714,-3.7579,-3.8447,-3.9281,-4.037,-4.184,-4.3859,-4.5911,-4.8063,-5.0354,-5.1279,-5.1873,-5.2235,-5.1905,-5.1801,-5.225,-5.1339,-5.0739,-5.0739,-5.0739,-5.0509,-5.004,-4.9813,-4.9649,-4.9518,-4.929,-4.9138,-4.9001,-4.9001,-4.9001,-4.9001,-4.9001,-4.8612,0.0,0.0,0.0,0.0,-4.5974,-4.564,-4.5493,-4.4498,-4.4097,-4.401,-4.3717,-4.3598,-4.3492,-4.2834,-4.2126,-4.1393,-4.065,-3.995,-3.9388,-3.9388,-3.9388,-3.9388,-3.9388,-3.9388,-3.9337,-3.9141,-3.8943,-3.876,-3.8553,-3.8366,-3.8202,-3.8202,-3.8202,-3.8202,-3.8202,-3.8202,-3.8165,-3.8037,-3.666,-3.5574,-3.5453,-3.3563,-3.1964,-3.1449,-3.0896,-3.0357,-2.9842,-2.9792,-2.9792,-2.9792,-2.9792,-2.9792,-2.9792,-2.9792,-2.9792,-2.9792,-2.9792,-3.0294,-3.1373,-3.1461,-3.2026,-3.3124,-3.3124,-3.3124,-3.3124,-3.3124,-3.3124,-3.3655,0.0,-3.3967,-3.3967,-3.4232,-3.435,0.0,-3.3918,-3.4186,-3.4135,-3.4961,-3.6047,-3.7129,-3.8221,-3.9499,-4.123,-4.199,-4.3081,-4.5093,-4.7644,-4.9694,-5.0838,-5.1584,-5.2022,-5.2077,-5.1472,-5.1113,-5.1184,-5.0547,-5.0178,-5.0178,-5.0178,-5.0138,-4.9993,-4.9964,-4.9801,-4.9518,-4.929,-4.9138,-4.9001,-4.9001,-4.9001,-4.9001,-4.9001,-4.8612,0.0,0.0,0.0,-4.5957,-4.5771,-4.5221,-4.4435,-4.4193,-4.3952,-4.3717,-4.3628,-4.3598,-4.3492,-4.2834,-4.2126,-4.1294,-4.0041,-3.9553,-3.9388,-3.9388,-3.9388,-3.9388,-3.9388,-3.9388,-3.9337,-3.9141,-3.8943,-3.876,-3.8553,-3.8366,-3.8202,-3.8202,-3.8202,-3.8202,-3.8202,-3.8202,-3.7758,-3.6425,-3.5855,-3.5142,-3.3869,-3.2494,-3.1537,-3.1411,-3.057,-2.993,-2.9804,-2.9792,-2.9792,-2.9792,-2.9792,-2.9792,-2.9792,-2.9792,-2.9792,-2.9792,-2.9792,-3.0294,-3.1373,-3.224,-3.2817,-3.3124,-3.3124,-3.3124,-3.3124,-3.3124,-3.3124,-3.2832,-3.3492,-3.4125,-3.4125,-3.437,-3.447,-3.4025,-3.372,-3.358,-3.3737,-3.4548,-3.5543,-3.6538,-3.7787,-3.9161,-4.0627,-4.1812,-4.3537,-4.6413,-4.827,-4.9835,-5.1161,-5.1592,-5.1837,0.0,-5.1363,-5.0911,-5.0803,-5.0302,-5.0011,-5.0011,-5.0011,-5.0011,-5.0011,-5.0011,-4.9877,-4.959,-4.9411,-4.926,-4.9094,-4.8694,-4.8511,-4.8494,-4.8139,-4.7597,0.0,0.0,0.0,-4.5196,-4.5196,-4.4857,-4.4315,-4.4155,-4.3981,-4.3805,-4.3658,-4.3598,-4.3568,-4.3174,-4.238,-4.1327,-4.0235,-3.9681,-3.9328,-3.9035,-3.917,-3.9388,-3.9388,-3.9388,-3.9337,-3.9031,-3.887,-3.8723,-3.8427,-3.8277,-3.8202,-3.8202,-3.8202,-3.8202,-3.8202,-3.8202,-3.7758,-3.6439,-3.5883,-3.5103,-3.3534,-3.2228,-3.1298,-3.106,-3.0306,-2.9792,-2.9792,-2.9792,-2.9792,-2.9792,-2.9792,-2.9792,-2.9792,-2.9792,-2.9792,-2.9792,-2.9792,-3.0294,-3.1373,-3.2503,-3.3124,-3.3124,-3.3124,-3.3124,-3.3124,-3.3124,-3.3124,-3.2529,-3.3952,-3.5314,-3.4958,-3.4853,-3.4828,-3.4741,-3.3687,-3.2932,-3.3547,-3.432,-3.5127,-3.5985,-3.7319,-3.8638,-3.967,-4.1506,-4.4013,-4.7417,-4.83,-4.9317,-5.1264,-5.1258,0.0,-5.1725,-5.1112,-5.0637,-5.0509,-4.9968,-4.9666,-4.9666,-4.9666,-4.9666,-4.9666,-4.9666,-4.9591,-4.9394,-4.9457,-4.9329,-4.8999,-4.8267,-4.7821,-4.7733,-4.7073,-4.6397,-4.5703,0.0,0.0,-4.4615,-4.4615,-4.457,-4.4514,-4.4212,-4.4085,-4.401,-4.3717,-4.3515,-4.34,-4.3211,-4.2276,-4.1078,-4.0393,-3.9681,-3.9005,-3.8422,-3.8646,-3.914,-3.923,-3.9298,-3.9301,-3.8907,-3.8782,-3.8708,-3.8315,-3.8202,-3.8202,-3.8202,-3.8202,-3.8202,-3.8202,-3.8202,-3.7924,-3.7053,-3.6146,-3.5103,-3.3723,-3.2235,-3.111,-3.067,-3.0131,-2.9792,-2.9792,-2.9792,-2.9792,-2.9792,-2.9792,-2.9792,-2.9792,-2.9792,-2.9829,-2.9917,-2.9993,-3.0507,-3.1499,-3.2541,-3.3124,-3.3124,-3.3124,-3.3124,-3.3124,-3.3124,-3.3124,-3.3161,-3.4972,-3.6223,-3.4234,-3.4689,-3.5478,-3.4828,-3.4531,-3.4372,-3.4477,-3.5109,-3.6055,-3.7496,-3.8515,-3.9814,-4.1938,-4.4126,-4.6038,-4.7304,-4.8098,-4.9144,-5.0814,0.0,-5.0029,-5.0605,-4.9878,-4.9302,-4.9134,-4.8435,-4.8062,-4.8062,-4.8062,-4.8062,-4.8062,-4.8062,-4.8034,-4.8006,-4.9003,-4.9014,-4.8118,-4.797,-4.7581,-4.6972,-4.6836,-4.6397,0.0,0.0,-4.528,-4.4615,-4.4615,-4.4497,-4.4338,-4.4155,-4.4027,-4.3898,-4.3687,-4.3201,-4.2497,-4.1311,-4.0376,-3.9597,-3.8951,-3.8269,-3.7704,-3.7584,-3.7644,-3.7838,-3.8392,-3.8975,-3.9301,-3.8907,-3.8782,-3.8708,-3.8315,-3.8202,-3.8202,-3.8202,-3.8202,-3.8202,-3.8202,-3.8202,-3.7924,-3.7053,-3.5813,-3.4604,-3.3671,-3.1915,-3.0708,-3.062,-3.0131,-2.9792,-2.9792,-2.9792,-2.9792,-2.9792,-2.9792,-2.9792,-2.9792,-2.9792,-2.9993,-3.047,-3.0909,-3.1449,-3.2077,-3.2742,-3.3124,-3.3124,-3.3124,-3.3124,-3.3124,-3.3124,-3.3124,-3.2296,-3.4147,-3.5752,-3.5081,-3.6309,-3.7599,-3.7268,-3.6531,-3.5936,-3.5936,-3.6531,-3.7248,-3.797,-3.9111,-4.0849,-4.3605,-4.4922,-4.6168,-4.7783,-4.7941,-4.8328,-4.9469,0.0,-4.9047,-4.9263,-4.8849,-4.8494,-4.8329,0.0,0.0,-4.7689,-4.7689,-4.7689,-4.7689,-4.7689,-4.7662,-4.7578,-4.8031,-4.7999,-4.7529,-4.6963,-4.6532,-4.6194,-4.5771,-4.5415,-4.5094,0.0,-4.4891,-4.4615,-4.4615,-4.4468,-4.4281,-4.4155,-4.4027,-4.3818,-4.321,-4.2522,-4.1815,-4.1165,-4.0266,-3.9346,-3.9029,-3.8233,-3.7345,-3.7015,-3.715,-3.7404,-3.7375,-3.8078,-3.8799,-3.8404,-3.8583,-3.8635,-3.787,-3.797,-3.8202,-3.8202,-3.8202,-3.8202,-3.8202,-3.8202,-3.7809,-3.6616,-3.5524,-3.4281,-3.2765,-3.1415,-3.0507,-3.0218,-2.9942,-2.9792,-2.9792,-2.9792,-2.9792,-2.9792,-2.9792,-2.9792,-2.9792,-2.9792,-2.9905,-3.0168,-3.0683,-3.1223,-3.1763,-3.2315,-3.2767,-3.3124,-3.3124,-3.3124,-3.3124,-3.3124,-3.3124,-3.1899,-3.3365,-3.4995,-3.5917,-3.7521,-3.9004,-3.9484,-3.8415,-3.7415,-3.7745,-3.8251,-3.8655,-3.8655,-4.0095,-4.2013,-4.4202,-4.5168,-4.6186,-4.774,-4.7643,-4.7678,-4.8407,-4.8311,-4.8224,-4.8242,-4.797,-4.7732,0.0,0.0,0.0,-4.7155,-4.7155,-4.7155,-4.7155,-4.7155,-4.71,-4.7017,-4.6788,-4.676,-4.6874,-4.6072,-4.5618,-4.5415,-4.4869,-4.4615,-4.4615,-4.4615,-4.4496,-4.4316,-4.4316,-4.4142,-4.3816,-4.3635,-4.348,-4.3223,-4.2315,-4.1657,-4.1115,-4.0776,-3.993,-3.8919,-3.8732,-3.7904,-3.6881,-3.6402,-3.6582,-3.6896,-3.6582,-3.7161,-3.7834,-3.7709,-3.8001,-3.8128,-3.7259,-3.7418,-3.7767,-3.7767,-3.7883,-3.7984,-3.7984,-3.8101,-3.7722,-3.6273,-3.5259,-3.397,-3.203,-3.1008,-3.0269,-2.9842,-2.9792,-2.9792,-2.9792,-2.9792,-2.9792,-2.9792,-2.9792,-2.9792,-2.9792,-2.9792,-2.9854,-2.998,-3.0394,-3.0859,-3.1386,-3.18,-3.2261,-3.2837,-3.288,-3.2943,-3.3025,-3.3068,-3.3124,-3.3226,-3.3842,-3.444,-3.5918,-3.6969,-3.812,-3.9989,-3.9309,-3.8667,-3.9983,-4.0291,-4.0327,-4.0327,-4.2131,-4.35,-4.3044,-4.5378,-4.7029,-4.6442,0.0,-4.7678,-4.8407,-4.7804,-4.7517,-4.8057,-4.7368,-4.6836,0.0,0.0,0.0,-4.5569,-4.5569,-4.5569,-4.5569,-4.5569,-4.5569,-4.5569,-4.5285,-4.5452,-4.5983,-4.5777,-4.5331,-4.4682,-4.4632,-4.4615,-4.4615,-4.4615,-4.4181,-4.3504,-4.3504,-4.3054,-4.2429,-4.2165,-4.1844,-4.1491,-4.0796,-4.0525,-4.0293,-3.8982,-3.8097,-3.7422,-3.6816,-3.6158,-3.5639,-3.5594,-3.5609,-3.5759,-3.6327,-3.6436,-3.6442,-3.6856,-3.7013,-3.6922,-3.6474,-3.6417,-3.6446,-3.6446,-3.6939,-3.7375,-3.7375,-3.7825,-3.776,-3.6363,-3.4938,-3.3549,-3.2093,-3.0727,-2.9829,-2.9792,-2.9792,-2.9792,-2.9792,-2.9792,-2.9792,-2.9792,-2.9792,-2.9792,-2.9792,-2.9792,-3.0018,-3.0532,-3.0595,-3.0859,-3.1386,-3.1436,-3.1642,-3.2008,-3.2151,-3.2414,-3.2711,-3.2982,-3.3124,-3.1566,-3.2969,-3.4478,-3.5483,-3.6841,-3.8456,-4.0435,-4.0716,-4.1007,-4.2555,-4.2718,-4.2464,-4.2008,-4.3009,-4.3799,-4.3535,-4.4887,-4.6028,-4.6179,-4.6081,-4.6239,-4.6968,-4.6786,-4.6632,-4.6785,0.0,0.0,0.0,0.0,0.0,-4.5397,-4.5397,-4.5397,-4.5397,-4.5397,-4.5397,-4.5397,-4.522,-4.5196,-4.5339,-4.5106,-4.4886,-4.4615,-4.4615,-4.4344,-4.3859,-4.3859,-4.342,-4.2726,-4.2726,-4.2503,-4.2142,-4.1893,-4.1361,-4.0746,-4.0509,-4.0111,-3.9653,-3.9122,-3.8254,-3.737,-3.7101,-3.6321,-3.5504,-3.5504,-3.5504,-3.5549,-3.5804,-3.5732,-3.57,-3.6148,-3.6481,-3.6547,-3.5892,-3.6025,-3.6301,-3.6301,-3.6504,-3.6693,-3.6693,-3.6867,-3.6751,-3.5813,-3.439,-3.3054,-3.2176,-3.0763,-2.9792,-2.9792,-2.9792,-2.9792,-2.9792,-2.9792,-2.9792,-2.9792,-2.9792,-2.9792,-2.9792,-2.9792,-2.988,-3.0093,-3.0105,-3.0357,-3.0896,-3.0909,-3.1132,-3.1589,-3.1671,-3.1864,-3.2214,-3.2299,-3.2455,-3.1067,-3.2729,-3.4607,-3.5565,-3.7011,-3.881,-4.1151,-4.1701,-4.2153,-4.3625,-4.3525,-4.3096,-4.2851,-4.3219,-4.3553,-4.3553,-4.4202,-4.4817,-4.5091,-4.4904,-4.4904,-4.5407,-4.5453,-4.5362,-4.5214,0.0,0.0,0.0,0.0,0.0,0.0,-4.4716,-4.4716,-4.4716,-4.4716,-4.4716,-4.4716,-4.4499,-4.4367,-4.426,-4.4007,-4.4141,-4.4598,-4.4333,-4.3927,-4.3375,-4.3166,-4.2642,-4.1948,-4.1948,-4.1707,-4.1318,-4.1136,-4.0646,-4.0061,-4.0061,-3.973,-3.9272,-3.905,-3.8423,-3.7618,-3.7221,-3.6492,-3.5733,-3.5569,-3.5504,-3.5504,-3.5504,-3.5326,-3.5185,-3.5514,-3.58,-3.5862,-3.5238,-3.5386,-3.5706,-3.5706,-3.5865,-3.6011,-3.6011,-3.617,-3.6027,-3.5179,-3.4096,-3.2987,-3.1877,-3.0822,-3.0062,-2.983,-2.9792,-2.9792,-2.9792,-2.9792,-2.9792,-2.9792,-2.9792,-2.9792,-2.9792,-2.9792,-2.9792,-2.9792,-2.9792,-2.9967,-3.0357,-3.0357,-3.0568,-3.1001,-3.1054,-3.1231,-3.1571,-3.1559,-3.1672,-3.2376,-3.3437,-3.4683,-3.6299,-3.746,-3.9042,-4.2194,-4.2133,-4.1751,-4.2906,-4.2322,-4.1868,-4.2675,-4.2816,-4.2816,-4.2798,-4.3412,-4.3623,-4.2903,-4.343,-4.3886,-4.3904,-4.3769,-4.365,0.0,0.0,0.0,0.0,0.0,0.0,0.0,-4.3189,-4.3189,-4.3189,-4.3189,-4.3189,-4.3189,-4.2852,-4.2706,-4.2697,-4.2419,-4.3108,-4.4564,-4.3758,-4.3375,-4.3325,-4.2608,-4.1863,-4.1187,-4.1187,-4.0609,-3.9703,-3.9703,-3.9537,-3.9299,-3.9299,-3.9299,-3.9202,-3.8535,-3.8322,-3.808,-3.6829,-3.6399,-3.629,-3.5683,-3.5504,-3.5504,-3.5504,-3.5213,-3.4902,-3.4902,-3.4817,-3.4664,-3.4448,-3.4414,-3.4414,-3.4414,-3.4907,-3.5392,-3.5392,-3.5851,-3.5834,-3.4425,-3.4219,-3.3439,-3.1235,-3.0895,-3.062,-2.9895,-2.9792,-2.9792,-2.9792,-2.9792,-2.9792,-2.9792,-2.9792,-2.9792,-2.9792,-2.9792,-2.9792,-2.9792,-2.9792,-2.9792,-2.9792,-2.9792,-2.9925,-3.0186,-3.0251,-3.0481,-3.0778,-3.0782,-3.0811,-3.1333,-3.3086,-3.5289,-3.5907,-3.796,-4.0365,-4.2429,-4.2999,-4.3563,-4.5212,-4.4456,-4.3517,-4.3541,-4.3149,-4.2622,-4.2061,-4.2622,-4.3061,-4.2833,-4.2991,-4.3325,-4.3834,-4.3863,0.0,0.0,0.0,0.0,0.0,0.0,0.0,0.0,-4.3189,-4.3189,-4.3189,-4.3189,-4.3189,-4.3189,-4.3114,-4.2945,-4.268,-4.2602,-4.2709,-4.2963,-4.2726,-4.2337,-4.1847,-4.1627,-4.1102,-4.0434,-4.0434,-4.012,-3.9703,-3.9703,-3.9537,-3.9299,-3.9299,-3.9299,-3.9272,-3.9077,-3.8689,-3.8165,-3.7354,-3.6768,-3.629,-3.5683,-3.5504,-3.5504,-3.5504,-3.5213,-3.4902,-3.4902,-3.4702,-3.4481,-3.4414,-3.4414,-3.4414,-3.4414,-3.4559,-3.4704,-3.4704,-3.4849,-3.4839,-3.4396,-3.3873,-3.3119,-3.1919,-3.1267,-3.062,-2.9895,-2.9792,-2.9792,-2.9792,-2.9792,-2.9792,-2.9792,-2.9792,-2.9792,-2.9792,-2.9792,-2.9792,-2.9792,-2.9792,-2.9792,-2.9792,-2.9792,-2.9828,-2.99,-2.9952,-3.0109,-3.0378,-3.0366,-3.0482,-3.2588,-3.4652,-3.6985,-3.7719,-3.9463,-4.1307,-4.2592,-4.3614,-4.4486,-4.5227,-4.4538,-4.366,-4.3089,-4.2622,-4.2271,-4.2113,-4.2219,-4.2324,-4.2324,-4.2324,-4.25,-4.2938,-4.2991,0.0,0.0,0.0,0.0,0.0,0.0,0.0,0.0,-4.2292,-4.2292,-4.2292,-4.2292,-4.2292,-4.2292,-4.2243,-4.2078,-4.1835,-4.1784,-4.1614,-4.145,-4.1728,-4.1627,-4.1187,-4.0882,-4.0493,-4.0096,-4.0096,-3.9935,-3.9703,-3.9703,-3.9537,-3.9299,-3.9299,-3.9299,-3.9299,-3.9299,-3.905,-3.8562,-3.7677,-3.7131,-3.6584,-3.5448,-3.51,-3.504,-3.4771,-3.4426,-3.4227,-3.4478,-3.4288,-3.4095,-3.4356,-3.4414,-3.4414,-3.4414,-3.4414,-3.4414,-3.4414,-3.4414,-3.4414,-3.4414,-3.3742,-3.2932,-3.2218,-3.1169,-3.0305,-2.9869,-2.9792,-2.9792,-2.9792,-2.9792,-2.9792,-2.9792,-2.9792,-2.9792,-2.9792,-2.9792,-2.9792,-2.9792,-2.9792,-2.9792,-2.9792,-2.9702,-2.965,-2.965,-2.9495,-2.95,-2.9625,-2.9558,-2.9621,-3.4951,-3.7049,-3.904,-4.0612,-4.1459,-4.2085,-4.2737,-4.394,-4.4623,-4.3626,-4.3145,-4.2638,-4.1776,-4.1574,-4.1762,-4.257,-4.2078,-4.1604,-4.1604,-4.1604,-4.1604,-4.1604,0.0,0.0,0.0,0.0,0.0,0.0,0.0,0.0,0.0,-4.0912,-4.0912,-4.0912,-4.0912,-4.0912,-4.0912,-4.0793,-4.0631,0.0,-4.0362,-4.0238,-4.013,-4.0781,-4.1102,-4.1068,-4.0375,-4.0096,-4.0096,-4.0096,-3.9935,-3.9687,-3.9636,-3.9437,-3.9199,-3.9199,-3.9199,-3.9216,-3.9282,-3.9272,-3.8996,-3.7729,-3.7275,-3.6882,-3.4969,-3.4414,-3.4294,-3.3664,-3.3253,-3.3136,-3.3758,-3.3706,-3.3649,-3.4196,-3.437,-3.4414,-3.4414,-3.4414,-3.4414,-3.4414,-3.4414,-3.4414,-3.4414,-3.3776,-3.3038,-3.2218,-3.0797,-2.9792,-2.9792,-2.9792,-2.9792,-2.9792,-2.9792,-2.9792,-2.9792,-2.9792,-2.9792,-2.9792,-2.9792,-2.9792,-2.9792,-2.9792,-2.9792,-2.9792,-2.956,-2.9419,-2.9419,-2.9079,-2.8882,-2.8831,-2.8657,-2.859,-3.3282,-3.5403,-3.8069,-3.9924,-4.1988,-4.3462,-4.2991,-4.3623,-4.4014,-4.3001,-4.2119,-4.1591,-4.1803,-4.1243,-4.0972,-4.1745,-4.171,-4.1604,-4.1604,-4.1604,-4.1604,-4.1604,0.0,0.0,0.0,0.0,0.0,0.0,0.0,0.0,-4.0912,-4.0912,-4.0912,-4.0912,-4.0912,-4.0912,-4.0912,-4.0864,-4.0728,0.0,-4.0485,-4.0337,-4.0113,-4.0265,-4.035,-4.0333,-4.018,-4.0096,-4.0096,-4.0096,-3.9935,-3.9636,-3.9058,-3.8661,-3.8444,-3.8444,-3.8444,-3.8526,-3.91,-3.8969,-3.8298,-3.7039,-3.6256,-3.5566,-3.4166,-3.3709,-3.3679,-3.3529,-3.3253,-3.3033,-3.3181,-3.3369,-3.3532,-3.3663,-3.4051,-3.4414,-3.4414,-3.4414,-3.4414,-3.4414,-3.4414,-3.4414,-3.4414,-3.4264,-3.3673,-3.2304,-3.0797,-2.9792,-2.9792,-2.9792,-2.9792,-2.9792,-2.9792,-2.9792,-2.9792,-2.9792,-2.9792,-2.9792,-2.9792,-2.9792,-2.9792,-2.9792,-2.9792,-2.9792,-2.974,-2.9702,-2.9702,-2.9624,-2.9482,-2.9263,-2.9223,-2.9118,-3.3812,-3.5966,-3.8439,-4.077,-4.2364,-4.3201,-4.2501,-4.2647,-4.27,-4.1772,-4.1629,-4.1619,-4.141,-4.1177,-4.1148,-4.1552,-4.1604,-4.1604,-4.1604,-4.1604,-4.1604,-4.1604,0.0,0.0,0.0,0.0,0.0,0.0,0.0,-4.0118,-4.0412,-4.0366,-4.0515,-4.0894,-4.0532,-4.0342,-4.0342,-4.0342,-4.0012,-3.9392,-3.9792,-3.9647,-3.9056,-3.9791,-3.991,-3.9571,-3.9571,-3.9385,-3.9039,-3.9039,-3.894,-3.869,-3.8246,-3.7945,-3.7759,-3.7682,-3.7682,-3.7731,-3.8096,-3.8028,-3.7514,-3.6286,-3.565,-3.5062,-3.3502,-3.3021,-3.2961,-3.2647,-3.2317,-3.2164,-3.2428,-3.2533,-3.2687,-3.3358,-3.3949,-3.4414,-3.4414,-3.4414,-3.4414,-3.4414,-3.4414,-3.4414,-3.4414,-3.4079,-3.3416,-3.2254,-3.1108,-3.0317,-3.0317,-3.0037,-2.9792,-2.9792,-2.9792,-2.9792,-2.9792,-2.9792,-2.9792,-2.9792,-2.9792,-2.9792,-2.9792,-2.9792,-2.9792,-2.9792,-2.965,-2.9573,-2.9456,-2.9378,-2.9209,-2.8961,-2.8961,-2.8934,-3.4108,-3.6509,-3.8954,-4.1604,-4.2422,-4.2393,-4.1793,-4.1613,-4.1413,-4.0782,-4.1311,-4.164,-4.0798,-4.0934,-4.12,-4.12,-4.12,-4.12,-4.12,-4.12,-4.12,0.0,0.0,0.0,0.0,0.0,0.0,0.0,0.0,-3.9177,-3.969,-3.9577,-3.9819,-4.048,-3.9853,-3.9508,-3.9508,-3.9508,-3.9067,-3.8213,-3.8832,-3.8714,-3.7939,-3.9157,-3.9402,-3.8802,-3.8802,-3.8464,-3.7905,-3.7905,-3.781,-3.7631,-3.7399,-3.7202,-3.7045,-3.6945,-3.692,-3.6936,-3.7069,-3.7026,-3.6746,-3.5516,-3.5066,-3.4648,-3.2866,-3.2318,-3.2198,-3.166,-3.1307,-3.1205,-3.1706,-3.1668,-3.1787,-3.2908,-3.3703,-3.4283,-3.4385,-3.4414,-3.4414,-3.4414,-3.4414,-3.4414,-3.4414,-3.3742,-3.3003,-3.2362,-3.1489,-3.0895,-3.0895,-3.0279,-2.9792,-2.9792,-2.9792,-2.9792,-2.9792,-2.9792,-2.9792,-2.9792,-2.9792,-2.9792,-2.9792,-2.9792,-2.9792,-2.9792,-2.956,-2.9404,-2.9209,-2.9052,-2.8855,-2.8657,-2.863,-2.859,-3.0739,-3.4076,-3.8026,-4.0441,-4.1706,-4.2174,-4.1583,-4.1308,-4.1212,-4.1279,-4.0712,-4.018,-4.0034,-3.9785,-3.9599,-3.9599,-3.9599,-3.9599,-3.9599,-3.9599,-3.9599,0.0,0.0,0.0,0.0,0.0,0.0,0.0,-3.8942,-3.8863,-3.8945,-3.8817,-3.8807,-3.8888,-3.8784,-3.8732,-3.8732,-3.8732,-3.8568,-3.819,-3.8133,-3.8031,-3.7922,-3.8108,-3.8142,-3.8058,-3.8058,-3.799,-3.7905,-3.7905,-3.7745,-3.7466,-3.6788,-3.6393,-3.6183,-3.6141,-3.6158,-3.6241,-3.6887,-3.672,-3.6023,-3.4834,-3.4069,-3.3398,-3.2057,-3.163,-3.1615,-3.1525,-3.1307,-3.1132,-3.1191,-3.1362,-3.1538,-3.1729,-3.2716,-3.3779,-3.4298,-3.4414,-3.4414,-3.4414,-3.4414,-3.4414,-3.4414,-3.3742,-3.3178,-3.3073,-3.1842,-3.0895,-3.0895,-3.0279,-2.9792,-2.9792,-2.9792,-2.9792,-2.9792,-2.9792,-2.9792,-2.9792,-2.9792,-2.9792,-2.9792,-2.9792,-2.9792,-2.9792,-2.9753,-2.974,-2.9714,-2.9663,-2.9534,-2.9263,-2.9091,-2.8934,-3.1301,-3.4198,-3.7163,-4.0073,-4.1132,-4.154,-4.1853,-4.185,-4.1685,-4.1318,-4.0784,-4.0395,-4.0395,-3.9794,-3.9284,-3.9284,-3.9284,-3.9284,-3.9284,-3.9284,-3.9284,0.0,0.0,0.0,0.0,0.0,0.0,0.0,-3.7763,-3.7847,-3.8217,-3.8109,-3.8212,-3.8599,-3.8203,-3.7996,-3.7996,-3.7996,-3.7846,-3.7576,-3.6921,-3.6597,-3.6597,-3.6597,-3.6857,-3.728,-3.728,-3.7026,-3.6597,-3.6597,-3.6551,-3.6384,-3.5964,-3.5706,-3.5588,-3.5428,-3.5379,-3.5429,-3.5744,-3.5671,-3.529,-3.4456,-3.3779,-3.3139,-3.2267,-3.1768,-3.1511,-3.1511,-3.1307,-3.1117,-3.1117,-3.1041,-3.1119,-3.1613,-3.2063,-3.2614,-3.3485,-3.4066,-3.4312,-3.3949,-3.3891,-3.3775,-3.3412,-3.335,-3.3229,-3.2776,-3.1749,-3.097,-3.093,-3.0279,-2.9792,-2.9792,-2.9792,-2.9792,-2.9792,-2.9792,-2.9792,-2.9792,-2.9792,-2.9792,-2.9792,-2.9792,-2.9792,-2.9792,-2.9792,-2.974,-2.956,-2.9456,-2.9287,-2.9067,-2.8855,-2.8697,-3.1178,-3.3318,-3.5181,-3.8667,-3.9976,-4.0675,-4.1683,-4.1881,-4.168,-4.1154,-4.0547,-4.01,-4.01,-3.9497,-3.8936,-3.876,-3.8725,-3.8725,-3.8725,-3.8725,-3.8725,0.0,0.0,0.0,0.0,0.0,0.0,0.0,-3.6888,-3.7013,-3.7506,-3.7397,-3.7551,-3.8035,-3.7495,-3.7202,-3.7202,-3.7176,-3.705,-3.6813,-3.6027,-3.5622,-3.56,-3.56,-3.5943,-3.6485,-3.6485,-3.6146,-3.56,-3.56,-3.5577,-3.5526,-3.536,-3.5268,-3.5175,-3.497,-3.4899,-3.4899,-3.4899,-3.4899,-3.4811,-3.4275,-3.3697,-3.3093,-3.2574,-3.1994,-3.1511,-3.1511,-3.1307,-3.1117,-3.1117,-3.0851,-3.0772,-3.1426,-3.154,-3.1787,-3.2745,-3.347,-3.379,-3.3311,-3.3256,-3.3079,-3.26,-3.2904,-3.3046,-3.2425,-3.153,-3.0895,-3.094,-3.0125,-2.9628,-2.9779,-2.9792,-2.9792,-2.9792,-2.9792,-2.9792,-2.9792,-2.9792,-2.9792,-2.9792,-2.9792,-2.9792,-2.9792,-2.9792,-2.9702,-2.9509,-2.9365,-2.9209,-2.9052,-2.8816,-2.8736,-2.828,-2.9755,-3.1317,-3.5109,-3.7725,-3.9631,-4.0657,-4.0729,-4.0644,-4.0781,-3.9456,-3.8254,-3.8254,-3.8199,-3.7935,-3.7235,-3.713,-3.713,-3.713,-3.713,0.0,0.0,0.0,0.0,0.0,0.0,0.0,0.0,-3.6888,-3.6826,-3.6841,-3.6658,-3.6572,-3.6624,-3.645,-3.6353,-3.6353,-3.6302,-3.6212,-3.6066,-3.5878,-3.5728,-3.56,-3.56,-3.5616,-3.565,-3.565,-3.5633,-3.56,-3.56,-3.5503,-3.5314,-3.5291,-3.5135,-3.4923,-3.4899,-3.4899,-3.4899,-3.4899,-3.4899,-3.4811,-3.4275,-3.3697,-3.3093,-3.2574,-3.1994,-3.1511,-3.1511,-3.1307,-3.1117,-3.1117,-3.0851,-3.0612,-3.0656,-3.109,-3.1683,-3.2365,-3.2553,-3.2582,-3.2539,-3.2571,-3.2556,-3.2527,-3.2542,-3.2539,-3.2492,-3.1258,-3.0498,-3.1023,-2.9831,-2.9189,-2.9729,-2.9792,-2.9792,-2.9792,-2.9792,-2.9792,-2.9792,-2.9792,-2.9792,-2.9792,-2.9792,-2.9792,-2.9792,-2.9792,-2.9792,-2.9792,-2.9753,-2.9753,-2.9753,-2.9482,-2.9341,-2.6981,-2.8737,-3.0669,-3.3038,-3.4986,-3.6568,-3.7402,-3.8295,-3.8834,-3.8443,-3.8224,-3.797,-3.7479,-3.7393,-3.7323,-3.7042,-3.7007,-3.7007,-3.7007,-3.7007,0.0,0.0,0.0,0.0,0.0,0.0,0.0,0.0,0.0,-3.6869,-3.6745,-3.6664,-3.6544,-3.6381,-3.6322,-3.6301,-3.6301,-3.6229,-3.6182,-3.6122,-3.5905,-3.5773,-3.5728,-3.5644,-3.56,-3.56,-3.56,-3.56,-3.56,-3.56,-3.5554,-3.5481,-3.536,-3.5245,-3.5152,-3.497,-3.4899,-3.4899,-3.4899,-3.4899,-3.4875,-3.4683,-3.3977,-3.3156,-3.296,-3.2256,-3.1511,-3.1511,-3.1307,-3.1117,-3.1117,-3.0851,-3.0598,-3.0598,-3.0786,-3.0974,-3.1221,-3.1584,-3.1843,-3.1843,-3.1843,-3.1743,-3.1337,-3.1613,-3.1717,-3.1212,-3.0713,-3.0394,-3.052,-2.9652,-2.9096,-2.9351,-2.8947,-2.8712,-2.8712,-2.8712,-2.8712,-2.8712,-2.9038,-2.9239,-2.9239,-2.9591,-2.9792,-2.9792,-2.9792,-2.9702,-2.956,-2.9417,-2.93,-2.917,-2.8934,-2.8803,-2.5682,-2.735,-2.9406,-3.1475,-3.2757,-3.3986,-3.5794,-3.6601,-3.6882,-3.6636,-3.6987,-3.718,-3.6689,-3.6831,-3.7007,-3.7007,-3.7007,-3.7007,-3.7007,-3.7007,0.0,0.0,0.0,0.0,0.0,0.0,0.0,0.0,0.0,0.0,-3.6806,-3.6742,-3.6582,-3.6301,-3.6301,-3.6301,-3.6301,-3.6255,-3.6229,-3.6204,-3.5971,-3.5839,-3.5795,-3.5667,-3.56,-3.56,-3.56,-3.56,-3.56,-3.56,-3.5577,-3.5549,-3.5429,-3.5314,-3.5222,-3.5018,-3.4947,-3.4899,-3.4899,-3.4899,-3.4899,-3.4899,-3.4127,-3.3182,-3.3182,-3.2407,-3.1511,-3.1511,-3.1336,-3.1161,-3.1102,-3.0851,-3.0598,-3.0598,-3.0598,-3.0598,-3.0598,-3.0901,-3.1206,-3.1206,-3.1206,-3.1061,-3.067,-3.0916,-3.1038,-3.0557,-3.026,-3.0164,-3.028,-2.9609,-2.9136,-2.9099,-2.871,-2.8339,-2.8109,-2.8109,-2.8109,-2.8109,-2.8411,-2.8612,-2.8612,-2.9026,-2.9227,-2.9227,-2.9415,-2.9375,-2.9145,-2.9279,-2.926,-2.9131,-2.8895,-2.8776,0.0,0.0,0.0,-3.0264,-3.1019,-3.2072,-3.5865,-3.5602,-3.4793,-3.5564,-3.5722,-3.574,-3.5792,-3.6426,-3.6937,-3.6937,-3.6972,-3.7007,-3.7007,-3.7007,0.0,0.0,0.0,0.0,0.0,0.0,0.0,0.0,-3.7007,-3.7007,-3.6989,-3.6806,-3.6564,-3.6322,-3.6301,-3.6301,-3.6301,-3.6301,-3.6276,-3.6187,-3.6079,-3.5932,-3.5795,-3.5667,-3.56,-3.56,-3.56,-3.56,-3.56,-3.56,-3.5549,-3.5492,-3.5492,-3.5337,-3.5111,-3.5088,-3.5018,-3.4899,-3.4899,-3.4899,-3.4899,-3.4875,-3.4127,-3.3182,-3.3198,-3.2379,-3.1511,-3.1511,-3.1409,-3.1263,-3.1132,-3.0821,-3.0598,-3.0598,-3.0598,-3.0598,-3.0598,-3.0598,-3.0598,-3.0598,-3.0598,-3.0598,-3.0598,-3.0598,-3.0598,-3.0598,-3.0068,-2.9802,-3.0343,-2.9769,-2.9241,-2.9114,-2.9073,-2.8766,-2.8119,-2.8059,-2.8059,-2.8059,-2.8072,-2.8084,-2.8084,-2.8097,-2.8109,-2.8109,-2.8599,-2.8787,-2.8586,-2.9375,-2.9792,-2.9753,-2.9521,-2.9275,-2.3734,0.0,0.0,0.0,0.0,0.0,-2.9895,-3.0843,-3.1897,-3.3757,-3.4144,-3.4477,-3.5582,-3.5548,-3.5338,-3.5338,-3.6269,-3.7007,-3.7007,-3.7007,0.0,0.0,0.0,0.0,0.0,0.0,0.0,0.0,-3.7007,-3.6968,-3.6869,-3.6667,-3.6523,-3.6444,-3.6343,-3.6301,-3.6301,-3.6301,-3.628,-3.6276,-3.6084,-3.5975,-3.5932,-3.5711,-3.56,-3.56,-3.56,-3.56,-3.56,-3.56,-3.5577,-3.5571,-3.5537,-3.5446,-3.5377,-3.5175,-3.5081,-3.5018,-3.4923,-3.4899,-3.4851,-3.4448,-3.3799,-3.3119,-3.2749,-3.2092,-3.1511,-3.1511,-3.1336,-3.1102,-3.0821,-3.0672,-3.0598,-3.0598,-3.0598,-3.0598,-3.0598,-3.0598,-3.0598,-3.0598,-3.0598,-3.0598,-3.0598,-3.0598,-3.0598,-3.0598,-3.0447,-3.0384,-3.0526,-2.9924,-2.9302,-2.875,-2.8245,-2.7661,-2.6987,-2.6952,-2.6952,-2.6952,-2.7329,-2.7507,-2.7507,-2.7896,-2.8109,-2.8109,-2.826,-2.8286,-2.8262,-2.8945,-2.9209,-2.9091,-2.8855,-2.8697,-2.4436,-2.5287,-2.6542,-2.6279,0.0,0.0,-2.8684,-2.9123,-2.9755,0.0,-3.2757,-3.3248,-3.4213,-3.4247,-3.416,-3.4179,-3.4951,-3.5759,-3.6408,-3.6678,0.0,0.0,0.0,0.0,0.0,-3.7007,-3.7007,-3.7007,-3.7007,-3.6808,-3.6357,-3.618,-3.6058,-3.6,-3.6191,-3.6301,-3.6301,-3.6301,-3.6301,-3.6301,-3.6148,-3.6041,-3.5997,-3.5778,-3.5644,-3.56,-3.56,-3.56,-3.56,-3.56,-3.56,-3.56,-3.5549,-3.5475,-3.54,-3.5245,-3.5111,-3.4994,-3.4923,-3.4899,-3.4851,-3.4546,-3.3876,-3.3145,-3.2815,-3.2176,-3.1511,-3.1511,-3.1307,-3.1043,-3.0762,-3.0642,-3.0598,-3.0598,-3.0598,-3.0598,-3.0598,-3.0598,-3.0598,-3.0598,-3.0598,-3.0598,-3.0598,-3.0598,-3.0598,-3.0598,-3.0598,-3.0598,-3.0598,-3.0251,-2.9747,-2.9016,-2.8602,-2.7966,-2.7007,-2.6905,-2.6816,-2.6521,-2.6801,-2.6977,-2.6977,-2.7291,-2.7419,-2.7419,-2.7645,-2.7798,-2.7853,-2.8412,-2.8642,-2.8592,-2.8718,-2.8669,-2.596,-2.6191,-2.7128,-2.832,-2.711,0.0,-2.9808,-2.8985,-2.816,0.0,-3.1269,-3.1777,-3.2073,-3.2599,-3.3019,-3.309,-3.323,-3.3897,-3.5459,-3.6031,0.0,0.0,0.0,0.0,-3.6827,-3.6777,-3.6759,-3.6867,-3.6796,-3.6424,-3.5624,-3.5475,-3.5322,-3.5206,-3.578,-3.6063,-3.6063,-3.6059,-3.6059,-3.6042,-3.5971,-3.5865,-3.5762,-3.5606,-3.5547,-3.5504,-3.5481,-3.5515,-3.56,-3.56,-3.56,-3.56,-3.56,-3.5481,-3.5314,-3.5314,-3.5152,-3.4923,-3.4899,-3.4899,-3.4899,-3.4828,-3.4077,-3.3198,-3.3119,-3.2367,-3.1511,-3.1453,-3.1278,-3.1043,-3.0821,-3.0702,-3.0598,-3.0598,-3.0598,-3.0598,-3.0598,-3.0598,-3.0598,-3.0598,-3.0598,-3.0598,-3.0598,-3.0598,-3.0598,-3.0598,-3.0598,-3.0598,-3.0598,-3.0598,-3.0357,-2.9685,-2.9591,-2.9062,-2.7736,-2.7537,-2.7263,-2.6658,-2.6521,-2.6499,-2.6499,-2.6499,-2.6499,-2.6499,-2.6977,-2.7253,-2.7348,-2.7791,-2.8064,-2.8169,-2.8609,-2.8685,-2.7463,-2.7714,-2.8109,-2.7056,-2.6996,0.0,-2.6562,-2.6548,-2.6982,0.0,-2.8432,-2.8877,-3.0149,-3.045,-3.0504,-3.0521,-3.1551,-3.2965,-3.4669,-3.489,-3.4903,0.0,0.0,0.0,-3.5887,-3.5381,-3.5297,-3.5985,-3.5478,-3.5074,-3.4897,-3.4767,-3.4676,-3.4657,-3.4621,-3.4592,-3.4592,-3.4567,-3.4545,-3.4525,-3.4407,-3.4346,-3.4288,-3.4137,-3.4334,-3.4868,-3.4769,-3.5064,-3.56,-3.56,-3.56,-3.56,-3.56,-3.5549,-3.5446,-3.5337,-3.5198,-3.5041,-3.4947,-3.4899,-3.4828,-3.4399,-3.3774,-3.3119,-3.2695,-3.2064,-3.1453,-3.122,-3.1146,-3.1014,-3.0732,-3.0612,-3.0598,-3.0598,-3.0598,-3.0598,-3.0598,-3.0598,-3.0598,-3.0598,-3.0598,-3.0598,-3.0598,-3.0598,-3.0598,-3.0598,-3.0598,-3.0598,-3.0598,-3.0598,-3.0357,-2.9685,-2.9591,-2.9251,-2.8376,-2.7802,-2.7451,-2.7317,-2.6816,-2.6499,-2.6499,-2.6499,-2.6499,-2.6499,-2.66,-2.6574,-2.6454,-2.709,-2.7309,-2.7167,-2.7264,-2.7274,-2.8948,-2.8908,-2.9094,-2.8246,-2.7792,0.0,0.0,-2.665,-2.6685,-2.7934,-2.782,-2.7739,-2.8551,-2.8644,-2.8612,-2.866,-2.9949,-3.1272,-3.2127,-3.369,-3.4812,0.0,0.0,0.0,-3.5543,-3.492,-3.4856,-3.574,-3.474,-3.4285,-3.4689,-3.4227,-3.3943,-3.3943,-3.4104,-3.4198,-3.4198,-3.4135,-3.4113,-3.4113,-3.4037,-3.396,-3.39,-3.3738,-3.3819,-3.4164,-3.4397,-3.4709,-3.5081,-3.5447,-3.56,-3.56,-3.56,-3.5549,-3.5492,-3.5354,-3.5222,-3.5065,-3.4947,-3.4899,-3.4851,-3.4594,-3.3901,-3.3145,-3.2895,-3.2188,-3.1453,-3.1278,-3.1161,-3.1043,-3.0762,-3.0642,-3.0598,-3.0598,-3.0598,-3.0598,-3.0598,-3.0598,-3.0598,-3.0598,-3.0598,-3.0598,-3.0598,-3.0598,-3.0598,-3.0598,-3.0598,-3.0598,-3.0598,-3.0598,-3.0477,-3.0129,-3.0099,-2.967,-2.8588,-2.8182,-2.7703,-2.704,-2.6679,-2.6499,-2.6499,-2.6499,-2.6499,-2.6499,-2.6396,-2.6305,-2.6213,-2.6451,-2.659,-2.6649,-2.694,-2.6998,-3.0404,-3.011,-3.0125,-2.983,-2.8928,-2.8145,0.0,0.0,0.0,-2.7826,-2.7575,-2.7197,-2.7239,0.0,0.0,0.0,0.0,0.0,0.0,-3.213,0.0,0.0,0.0,0.0,0.0,-3.4446,-3.4348,-3.5035,-3.3986,-3.3635,-3.4443,-3.3808,-3.3403,-3.3421,-3.3691,-3.3804,-3.3804,-3.3725,-3.3684,-3.3665,-3.3665,-3.3589,-3.349,-3.3374,-3.3339,-3.3424,-3.3914,-3.4172,-3.432,-3.4945,-3.5177,-3.5194,-3.5481,-3.5549,-3.5446,-3.5337,-3.5198,-3.5041,-3.4947,-3.4899,-3.4875,-3.478,-3.396,-3.3013,-3.2906,-3.2228,-3.1482,-3.1322,-3.1176,-3.1043,-3.0821,-3.0672,-3.0598,-3.0598,-3.0598,-3.0598,-3.0598,-3.0598,-3.0598,-3.0598,-3.0598,-3.0598,-3.0598,-3.0598,-3.0598,-3.0598,-3.0598,-3.0598,-3.0598,-3.0598,-3.0598,-3.0598,-3.0598,-3.0146,-2.9016,-2.8794,-2.8182,-2.6973,-2.6748,-2.6624,-2.6499,-2.6499,-2.6499,-2.6499,-2.6339,-2.6236,-2.6131,-2.598,-2.6026,-2.6262,-2.6688,-2.6796,-3.1784,-3.1598,-3.1322,-2.9903,-2.9989,-2.9728,-2.7078,0.0,-2.6955,-2.5817,0.0,-2.6353,0.0,0.0,0.0,0.0,0.0,0.0,-2.7572,-2.9661,-3.1215,-3.1323,0.0,0.0,0.0,-3.2823,-3.2494,-3.2599,-3.2564,-3.2845,-3.36,-3.3546,-3.3476,-3.3494,-3.2809,-3.2405,-3.2334,-3.2208,-3.2116,-3.2059,-3.2059,-3.2059,-3.204,-3.191,-3.2156,-3.2707,-3.2709,-3.3032,-3.3541,-3.3626,-3.366,-3.3795,-3.5092,-3.5481,-3.5314,-3.5314,-3.5152,-3.4923,-3.4899,-3.4899,-3.4828,-3.4349,-3.3429,-3.2382,-3.1853,-3.1611,-3.1453,-3.119,-3.1102,-3.1014,-3.0702,-3.0598,-3.0598,-3.0598,-3.0598,-3.0598,-3.0598,-3.0598,-3.0598,-3.0598,-3.0598,-3.0598,-3.0598,-3.0598,-3.0598,-3.0598,-3.0598,-3.0598,-3.0598,-3.0598,-3.0598,-3.0598,-3.0598,-3.0538,-3.0372,-2.9808,-2.9125,-2.833,-2.7736,-2.7129,-2.6521,-2.6499,-2.6499,-2.6499,-2.6499,-2.6292,-2.5945,-2.591,-2.583,-2.5703,-2.5764,-2.567,-3.199,-3.1819,-3.1579,-3.0472,-3.0127,-2.9592,-2.7882,-2.7415,-2.7172,0.0,0.0,0.0,0.0,0.0,0.0,0.0,-2.6109,0.0,0.0,0.0,-2.923,0.0,0.0,0.0,0.0,0.0,0.0,0.0,0.0,-3.2371,-3.4001,-3.3301,-3.3055,-3.3494,-3.2651,-3.2161,-3.209,-3.1966,-3.1875,-3.18,-3.18,-3.18,-3.18,-3.1632,-3.169,-3.1976,-3.2261,-3.2537,-3.278,-3.322,-3.3406,-3.3474,-3.4083,-3.4271,-3.4179,-3.4063,-3.3952,-3.3889,-3.4167,-3.4253,-3.4202,-3.3747,-3.3044,-3.2287,-3.1697,-3.1511,-3.1453,-3.1263,-3.1161,-3.1043,-3.0791,-3.0672,-3.0598,-3.0598,-3.0598,-3.0598,-3.0598,-3.0598,-3.0598,-3.0598,-3.0598,-3.0598,-3.0598,-3.0598,-3.0598,-3.0598,-3.0598,-3.0598,-3.0598,-3.0598,-3.0598,-3.0598,-3.0598,-3.0447,-3.0068,-2.9747,-2.9296,-2.8556,-2.7855,-2.7196,-2.6521,-2.6499,-2.6499,-2.6499,-2.6499,-2.643,-2.6258,-2.6258,-2.6154,-2.5945,-2.5571,-2.5382,-3.1955,0.0,0.0,0.0,0.0,0.0,0.0,0.0,0.0,0.0,0.0,0.0,0.0,0.0,-2.5247,-2.504,0.0,-2.5609,0.0,-2.5954,0.0,0.0,0.0,0.0,0.0,0.0,0.0,0.0,0.0,0.0,-3.403,-3.3404,-3.3143,-3.3458,-3.2861,-3.2388,-3.209,-3.1966,-3.1875,-3.18,-3.18,-3.18,-3.18,-3.1651,-3.1555,-3.1532,-3.1924,-3.2046,-3.2039,-3.2577,-3.2797,-3.2797,-3.2797,-3.2797,-3.2827,-3.3033,-3.3076,-3.3078,-3.3377,-3.3383,-3.321,-3.2761,-3.2377,-3.1983,-3.1411,-3.1346,-3.1467,-3.1351,-3.1234,-3.1102,-3.0851,-3.0732,-3.0642,-3.0598,-3.0598,-3.0598,-3.0598,-3.0598,-3.0598,-3.0598,-3.0598,-3.0598,-3.0598,-3.0598,-3.0598,-3.0598,-3.0598,-3.0598,-3.0598,-3.0598,-3.0598,-3.0598,-3.0598,-3.0417,-2.9901,-2.9716,-2.9219,-2.8266,-2.7604,-2.7007,-2.6521,-2.6499,-2.6499,-2.6499,-2.6499,-2.6465,-2.643,-2.643,-2.6292,-2.6097,-2.5723,-2.5488,0.0,0.0,0.0,-2.992,0.0,0.0,0.0,0.0,-2.8161,0.0,0.0,0.0,-2.7385,-2.6609,-2.5833,-2.5126,-2.5023,0.0,0.0,0.0,0.0,0.0,0.0,0.0,0.0,0.0,0.0,0.0,0.0,0.0,-3.317,-3.3994,-3.412,-3.3421,-3.3368,-3.2965,-3.2108,-3.1966,-3.1875,-3.18,-3.18,-3.18,-3.18,-3.18,-3.1688,-3.1498,-3.1532,-3.1417,-3.1241,-3.1258,-3.1258,-3.1258,-3.1258,-3.1258,-3.1424,-3.2664,-3.3011,-3.2884,-3.2774,-3.2397,-3.1869,-3.1348,-3.1243,-3.1236,-3.0704,-3.0972,-3.1467,-3.1351,-3.1307,-3.1234,-3.0881,-3.0791,-3.0762,-3.0642,-3.0598,-3.0598,-3.0598,-3.0598,-3.0598,-3.0598,-3.0598,-3.0598,-3.0598,-3.0598,-3.0598,-3.0598,-3.0598,-3.0598,-3.0598,-3.0598,-3.0598,-3.0598,-3.0598,-3.0598,-3.0568,-2.9962,-2.8998,-2.7604,-2.6905,-2.6521,-2.6499,-2.6499,-2.6499,-2.6499,-2.6499,-2.6396,-2.6213,-2.6213,-2.6097,-2.591,-2.6097,-2.5945,0.0,0.0,-3.0817,-2.9765,0.0,0.0,0.0,0.0,0.0,0.0,0.0,0.0,-2.7453,-2.6644,-2.6008,-2.5781,-2.487,-2.4215,0.0,0.0,0.0,0.0,0.0,-2.804,0.0,0.0,0.0,0.0,-2.978,0.0,0.0,-3.2735,-3.3033,-3.3259,-3.2789,-3.2352,-3.1966,-3.1912,-3.1875,-3.18,-3.18,-3.18,-3.18,-3.1709,-3.1614,-3.1498,-3.1406,-3.131,-3.119,-3.119,-3.119,-3.119,-3.119,-3.119,-3.1238,-3.1543,-3.1625,-3.1608,-3.1883,-3.1948,-3.186,-3.1678,-3.1177,-3.06,-3.0415,-3.0301,-3.03,-3.0549,-3.0242,-2.9892,-3.0133,-3.0105,-3.0002,-2.9943,-3.0263,-3.0598,-3.0598,-3.0598,-3.0598,-3.0598,-3.0598,-3.0598,-3.0598,-3.0598,-3.0598,-3.0598,-3.0598,-3.0598,-3.0598,-3.0598,-3.0598,-3.0598,-3.0598,-3.0598,-3.0598,-3.0387,-2.967,-2.8247,-2.7953,-2.7417,-2.6521,-2.6499,-2.6499,-2.6499,-2.6499,-2.6396,-2.6213,-2.6213,-2.6097,-2.591,-2.598,-2.5875,-2.9644,-2.9886,0.0,-2.9299,-2.911,0.0,-2.8178,0.0,-2.8196,0.0,0.0,0.0,0.0,-2.6885,-2.635,-2.5799,-2.4856,-2.4001,0.0,-2.3522,0.0,0.0,-2.5637,-2.6664,-2.723,-2.723,-2.7523,-2.8334,-2.8676,0.0,0.0,0.0,-3.2141,-3.235,-3.2159,-3.1758,-3.1132,-3.1339,-3.1458,-3.1403,-3.1403,-3.1541,-3.1783,-3.1141,-3.1082,-3.1481,-3.1134,-3.1072,-3.119,-3.119,-3.119,-3.119,-3.119,-3.119,-3.1171,-3.0972,-3.0851,-3.0799,-3.1115,-3.1282,-3.1368,-3.1209,-3.072,-3.0144,-2.9997,-2.978,-2.9669,-2.9978,-2.9686,-2.9326,-2.9558,-2.9505,-2.9449,-2.9566,-2.9929,-3.0306,-3.0554,-3.0598,-3.0598,-3.0598,-3.0598,-3.0598,-3.0598,-3.0598,-3.0598,-3.0598,-3.0598,-3.0598,-3.0598,-3.0598,-3.0598,-3.0598,-3.0598,-3.0507,-3.0251,-3.0251,-2.9732,-2.8556,-2.8266,-2.7769,-2.6871,-2.6624,-2.6499,-2.6499,-2.6499,-2.643,-2.6305,-2.6305,-2.6188,-2.6027,-2.6027,-2.5875]},{"header":{"parameterUnit":"m.s-1","parameterCategory":1,"la1":30.6,"la2":29.2853,"lo1":-89.7004,"lo2":-87.6739,"dy":0.0162,"dx":0.0183,"nx":112,"ny":82,"refTime":"2024-06-22T00:00:00:Z","depth":0,"parameterNumber":3,"parameterNumberName":"V-component_of_WINDS"},"data":[0.0,0.0,0.0,0.0,0.0,0.0,0.0,0.0,0.0,0.0,0.0,0.0,0.0,0.0,0.0,0.0,0.0,0.0,0.0,0.0,0.0,0.0,0.0,0.0,0.0,0.0,0.0,0.0,0.0,0.0,0.0,0.0,0.0,0.0,0.0,0.0,0.0,0.0,0.0,0.0,0.0,0.0,0.0,0.0,0.0,0.0,0.0,0.0,0.0,0.0,0.0,0.0,0.0,0.0,0.0,0.0,0.0,0.0,0.0,0.0,0.0,0.0,0.0,0.0,0.0,0.0,0.0,0.0,0.0,0.0,0.0,0.0,0.0,0.0,0.0,0.0,0.0,0.0,0.0,0.0,0.0,0.0,0.0,0.0,0.0,0.0,0.0,0.0,0.0,0.0,-2.7294,-2.8727,-3.0585,-3.1308,-3.029,-3.0176,-2.9149,-2.6809,0.0,0.0,0.0,0.0,0.0,0.0,0.0,0.0,0.0,0.0,0.0,0.0,0.0,0.0,0.0,0.0,0.0,0.0,0.0,0.0,0.0,0.0,0.0,0.0,0.0,0.0,0.0,0.0,0.0,0.0,0.0,0.0,0.0,0.0,0.0,0.0,0.0,0.0,0.0,0.0,0.0,0.0,0.0,0.0,0.0,0.0,0.0,0.0,0.0,0.0,0.0,0.0,0.0,0.0,0.0,0.0,0.0,0.0,0.0,0.0,0.0,0.0,0.0,0.0,0.0,0.0,0.0,0.0,0.0,0.0,0.0,0.0,0.0,0.0,0.0,0.0,0.0,0.0,0.0,0.0,0.0,0.0,0.0,0.0,0.0,0.0,0.0,0.0,0.0,0.0,0.0,0.0,0.0,0.0,0.0,0.0,0.0,0.0,0.0,0.0,0.0,0.0,0.0,0.0,-2.732,-3.0206,-3.1247,-3.1464,-3.085,-3.0519,-2.9626,-2.7867,0.0,0.0,0.0,0.0,0.0,0.0,0.0,0.0,0.0,0.0,0.0,0.0,0.0,0.0,0.0,0.0,0.0,0.0,0.0,0.0,0.0,0.0,0.0,0.0,0.0,0.0,0.0,0.0,0.0,0.0,0.0,0.0,0.0,0.0,0.0,0.0,0.0,0.0,0.0,0.0,0.0,0.0,0.0,0.0,0.0,0.0,0.0,0.0,0.0,0.0,0.0,0.0,0.0,0.0,0.0,0.0,0.0,0.0,0.0,0.0,0.0,0.0,0.0,0.0,0.0,0.0,0.0,0.0,0.0,0.0,0.0,0.0,0.0,0.0,0.0,0.0,0.0,0.0,0.0,0.0,0.0,0.0,0.0,0.0,0.0,0.0,0.0,0.0,0.0,0.0,0.0,0.0,0.0,0.0,0.0,0.0,0.0,0.0,0.0,0.0,0.0,0.0,0.0,-2.6129,-2.7669,-3.0567,-3.0874,-3.0797,-3.0652,-3.0216,-2.9395,-2.8085,-2.6957,0.0,0.0,0.0,0.0,0.0,0.0,0.0,0.0,0.0,0.0,0.0,0.0,0.0,0.0,0.0,0.0,0.0,0.0,0.0,0.0,0.0,0.0,0.0,0.0,0.0,0.0,0.0,0.0,0.0,0.0,0.0,0.0,0.0,0.0,0.0,0.0,0.0,0.0,0.0,0.0,0.0,0.0,0.0,0.0,0.0,0.0,0.0,0.0,0.0,0.0,0.0,0.0,0.0,0.0,0.0,0.0,0.0,0.0,0.0,0.0,0.0,0.0,0.0,0.0,0.0,0.0,0.0,0.0,0.0,0.0,0.0,0.0,0.0,0.0,0.0,0.0,0.0,0.0,0.0,0.0,0.0,0.0,0.0,0.0,0.0,0.0,0.0,0.0,0.0,0.0,0.0,0.0,0.0,0.0,0.0,0.0,0.0,0.0,0.0,0.0,0.0,0.0,-2.7505,-2.8433,-3.0797,-3.0682,-3.0533,-3.0753,-3.0193,-2.9467,-2.8521,-2.7351,0.0,0.0,0.0,0.0,0.0,0.0,0.0,0.0,0.0,0.0,0.0,0.0,0.0,0.0,0.0,0.0,0.0,0.0,0.0,0.0,0.0,0.0,0.0,0.0,0.0,0.0,0.0,0.0,0.0,0.0,0.0,0.0,0.0,0.0,0.0,0.0,0.0,0.0,0.0,0.0,0.0,0.0,0.0,0.0,0.0,0.0,0.0,0.0,0.0,0.0,0.0,0.0,0.0,0.0,0.0,0.0,0.0,0.0,0.0,0.0,0.0,0.0,0.0,0.0,0.0,0.0,0.0,0.0,0.0,0.0,0.0,0.0,0.0,0.0,0.0,0.0,0.0,0.0,0.0,0.0,0.0,0.0,0.0,0.0,0.0,0.0,0.0,0.0,0.0,0.0,0.0,0.0,0.0,0.0,0.0,0.0,0.0,0.0,0.0,0.0,0.0,0.0,-2.8309,-2.9926,-3.129,-3.1481,-3.158,-3.1767,-3.1079,-3.0401,-2.9877,-2.7296,0.0,0.0,0.0,0.0,0.0,0.0,0.0,0.0,0.0,0.0,0.0,0.0,0.0,0.0,0.0,0.0,0.0,0.0,0.0,0.0,0.0,0.0,0.0,0.0,0.0,0.0,0.0,0.0,0.0,0.0,0.0,0.0,0.0,0.0,0.0,0.0,0.0,0.0,0.0,0.0,0.0,0.0,0.0,0.0,0.0,0.0,0.0,0.0,0.0,0.0,0.0,0.0,0.0,0.0,0.0,0.0,0.0,0.0,0.0,0.0,0.0,0.0,0.0,0.0,0.0,0.0,0.0,0.0,0.0,0.0,0.0,0.0,0.0,0.0,0.0,0.0,0.0,0.0,0.0,0.0,0.0,0.0,0.0,0.0,0.0,0.0,0.0,0.0,0.0,0.0,0.0,0.0,0.0,0.0,0.0,0.0,0.0,0.0,0.0,0.0,0.0,0.0,-2.8433,-2.977,-3.1731,-3.1707,-3.1743,-3.2277,-3.1755,-3.1072,-3.029,0.0,0.0,0.0,0.0,0.0,0.0,0.0,0.0,0.0,0.0,0.0,0.0,0.0,0.0,0.0,0.0,0.0,0.0,0.0,0.0,0.0,0.0,0.0,0.0,0.0,0.0,0.0,0.0,0.0,0.0,0.0,0.0,0.0,0.0,0.0,0.0,0.0,0.0,0.0,0.0,0.0,0.0,0.0,0.0,0.0,0.0,0.0,0.0,0.0,0.0,0.0,0.0,0.0,0.0,0.0,0.0,0.0,0.0,0.0,0.0,0.0,0.0,0.0,0.0,0.0,0.0,0.0,0.0,0.0,0.0,0.0,0.0,0.0,0.0,0.0,0.0,0.0,0.0,0.0,0.0,0.0,0.0,0.0,0.0,0.0,0.0,0.0,0.0,0.0,0.0,0.0,0.0,0.0,0.0,0.0,0.0,0.0,0.0,0.0,0.0,0.0,0.0,-2.7798,-2.9042,-3.0398,-3.2244,-3.2142,-3.2268,-3.3003,-3.2448,-3.1646,-3.0796,0.0,0.0,0.0,0.0,0.0,0.0,0.0,0.0,0.0,0.0,0.0,0.0,0.0,0.0,0.0,0.0,0.0,0.0,0.0,0.0,0.0,0.0,0.0,0.0,0.0,0.0,0.0,0.0,0.0,0.0,0.0,0.0,0.0,0.0,0.0,0.0,0.0,0.0,0.0,0.0,0.0,0.0,0.0,0.0,0.0,0.0,0.0,0.0,0.0,0.0,0.0,0.0,0.0,0.0,0.0,0.0,0.0,0.0,0.0,0.0,0.0,0.0,0.0,0.0,0.0,0.0,0.0,0.0,0.0,0.0,0.0,0.0,0.0,0.0,0.0,0.0,0.0,0.0,0.0,0.0,0.0,0.0,0.0,0.0,0.0,0.0,0.0,0.0,0.0,0.0,0.0,0.0,0.0,0.0,0.0,0.0,0.0,0.0,0.0,0.0,0.0,0.0,-2.8375,-3.0456,-3.2085,-3.2827,-3.2935,-3.3232,-3.4054,-3.3135,-3.2251,0.0,0.0,0.0,0.0,0.0,0.0,0.0,0.0,0.0,0.0,0.0,0.0,0.0,0.0,0.0,0.0,0.0,0.0,0.0,0.0,0.0,0.0,0.0,0.0,0.0,0.0,0.0,0.0,0.0,0.0,0.0,0.0,0.0,0.0,0.0,0.0,0.0,0.0,0.0,0.0,0.0,0.0,0.0,0.0,0.0,0.0,0.0,0.0,0.0,0.0,0.0,0.0,0.0,0.0,0.0,0.0,0.0,0.0,0.0,0.0,0.0,0.0,0.0,0.0,0.0,0.0,0.0,0.0,0.0,0.0,0.0,0.0,0.0,0.0,0.0,0.0,0.0,0.0,0.0,0.0,0.0,0.0,0.0,0.0,0.0,0.0,0.0,0.0,0.0,0.0,0.0,0.0,0.0,0.0,0.0,0.0,0.0,0.0,0.0,0.0,0.0,0.0,0.0,-2.97,-3.1629,-3.3086,-3.3859,-3.3974,-3.4048,-3.4284,-3.4033,-3.2991,-3.0974,0.0,0.0,0.0,0.0,0.0,0.0,0.0,0.0,0.0,0.0,0.0,0.0,0.0,0.0,0.0,0.0,0.0,0.0,0.0,0.0,0.0,0.0,0.0,0.0,0.0,0.0,0.0,0.0,0.0,0.0,0.0,0.0,0.0,0.0,0.0,0.0,0.0,0.0,0.0,0.0,0.0,0.0,0.0,0.0,0.0,0.0,0.0,0.0,0.0,0.0,0.0,0.0,0.0,0.0,0.0,0.0,0.0,0.0,0.0,0.0,0.0,0.0,0.0,0.0,0.0,0.0,0.0,0.0,0.0,0.0,0.0,0.0,0.0,0.0,0.0,0.0,0.0,0.0,0.0,0.0,0.0,0.0,0.0,0.0,0.0,0.0,0.0,0.0,0.0,0.0,0.0,0.0,0.0,0.0,0.0,0.0,0.0,0.0,0.0,0.0,0.0,0.0,-3.0334,-3.2399,-3.3845,-3.4346,-3.4414,-3.4414,-3.4414,-3.4414,-3.346,-3.1227,0.0,0.0,0.0,0.0,0.0,0.0,0.0,0.0,0.0,0.0,0.0,0.0,0.0,0.0,0.0,0.0,0.0,0.0,0.0,0.0,0.0,0.0,0.0,0.0,0.0,0.0,0.0,0.0,0.0,0.0,0.0,0.0,0.0,0.0,0.0,0.0,0.0,0.0,0.0,0.0,0.0,0.0,0.0,0.0,0.0,0.0,0.0,0.0,0.0,0.0,0.0,0.0,0.0,0.0,0.0,0.0,0.0,0.0,0.0,0.0,0.0,0.0,0.0,0.0,0.0,0.0,0.0,0.0,0.0,0.0,0.0,0.0,0.0,0.0,0.0,0.0,0.0,0.0,0.0,0.0,0.0,0.0,0.0,0.0,0.0,0.0,0.0,0.0,0.0,0.0,0.0,0.0,0.0,0.0,0.0,0.0,0.0,0.0,0.0,0.0,0.0,0.0,-3.0438,-3.2817,-3.4414,-3.4414,-3.4414,-3.4414,-3.4414,-3.4414,-3.3714,-3.2022,0.0,0.0,0.0,0.0,0.0,0.0,0.0,0.0,0.0,0.0,0.0,0.0,0.0,0.0,0.0,0.0,0.0,0.0,0.0,0.0,0.0,0.0,0.0,0.0,0.0,0.0,0.0,0.0,0.0,0.0,0.0,0.0,0.0,0.0,0.0,0.0,0.0,0.0,0.0,0.0,0.0,0.0,0.0,0.0,0.0,0.0,0.0,0.0,0.0,0.0,0.0,0.0,0.0,0.0,0.0,0.0,0.0,0.0,0.0,0.0,-1.9619,0.0,0.0,0.0,0.0,0.0,0.0,0.0,0.0,0.0,0.0,0.0,0.0,0.0,0.0,0.0,0.0,0.0,0.0,0.0,0.0,0.0,0.0,0.0,0.0,0.0,0.0,0.0,0.0,0.0,0.0,0.0,0.0,0.0,0.0,0.0,0.0,0.0,0.0,0.0,0.0,0.0,-3.0438,-3.2817,-3.4414,-3.4414,-3.4414,-3.4448,-3.4631,-3.4631,-3.4101,-3.2825,-3.1013,0.0,0.0,0.0,0.0,0.0,0.0,0.0,0.0,0.0,0.0,0.0,0.0,0.0,0.0,0.0,0.0,0.0,0.0,0.0,0.0,0.0,0.0,0.0,0.0,0.0,0.0,0.0,0.0,0.0,0.0,0.0,0.0,0.0,0.0,0.0,0.0,0.0,0.0,0.0,0.0,0.0,0.0,0.0,0.0,0.0,0.0,0.0,0.0,0.0,0.0,0.0,0.0,0.0,0.0,0.0,0.0,0.0,0.0,0.0,0.0,-2.1194,0.0,0.0,0.0,0.0,0.0,0.0,0.0,0.0,0.0,0.0,0.0,0.0,0.0,0.0,0.0,0.0,0.0,0.0,0.0,0.0,0.0,0.0,0.0,0.0,0.0,0.0,0.0,0.0,0.0,0.0,0.0,0.0,0.0,0.0,0.0,0.0,0.0,0.0,0.0,0.0,-3.0872,-3.3006,-3.4414,-3.4414,-3.4414,-3.4481,-3.4664,-3.4698,-3.4391,-3.3617,-3.2079,0.0,0.0,0.0,0.0,0.0,0.0,0.0,0.0,0.0,0.0,0.0,0.0,0.0,0.0,0.0,0.0,0.0,0.0,0.0,0.0,0.0,0.0,0.0,0.0,0.0,0.0,0.0,0.0,0.0,0.0,0.0,0.0,0.0,0.0,0.0,0.0,0.0,0.0,0.0,0.0,0.0,0.0,0.0,0.0,0.0,0.0,0.0,0.0,0.0,0.0,0.0,0.0,0.0,-2.4231,-2.4528,-2.4658,-2.5019,-2.5233,-2.5192,-2.3771,-2.3359,-2.3676,-2.2722,0.0,0.0,0.0,0.0,0.0,0.0,0.0,0.0,0.0,0.0,0.0,0.0,0.0,0.0,0.0,0.0,0.0,0.0,0.0,0.0,0.0,0.0,0.0,0.0,-2.9795,-2.9316,0.0,0.0,0.0,0.0,0.0,0.0,0.0,0.0,0.0,0.0,0.0,0.0,-3.1335,-3.3209,-3.4448,-3.4448,-3.4481,-3.4582,-3.4765,-3.4798,-3.4695,-3.4443,-3.318,-3.1946,0.0,0.0,0.0,0.0,0.0,0.0,0.0,0.0,0.0,0.0,0.0,0.0,0.0,0.0,0.0,0.0,0.0,0.0,0.0,0.0,0.0,0.0,0.0,0.0,0.0,0.0,0.0,0.0,0.0,0.0,0.0,0.0,-1.2233,-1.2288,0.0,0.0,0.0,0.0,0.0,0.0,0.0,0.0,0.0,0.0,0.0,0.0,0.0,-2.3055,-2.3461,-2.4468,-2.4823,-2.4563,-2.5208,-2.5518,-2.5518,-2.5577,-2.5741,-2.5953,-2.5726,0.0,-2.4846,-2.4581,0.0,0.0,0.0,0.0,0.0,0.0,0.0,0.0,0.0,0.0,0.0,0.0,0.0,0.0,0.0,0.0,0.0,0.0,0.0,0.0,0.0,0.0,-3.047,-3.066,-3.1721,-3.2444,0.0,-2.9876,-2.8661,-2.8944,-2.8233,0.0,0.0,0.0,0.0,0.0,0.0,0.0,-3.1424,-3.3354,-3.4664,-3.4664,-3.4769,-3.4902,-3.5129,-3.5115,-3.5184,-3.5305,-3.4067,-3.3005,-3.2287,-3.0447,0.0,0.0,0.0,0.0,0.0,0.0,0.0,0.0,0.0,0.0,0.0,0.0,0.0,0.0,0.0,0.0,0.0,0.0,0.0,0.0,0.0,0.0,0.0,0.0,0.0,0.0,0.0,0.0,0.0,-1.2006,-1.2928,-1.3301,-1.3916,-1.444,0.0,0.0,0.0,0.0,0.0,0.0,0.0,0.0,0.0,-2.3629,-2.4181,-2.4708,-2.5247,-2.6227,-2.6608,-2.6383,-2.6912,-2.7168,-2.7168,-2.7168,-2.7143,-2.7201,-2.7362,-2.7051,-2.6405,-2.5554,-2.4859,-2.4198,0.0,0.0,0.0,0.0,-2.6332,-2.6864,-2.8511,-2.9198,0.0,-2.7806,0.0,0.0,0.0,0.0,0.0,0.0,0.0,0.0,0.0,0.0,-3.1415,-3.2952,-3.3531,-3.3797,-3.3996,-3.293,-3.1645,0.0,-3.0509,-3.0045,-2.8957,0.0,0.0,0.0,0.0,-3.192,-3.264,-3.3904,-3.4731,-3.4817,-3.4868,-3.4968,-3.518,-3.518,-3.5294,-3.5504,-3.4951,-3.4322,-3.3649,-3.2078,-3.0597,0.0,0.0,0.0,0.0,0.0,0.0,0.0,0.0,0.0,0.0,0.0,0.0,0.0,0.0,0.0,0.0,0.0,0.0,0.0,0.0,0.0,0.0,0.0,0.0,0.0,0.0,0.0,0.0,-1.2789,-1.3711,-1.4282,-1.4992,-1.5632,0.0,0.0,0.0,0.0,0.0,0.0,-2.319,-2.3248,-2.3923,-2.5401,-2.5798,-2.6227,-2.6709,-2.7395,-2.7669,-2.75,-2.7812,-2.7969,-2.7969,-2.7969,-2.795,-2.7946,-2.8094,-2.7915,-2.7511,-2.6386,-2.5601,-2.5016,-2.4571,-2.4775,-2.5503,-2.706,-2.8004,-2.8755,-3.0705,-3.1284,-3.0898,-2.9592,0.0,-2.9059,-2.7241,0.0,0.0,0.0,0.0,-2.9378,-3.1522,-3.2175,-3.2742,-3.4797,-3.5014,-3.4861,-3.5366,-3.5049,-3.4201,0.0,-3.2527,-3.2309,-3.0858,0.0,0.0,0.0,0.0,-3.3112,-3.3709,-3.4387,-3.4865,-3.4968,-3.5001,-3.5115,-3.5261,-3.5294,-3.5326,-3.5504,-3.5504,-3.5115,-3.4294,-3.329,-3.2048,-3.0537,0.0,0.0,0.0,0.0,0.0,0.0,0.0,0.0,0.0,0.0,0.0,0.0,0.0,0.0,0.0,0.0,0.0,0.0,0.0,0.0,0.0,0.0,0.0,0.0,0.0,0.0,0.0,0.0,0.0,-1.5272,-1.6184,0.0,0.0,0.0,0.0,-2.1778,-2.3119,-2.4209,-2.5111,-2.5198,-2.5825,-2.7116,-2.7454,-2.7578,-2.765,-2.7699,-2.7461,-2.7051,-2.707,-2.708,-2.708,-2.708,-2.7316,-2.7774,-2.7352,-2.7427,-2.7834,-2.7396,-2.6946,-2.647,-2.5958,-2.6377,-2.7371,-2.8305,-2.9214,-3.0138,-3.1062,-3.1549,-3.1762,-3.1946,-3.1567,-3.106,-3.1022,-3.0353,0.0,0.0,-3.1499,-3.2317,-3.2581,-3.3949,-3.5319,-3.5463,-3.5841,-3.6098,-3.5746,-3.5605,-3.5273,0.0,-3.3804,-3.3416,-3.3329,0.0,-3.2694,-3.2694,-3.3409,-3.3932,-3.3962,-3.4682,-3.5195,-3.518,-3.5359,-3.5472,-3.5472,-3.5472,-3.5504,-3.5504,-3.5504,-3.4921,-3.3604,-3.3484,-3.2512,-3.0537,-2.922,0.0,0.0,0.0,0.0,0.0,0.0,0.0,0.0,0.0,0.0,0.0,0.0,0.0,0.0,0.0,0.0,0.0,0.0,0.0,0.0,0.0,0.0,0.0,0.0,0.0,0.0,0.0,0.0,-1.6542,-1.7508,0.0,-1.9178,-2.0529,-2.2014,-2.3584,-2.4554,-2.5625,-2.6761,-2.6871,-2.7201,-2.7931,-2.8013,-2.8066,-2.8066,-2.8066,-2.7988,-2.7842,-2.7842,-2.7842,-2.7832,-2.7999,-2.8155,-2.8236,-2.8238,-2.8298,-2.8328,-2.7872,-2.7417,-2.704,-2.6884,-2.7799,-2.924,-2.9541,-3.0656,-3.2072,-3.2537,-3.276,-3.2819,-3.282,-3.2433,-3.2016,-3.2162,-3.1941,-3.1694,-3.1848,-3.2502,-3.3421,-3.4285,-3.528,-3.6331,-3.7389,-3.7346,-3.7083,-3.6936,-3.6541,-3.6023,-3.5297,-3.4756,-3.4233,-3.3711,-3.3929,-3.4027,-3.3633,-3.4151,-3.4628,-3.4774,-3.4999,-3.5261,-3.5359,-3.5472,-3.5504,-3.5504,-3.51,-3.4846,-3.4846,-3.4442,-3.3993,-3.3514,-3.3095,-3.2527,-3.1809,-3.0492,-2.9175,0.0,0.0,0.0,0.0,0.0,0.0,0.0,0.0,0.0,0.0,0.0,0.0,0.0,0.0,0.0,0.0,0.0,0.0,0.0,0.0,0.0,0.0,0.0,0.0,0.0,-1.5657,-1.6813,-1.7567,-1.8423,-1.9351,-2.0334,-2.1464,-2.2903,-2.4863,-2.5505,-2.6468,-2.8027,-2.7875,-2.792,-2.8486,-2.8369,-2.8291,-2.8291,-2.8291,-2.8291,-2.8291,-2.8291,-2.8291,-2.8291,-2.8568,-2.8727,-2.8699,-2.8817,-2.8891,-2.8804,-2.8349,-2.7893,-2.7469,-2.7372,-2.8491,-3.0215,-3.0215,-3.1436,-3.3111,-3.3313,-3.3356,-3.3305,-3.3482,-3.3137,-3.2787,-3.3139,-3.3139,-3.3099,-3.3328,-3.3965,-3.4854,-3.5885,-3.6722,-3.7585,-3.8642,-3.8436,-3.7959,-3.7826,-3.7443,-3.6908,-3.6162,-3.5551,-3.4919,-3.4226,-3.4607,-3.4868,-3.4472,-3.4801,-3.5148,-3.5294,-3.5294,-3.5359,-3.5504,-3.5504,-3.5504,-3.5504,-3.4876,-3.4608,-3.4801,-3.3993,-3.3499,-3.3499,-3.2856,-3.2378,-3.2153,-3.0866,-2.9774,-2.8921,0.0,0.0,0.0,0.0,0.0,0.0,0.0,0.0,0.0,0.0,0.0,0.0,0.0,0.0,0.0,0.0,0.0,0.0,0.0,0.0,0.0,0.0,0.0,-1.5433,-1.6316,-1.7328,-1.8233,-1.8913,-1.9717,-2.0794,-2.1846,-2.3427,-2.5683,-2.5887,-2.6773,-2.8813,-2.8144,-2.8076,-2.8896,-2.8525,-2.8301,-2.8291,-2.8291,-2.8291,-2.8291,-2.8291,-2.8291,-2.8291,-2.8568,-2.8824,-2.9102,-2.8959,-2.9086,-2.929,-2.8825,-2.8369,-2.7924,-2.7506,-2.8549,-3.0215,-3.0215,-3.1436,-3.3154,-3.3313,-3.3283,-3.3197,-3.3878,-3.3781,-3.3513,-3.4189,-3.4063,-3.3911,-3.4979,-3.5935,-3.6724,-3.7357,-3.8308,-3.9104,-3.9104,-3.8943,-3.8693,-3.8302,-3.8169,-3.789,-3.7083,-3.6261,-3.5512,-3.5034,-3.5082,-3.5213,-3.5213,-3.5359,0.0,-3.5504,-3.5504,-3.5504,-3.5504,-3.5504,-3.5504,-3.5504,-3.4876,-3.4788,-3.54,-3.4203,-3.3469,-3.3469,-3.2856,-3.2183,-3.154,-3.0313,-2.9681,-2.9636,0.0,0.0,0.0,0.0,0.0,0.0,0.0,0.0,0.0,0.0,0.0,0.0,0.0,0.0,0.0,0.0,0.0,0.0,0.0,0.0,0.0,-1.5458,-1.6507,-1.6507,-1.7746,-1.8847,-1.9353,-1.9725,-2.0266,-2.1062,-2.1666,-2.2811,-2.4867,-2.5541,-2.6773,-2.8813,-2.8701,-2.8682,-2.8916,-2.8809,-2.8603,-2.8301,-2.8291,-2.8291,-2.8291,-2.8291,-2.8291,-2.8291,-2.8771,-2.9026,-2.9122,-2.9546,-2.9756,-2.9766,-2.9301,-2.9042,-2.8896,-2.8865,-2.9393,-3.026,-3.0935,-3.2108,-3.3313,-3.3197,-3.3356,-3.3556,-3.3569,-3.3738,-3.3907,-3.3894,-3.3937,-3.4176,-3.5074,-3.5829,-3.6635,-3.7706,-3.8449,-3.8943,-3.9265,-3.9141,-3.8972,-3.8882,-3.8837,-3.8608,-3.792,-3.7183,-3.6497,-3.5929,-3.5606,-3.5439,-3.5439,-3.5472,0.0,-3.5504,-3.5504,-3.5504,-3.5504,-3.5504,-3.5504,-3.5504,-3.4876,-3.4384,-3.4068,-3.326,-3.2781,-3.2781,-3.2617,-3.2392,-3.2213,-3.1884,-3.1225,0.0,0.0,0.0,0.0,0.0,0.0,0.0,0.0,0.0,0.0,0.0,0.0,0.0,0.0,0.0,0.0,0.0,0.0,0.0,0.0,0.0,0.0,-1.6661,-1.7761,-1.79,-1.8729,-1.9499,-2.0091,-2.0325,-2.064,-2.1159,-2.1406,-2.2419,-2.4527,-2.5307,-2.671,-2.9095,-2.9189,-2.9189,-2.9189,-2.9014,-2.8721,-2.8301,-2.8291,-2.8379,-2.8555,-2.8379,-2.8389,-2.8545,-2.8947,-2.9079,0.0,-2.9732,-2.9994,-2.9973,-2.9704,-2.9477,0.0,0.0,0.0,0.0,0.0,-3.2655,-3.3283,-3.3154,-3.324,-3.3441,-3.3398,-3.3526,-3.3696,-3.3683,-3.3768,-3.4021,-3.491,-3.5467,-3.6082,-3.7553,-3.8084,-3.8435,-3.9104,-3.9177,-3.9104,-3.9228,-3.9228,-3.9109,-3.8722,-3.8111,0.0,-3.6801,-3.6037,-3.5504,-3.5504,-3.5504,-3.5504,-3.5504,-3.5504,-3.5504,-3.5504,-3.5504,-3.5504,-3.5504,-3.4876,0.0,0.0,0.0,-3.2931,-3.2931,-3.2931,0.0,0.0,0.0,0.0,0.0,0.0,0.0,0.0,-3.3122,-3.3519,0.0,0.0,0.0,0.0,0.0,0.0,0.0,0.0,0.0,0.0,0.0,0.0,0.0,0.0,0.0,0.0,-1.7823,-1.8928,-1.933,-1.9418,-1.9762,-2.0625,-2.072,-2.0852,-2.1181,-2.1288,-2.2266,-2.4552,-2.5263,-2.6792,-2.9429,0.0,0.0,0.0,0.0,-2.8721,-2.8301,-2.8291,-2.8476,-2.8848,-2.8525,-2.8535,-2.8838,-2.9096,-2.9129,-2.9132,-2.9732,-2.9994,-2.9994,-2.9994,-2.987,-2.9655,-2.9586,-3.0193,-3.1227,-3.2611,-3.3124,-3.3124,-3.3124,0.0,0.0,-3.3313,-3.3283,-3.3197,-3.3513,-3.3513,-3.3641,-3.4664,-3.4951,-3.5346,-3.7074,-3.751,-3.7753,-3.887,-3.9104,-3.9141,-3.9337,-3.9388,-3.9388,-3.9388,-3.8856,-3.8197,-3.7629,-3.6462,-3.5594,-3.5519,-3.5504,-3.5504,-3.5504,-3.5504,-3.5504,-3.5504,0.0,0.0,-3.5504,-3.4936,-3.4816,-3.5355,-3.4262,-3.3604,-3.3604,-3.3679,-3.3679,-3.3604,-3.3679,-3.3963,-3.4503,-3.4593,-3.4906,-3.5459,-3.3726,-3.3849,0.0,0.0,0.0,0.0,0.0,0.0,0.0,0.0,0.0,0.0,0.0,0.0,0.0,0.0,0.0,-1.7684,-1.8416,-1.9081,-1.993,-2.0274,-2.0516,-2.0698,-2.072,-2.0852,-2.1181,-2.1849,-2.2942,-2.4591,-2.6045,-2.7651,-2.9485,-2.9626,-2.9626,-2.9626,-2.9141,-2.8721,-2.8301,-2.8291,-2.833,-2.8418,0.0,0.0,-2.8428,-2.9276,-2.9474,-2.9132,-2.9732,-2.9994,-2.9994,-2.9994,-3.0724,-3.1716,-3.0834,-3.1395,-3.2673,-3.2977,-3.3124,-3.3124,-3.3124,-3.3124,-3.3124,-3.3154,-3.324,-3.3313,-3.324,-3.3313,0.0,-3.4511,-3.4649,-3.5019,-3.7165,-3.751,-3.7601,-3.9017,-3.9228,-3.9141,-3.9337,-3.9388,-3.9388,-3.9388,-3.8856,-3.8347,-3.8227,-3.715,-3.6118,-3.5594,-3.5504,-3.5504,-3.5504,-3.5504,-3.5504,-3.5504,-3.5504,-3.5504,-3.5504,-3.5385,-3.513,-3.4728,-3.4459,-3.4324,-3.4324,-3.4816,-3.4861,-3.4324,-3.4831,-3.4906,-3.4503,-3.504,-3.537,-3.5489,-3.5595,-3.5861,0.0,0.0,0.0,0.0,0.0,0.0,0.0,0.0,0.0,0.0,0.0,-1.4561,-1.5892,0.0,-1.7465,-1.8606,-1.8957,-1.9399,-2.0314,-2.0332,-2.0435,-2.0891,-2.0969,-2.1035,-2.1196,-2.1609,-2.2751,-2.4889,-2.6009,-2.7543,-2.9797,-3.0107,-3.0029,-2.9636,-2.9355,-2.8935,-2.8301,-2.8291,-2.8398,-2.8603,-2.8603,-2.8603,-2.8603,-2.9045,-2.9193,-2.9132,-2.9617,-2.9879,-3.0047,-3.0588,-3.1403,-3.2374,-3.2054,-3.2602,-3.3458,-3.3224,-3.3124,-3.3124,-3.3124,-3.3124,-3.3124,-3.3124,-3.3154,-3.324,-3.3111,-3.324,-3.3471,-3.3797,-3.3882,-3.4259,-3.5722,-3.6267,-3.6763,-3.8107,-3.8708,-3.9017,-3.9337,-3.9388,-3.9388,-3.9388,-3.914,-3.8796,-3.8452,-3.7584,-3.6731,-3.6088,-3.5714,-3.5504,-3.5504,-3.5504,-3.5504,-3.5504,-3.5504,-3.5504,-3.5504,-3.5504,-3.5355,-3.5011,-3.4996,-3.4996,-3.4996,-3.5325,-3.534,-3.4996,-3.5325,-3.534,-3.4996,-3.534,-3.5504,-3.5519,-3.6161,-3.6427,0.0,0.0,0.0,0.0,0.0,0.0,0.0,-1.1763,-1.2278,-1.3834,-1.4954,-1.5957,-1.6753,-1.7695,-1.8527,-1.93,-1.9362,-1.9588,-2.0496,-2.0182,-2.016,-2.0945,-2.1031,-2.1031,-2.1031,-2.1261,-2.2379,-2.4568,-2.5672,-2.7203,-2.9517,-3.0325,-3.043,-2.9717,-2.9744,-2.9316,-2.8545,-2.8457,-2.8584,-2.8916,-2.8574,-2.8555,-2.8789,-2.8814,-2.8913,-2.9026,-2.9448,-2.9774,-3.0099,-3.1392,-3.2163,-3.2632,-3.3195,-3.3678,-3.3985,-3.3319,-3.3124,-3.3124,-3.3124,-3.3124,-3.3124,-3.3124,-3.3124,-3.3124,-3.3124,-3.3197,-3.3313,-3.3154,-3.324,-3.3526,-3.4259,-3.4924,-3.5709,-3.6996,-3.7956,-3.8671,-3.9068,-3.9301,-3.9388,-3.9388,-3.9388,-3.9245,-3.8691,-3.8033,-3.7345,-3.6596,-3.5923,-3.5504,-3.5504,-3.5504,-3.5504,-3.5504,-3.5504,-3.5504,-3.5504,-3.5504,-3.5504,-3.5504,-3.5504,-3.5504,-3.5504,-3.5504,-3.5504,-3.5504,-3.5504,-3.5504,-3.5504,-3.5504,-3.5504,-3.5519,-3.6178,-3.6492,-0.5924,-0.6808,-0.8201,-1.0007,-1.0889,-1.174,0.0,-1.3906,-1.4201,-1.4536,-1.5756,-1.6775,-1.6944,-1.7695,-1.8633,-1.961,-1.9502,-1.9563,-2.0252,-2.0279,-2.0293,-2.0385,-2.0392,-2.0392,-2.0392,-2.1574,-2.2369,-2.2464,-2.5332,-2.7258,-2.7576,-2.9336,-3.0234,-3.0127,-3.0127,-2.9902,-2.9489,-2.9043,-2.8877,-2.8916,-2.8867,-2.8682,-2.8379,-2.9055,-2.9104,-2.8791,-2.9343,-2.9774,-3.0151,-3.2196,-3.3066,-3.3215,-3.4169,-3.454,-3.45,-3.3458,-3.3124,-3.3124,-3.3124,-3.3124,-3.3124,-3.3124,-3.3124,-3.3124,-3.3124,-3.3124,-3.3111,-3.3124,-3.3124,-3.3356,-3.44,-3.4607,-3.4896,-3.6385,-3.7204,-3.7753,-3.8225,-3.8885,-3.9388,-3.9388,-3.9388,-3.9394,-3.932,-3.8736,-3.7868,-3.6671,-3.5923,-3.5504,-3.5504,-3.5504,-3.5504,-3.5504,-3.5504,-3.5504,-3.5504,-3.5504,-3.5504,-3.5504,-3.5504,-3.5504,-3.5504,-3.5504,-3.5504,-3.5504,-3.5504,-3.5504,-3.5504,-3.5504,-3.5504,-3.5519,-3.6178,-3.6492,-0.7374,-0.8538,-0.9837,-1.1227,-1.2028,-1.2699,-1.3768,-1.41,-1.4346,-1.4881,-1.5927,-1.6771,-1.6996,-1.7916,-1.8855,-1.9488,-1.9298,-1.9341,-2.0186,-1.9837,-1.9624,-1.9968,-1.9715,-1.9681,-2.0256,-2.0838,-2.1583,-2.2402,-2.4584,-2.6257,-2.7275,-2.9136,-3.0078,-2.9834,-3.0068,-3.0,-2.957,-2.9385,-2.9297,-2.9297,-2.9297,-2.9072,-2.8662,-2.8957,-2.9026,-2.8983,-2.9396,-2.9774,-3.0141,-3.1637,-3.265,-3.3246,-3.3609,-3.4144,-3.4587,-3.3483,-3.3124,-3.3124,-3.3124,-3.3124,-3.3124,-3.3124,-3.3124,-3.3124,-3.3124,-3.3124,-3.3124,-3.3124,-3.3124,-3.3197,-3.3641,-3.4176,-3.4744,-3.5346,-3.6267,-3.7155,-3.782,-3.8337,-3.8848,-3.9301,-3.9388,-3.9388,-3.9388,-3.8841,-3.8212,-3.7674,-3.6731,-3.5938,-3.5549,-3.5504,-3.5504,-3.5504,-3.5504,-3.5504,-3.5504,-3.5504,-3.5504,-3.5504,-3.5504,-3.5504,-3.5504,-3.5504,-3.5504,-3.5504,-3.5504,-3.5504,-3.5504,-3.5504,-3.5699,-3.6088,-3.6731,-3.7225,-0.8874,-1.0006,-1.1028,-1.2236,-1.2919,-1.3395,-1.392,-1.4118,-1.4324,-1.4815,-1.5659,-1.6455,-1.68,-1.7812,-1.8686,-1.9167,-1.9043,-1.9171,-1.9913,-1.9466,-1.9149,-1.9506,-1.9166,-1.9176,-1.9844,-1.9979,-2.0551,-2.172,-2.3209,-2.4838,-2.6421,-2.8321,-2.9525,-2.9746,-3.0166,-3.0244,-2.9941,-2.9805,-2.9746,-2.9736,-2.9502,-2.9228,-2.8916,-2.8799,-2.8844,-2.9036,-2.9343,-2.9617,-2.9984,-3.1135,-3.2235,-3.3197,-3.3114,-3.3753,-3.4587,-3.3483,-3.3124,-3.3124,-3.3124,-3.3124,-3.3124,-3.3124,-3.3124,-3.3124,-3.3124,-3.3124,-3.3124,-3.3124,-3.3124,-3.3124,-3.3124,-3.3696,-3.4301,-3.44,-3.5318,-3.636,-3.7063,-3.7539,-3.806,-3.8922,-3.9083,-3.9156,-3.9337,-3.9005,-3.8601,-3.8422,-3.7599,-3.6716,-3.5878,-3.5609,-3.5504,-3.5504,-3.5504,-3.5504,-3.5504,-3.5504,-3.5504,-3.5504,-3.5504,-3.5504,-3.5504,-3.5504,-3.5504,-3.5504,-3.5504,-3.5504,-3.5504,-3.5684,-3.6028,-3.6507,-3.73,-3.7943,-1.0015,-1.056,-1.1174,-1.2758,-1.3554,-1.4008,-1.4085,-1.4398,-1.4566,-1.4222,-1.4961,-1.5836,-1.6249,-1.7026,-1.7946,-1.8776,-1.8886,-1.9018,-1.9383,-1.9417,-1.9252,-1.8971,-1.8925,-1.8925,-1.8931,-1.9215,-1.9457,-1.9475,-2.1189,-2.2906,-2.448,-2.6347,-2.8245,-3.0109,-3.0635,-3.0859,-3.085,-3.04,-3.0176,-3.0166,-2.9336,-2.8926,-2.8906,-2.8496,-2.8471,-2.8737,-2.8983,-2.929,-2.9711,-3.1073,-3.2235,-3.3197,-3.3114,-3.3753,-3.4587,-3.3483,-3.3124,-3.3124,-3.3124,-3.3124,-3.3124,-3.3124,-3.3124,-3.3124,-3.3124,-3.3124,-3.3124,-3.3124,-3.3124,-3.3124,-3.3124,-3.3124,-3.324,-3.3641,-3.44,-3.5196,-3.5655,-3.6385,-3.7218,-3.8075,-3.824,-3.8464,-3.928,-3.9394,-3.9155,-3.8497,-3.8362,-3.7883,-3.6611,-3.5893,-3.5504,-3.5504,-3.5504,-3.5504,-3.5504,-3.5504,-3.5504,-3.5504,-3.5504,-3.5504,-3.5504,-3.5504,-3.5504,-3.5504,-3.5504,-3.5504,-3.5504,-3.6148,-3.6462,-3.6522,-3.7778,-3.8362,-1.0507,-1.1375,-1.2347,-1.324,-1.3608,-1.3803,-1.4021,-1.4208,-1.425,-1.413,-1.473,-1.5348,-1.565,-1.6623,-1.7538,-1.8185,-1.866,-1.9025,-1.9325,-1.9424,-1.939,-1.9232,-1.9045,-1.8998,-1.9199,-1.9152,-1.9159,-1.9403,-2.0881,-2.2425,-2.3947,-2.5839,-2.766,-2.929,-3.0049,-3.043,-3.043,-3.0576,-3.0508,-3.0185,-2.9326,-2.8916,-2.8906,-2.8486,-2.8461,-2.8737,-2.8781,-2.9142,-2.9606,-3.0109,-3.1432,-3.3097,-3.2352,-3.3142,-3.4587,-3.3483,-3.3124,-3.3124,-3.3124,-3.3124,-3.3124,-3.3124,-3.3124,-3.3124,-3.3124,-3.3124,-3.3124,-3.3124,-3.3124,-3.3124,-3.3124,-3.3197,-3.3313,-3.3313,-3.3852,-3.4579,-3.5115,-3.5682,-3.6517,-3.7924,-3.8202,-3.8464,-3.9265,-3.9388,-3.9185,-3.8497,-3.7674,-3.6971,-3.6552,-3.5908,-3.5504,-3.5504,-3.5504,-3.5504,-3.5504,-3.5504,-3.5504,-3.5504,-3.5504,-3.5504,-3.5504,-3.5504,-3.5504,-3.5504,-3.5504,-3.5729,-3.6148,-3.6372,-3.6926,-3.7764,-3.8182,-3.8631,-1.1379,-1.2193,-1.3092,-1.3654,-1.376,-1.3854,-1.4041,-1.4088,-1.4055,-1.3948,-1.4315,-1.4821,-1.517,-1.5993,-1.6854,-1.7829,-1.8302,-1.8778,-1.9292,-1.9424,-1.9383,-1.9225,-1.9038,-1.9038,-1.9397,-1.9098,-1.9045,-1.9345,-2.0361,-2.177,-2.3551,-2.4966,-2.665,-2.8707,-2.9597,-3.0091,-3.0195,-3.0488,-3.0342,-2.9736,-2.918,-2.8838,-2.8682,-2.8418,-2.8398,-2.8568,-2.8674,-2.8983,-2.9448,-2.9554,-3.1021,-3.3097,-3.1968,-3.2816,-3.4587,-3.3483,-3.3124,-3.3124,-3.3124,-3.3124,-3.3124,-3.3124,-3.3124,-3.3124,-3.3124,-3.3124,-3.3124,-3.3124,-3.3124,-3.3124,-3.3124,-3.3197,-3.3313,-3.3313,-3.3654,-3.4105,-3.469,-3.5019,-3.5669,-3.7053,-3.7553,-3.7985,-3.8848,-3.9192,-3.9275,-3.8826,-3.7853,-3.7,-3.6552,-3.5908,-3.5504,-3.5504,-3.5504,-3.5504,-3.5504,-3.5504,-3.5504,-3.5504,-3.5504,-3.5504,-3.5504,-3.5504,-3.5504,-3.5504,-3.5744,-3.6073,-3.6492,-3.6941,-3.7584,-3.8407,-3.8646,-3.899,-1.2576,-1.3045,-1.3387,-1.3948,-1.4088,-1.4088,-1.4088,-1.4075,-1.3988,-1.368,-1.3881,-1.4242,-1.4874,-1.5204,-1.5985,-1.7669,-1.8023,-1.835,-1.9245,-1.9424,-1.9265,-1.8978,-1.8945,-1.9058,-1.9339,-1.9125,-1.9078,-1.941,0.0,-2.0849,-2.3287,-2.3756,-2.5362,-2.8358,-2.9352,-2.989,-3.0127,-3.0127,-2.9717,-2.8916,-2.8896,-2.8682,-2.8291,-2.8291,-2.8291,-2.8291,-2.8568,-2.8834,-2.9132,-2.9448,-3.0981,-3.3048,-3.1919,-3.2816,-3.4587,-3.3483,-3.3124,-3.3124,-3.3124,-3.3124,-3.3124,-3.3124,-3.3124,-3.3124,-3.3124,-3.3124,-3.3124,-3.3124,-3.3124,-3.3124,-3.3124,-3.3124,-3.3197,-3.3598,-3.367,-3.3797,-3.4272,-3.4397,-3.4675,-3.5548,-3.6399,-3.7218,-3.8075,-3.8848,-3.9388,-3.9388,-3.8841,-3.7943,-3.6701,-3.5953,-3.5549,-3.5504,-3.5504,-3.5504,-3.5504,-3.5504,-3.5504,-3.5504,-3.5504,-3.5504,-3.5504,-3.5504,-3.5504,-3.5504,-3.6148,-3.654,-3.6537,-3.7778,-3.8407,-3.8467,-3.911,-3.9388,-1.2966,-1.3474,-1.3901,-1.4048,-1.4088,-1.4088,-1.4088,-1.3915,-1.376,-1.3941,-1.3854,-1.3893,-1.4522,-1.5224,-1.6079,-1.7194,-1.7936,-1.8604,-1.9272,-1.9424,-1.9397,-1.9265,-1.9252,-1.9285,-1.9417,-1.9492,-1.9519,-1.9437,-1.9432,-2.0622,-2.3279,-2.3689,-2.5141,-2.7962,-2.9065,-2.9524,-2.9248,-2.9248,-2.9131,-2.8916,-2.8603,-2.8398,-2.8291,-2.8291,-2.8291,-2.8291,-2.8344,-2.8558,-2.8834,-2.9089,-3.0701,-3.2826,-3.186,-3.2816,-3.4587,-3.3483,-3.3124,-3.3124,-3.3124,-3.3124,-3.3124,-3.3124,-3.3124,-3.3124,-3.3124,-3.3124,-3.3124,-3.3124,-3.3124,-3.3124,-3.3124,-3.3124,-3.3111,-3.324,-3.3471,-3.3713,-3.3839,-3.4134,-3.4675,-3.5548,-3.6883,-3.7947,-3.8165,-3.8848,-3.9388,-3.9388,-3.8841,-3.8093,-3.7285,-3.6626,-3.6043,-3.5549,-3.5504,-3.5504,-3.5504,-3.5504,-3.5504,-3.5504,-3.5504,-3.5504,-3.5504,-3.5504,-3.5504,-3.5504,-3.6148,-3.6716,-3.718,-3.7988,-3.8661,-3.9155,-3.9298,-3.9388,-1.332,-1.3734,-1.4088,-1.4088,-1.4088,-1.4055,-1.3921,-1.3868,-1.3774,-1.3588,-1.3681,-1.382,-1.3928,-1.477,-1.5738,-1.667,-1.7561,-1.8343,-1.9072,-1.9285,-1.9424,-1.9424,-1.9424,-1.9477,-1.9546,-1.9593,-1.9593,-1.9559,-1.9559,-2.0635,-2.3071,-2.3343,-2.468,-2.7413,-2.8442,-2.8949,-2.8926,-2.8916,-2.8828,-2.8643,-2.8408,-2.8291,-2.8291,-2.8291,-2.8291,-2.8291,0.0,-2.8451,-2.8727,-2.8983,-3.0297,-3.2073,-3.1666,-3.2524,-3.3905,-3.3339,-3.3124,-3.3124,-3.3124,-3.3124,-3.3124,-3.3124,-3.3124,-3.3124,-3.3124,-3.3124,-3.3124,-3.3124,-3.3124,-3.3124,-3.3124,-3.3124,-3.3154,-3.3313,-3.3556,-3.3755,-3.3966,-3.423,-3.4675,-3.5548,-3.6452,-3.7323,-3.8089,-3.8575,-3.8995,-3.9352,-3.9095,-3.8601,-3.7928,-3.7045,-3.6342,-3.5968,-3.5684,-3.5504,-3.5504,-3.5504,-3.5504,-3.5504,-3.5504,-3.5504,-3.5504,-3.5504,-3.5504,-3.5504,-3.6417,-3.706,-3.7404,-3.8377,-3.9035,-3.9388,-3.9388,-3.9388,-1.3539,-1.3846,-1.4088,-1.4088,-1.4088,-1.4021,-1.372,-1.3841,-1.3761,-1.3058,-1.346,-1.3781,-1.3347,-1.4195,-1.5296,-1.6181,-1.7014,-1.7896,-1.8798,-1.9145,-1.9325,-1.9366,-1.9424,-1.9466,-1.972,-1.9512,-1.9472,-1.9726,-1.974,-2.0725,-2.2877,-2.303,-2.4334,-2.7118,-2.7755,-2.832,-2.8916,-2.8867,-2.8652,-2.8291,-2.8291,-2.8291,-2.8291,-2.8291,-2.8291,-2.8291,0.0,0.0,-2.8674,-2.893,-2.9848,-3.113,-3.124,-3.1983,-3.309,-3.2964,-3.2982,-3.3124,-3.3124,-3.3124,-3.3124,-3.3124,-3.3124,-3.3124,-3.3124,-3.3124,-3.3124,-3.3124,-3.3124,-3.3124,-3.3124,-3.3124,-3.3197,-3.3556,-3.367,-3.3797,-3.423,-3.4356,-3.4634,-3.5386,-3.5629,-3.6175,-3.7758,-3.8113,-3.8464,-3.9265,-3.9388,-3.92,-3.8601,-3.7479,-3.6671,-3.6507,-3.5968,-3.5609,-3.5519,-3.5504,-3.5504,-3.5504,-3.5504,-3.5504,-3.5504,-3.5504,-3.5504,-3.5504,-3.6761,-3.7404,-3.7404,-3.8766,-3.9388,-3.9388,-3.9388,-3.9388,-1.3629,-1.3873,-1.4088,-1.4088,-1.4088,-1.4075,-1.4021,-1.3674,-1.3387,-1.3433,-1.322,-1.3139,-1.3453,-1.4335,-1.5296,-1.6181,-1.7014,-1.7896,-1.8798,-1.8965,-1.9092,-1.9397,-1.9424,-1.9444,-1.9432,-1.9457,-1.945,-1.9497,-1.9446,-2.0499,-2.2869,-2.3231,-2.4817,-2.8162,-2.8058,-2.824,-2.8916,-2.8574,-2.8369,-2.8291,-2.8291,-2.8291,-2.8291,-2.8291,-2.8291,-2.8291,-2.8291,0.0,-2.8398,-2.8674,-2.9576,-3.0739,-3.0219,-3.1269,-3.2997,-3.2188,-3.2394,-3.3124,-3.3124,-3.3124,-3.3124,-3.3124,-3.3124,-3.3124,-3.3124,-3.3124,-3.3124,-3.3124,-3.3124,-3.3124,-3.3124,-3.3124,-3.3124,-3.3197,-3.3484,-3.3713,-3.3797,-3.4147,-3.4439,-3.4592,-3.5196,-3.6016,-3.6972,-3.7706,-3.8464,-3.9265,-3.9388,-3.9379,-3.926,-3.8556,-3.7659,-3.6596,-3.6387,-3.6088,-3.5549,-3.5504,-3.5504,-3.5504,-3.5504,-3.5504,-3.5504,-3.5504,-3.5504,-3.5504,-3.6761,-3.7404,-3.7404,-3.8766,-3.9388,-3.9388,-3.9388,-3.9388,-1.3656,-1.3779,-1.3913,-1.4088,-1.3975,-1.3814,-1.3667,-1.3414,-1.316,-1.294,-1.2966,-1.294,-1.2791,-1.3629,-1.4469,-1.4937,-1.5976,-1.7106,-1.8152,-1.8368,-1.8688,-1.9312,-1.9068,-1.901,-1.9366,-1.9243,-1.9185,-1.9366,-1.9424,-2.0443,-2.2869,-2.4317,-2.5961,-2.7898,-2.7752,-2.7949,-2.8594,-2.8398,-2.8291,-2.8291,-2.8291,-2.8291,-2.8291,-2.8291,-2.8291,-2.8291,-2.8291,0.0,-2.8291,-2.8568,-2.9175,-2.9839,-2.9732,-3.0752,-3.2195,-3.1774,-3.2264,-3.3124,-3.3124,-3.3124,-3.3124,-3.3124,-3.3124,-3.3124,-3.3124,-3.3124,-3.3124,-3.3124,-3.3124,-3.3124,-3.3124,-3.3124,-3.3154,-3.3356,-3.3768,-3.405,-3.405,-3.423,-3.4397,-3.4397,-3.4758,-3.5305,-3.6122,-3.6986,-3.782,-3.8649,-3.9119,-3.9388,-3.9388,-3.8811,-3.8018,-3.706,-3.6686,-3.6222,-3.5564,-3.5504,-3.5504,-3.5504,-3.5504,-3.5504,-3.5504,-3.5504,-3.5669,-3.6013,-3.6941,-3.7584,-3.7913,-3.8931,-3.9388,-3.9388,-3.9388,-3.9388,-1.3591,-1.3652,-1.3779,-1.4046,-1.3868,-1.354,-1.3313,-1.3206,-1.2979,-1.2498,-1.2726,-1.2828,-1.2295,-1.2947,-1.3711,-1.3957,-1.4965,-1.6158,-1.7434,-1.7737,-1.817,-1.9054,-1.8713,-1.8655,-1.9243,-1.9062,-1.9055,-1.9366,-1.988,-2.101,-2.2926,-2.5064,-2.6573,-2.7368,-2.7377,-2.7701,-2.8291,-2.8291,-2.8291,-2.8291,-2.8291,-2.8291,-2.8291,-2.8291,-2.8291,-2.8291,-2.8291,0.0,0.0,-2.8568,-2.8827,-2.9015,-2.926,-3.0078,-3.1067,-3.1231,-3.1945,-3.2797,-3.3025,-3.3124,-3.3124,-3.3124,-3.3124,-3.3124,-3.3124,-3.3124,-3.3124,-3.3124,-3.3124,-3.3124,-3.3124,-3.3124,-3.3197,-3.3598,-3.4021,-3.4356,-3.4397,-3.4397,-3.4397,-3.4397,-3.4397,-3.4703,-3.5776,-3.6464,-3.7242,-3.83,-3.901,-3.9388,-3.9388,-3.8811,-3.8138,-3.7479,-3.6851,-3.6222,-3.5564,-3.5504,-3.5504,-3.5504,-3.5504,-3.5504,-3.5504,-3.5639,-3.5953,-3.6477,-3.7225,-3.7868,-3.8392,-3.908,-3.9388,-3.9388,-3.9388,-3.9388,-1.3328,-1.3568,-1.3779,-1.4046,-1.3868,-1.3593,-1.3573,-1.318,-1.2811,-1.2757,-1.2569,-1.2463,-1.2759,-1.3104,-1.3613,-1.4487,-1.4927,-1.5647,-1.7066,-1.7284,-1.7555,-1.8384,-1.8421,-1.8532,-1.8939,-1.8939,-1.9055,-1.9366,-2.146,-2.2749,-2.2982,-2.427,-2.5725,-2.7377,-2.7377,-2.7701,-2.8291,-2.8291,-2.8291,-2.8291,-2.8291,-2.8291,-2.8291,-2.8291,-2.8291,-2.8291,-2.8291,0.0,0.0,-2.8568,-2.8658,-2.855,-2.837,-2.8842,-2.9635,-3.0148,-3.0946,-3.1857,-3.2797,-3.3124,-3.3124,-3.3124,-3.3124,-3.3124,-3.3124,-3.3124,-3.3124,-3.3124,-3.3124,-3.3124,-3.3124,-3.3124,-3.3197,-3.3598,-3.3937,-3.4202,-3.4356,-3.4397,-3.4397,-3.4397,-3.4397,-3.4909,-3.6503,-3.6841,-3.7434,-3.9068,-3.9337,-3.9388,-3.9388,-3.8811,-3.8138,-3.7479,-3.6851,-3.6222,-3.5564,-3.5504,-3.5504,-3.5504,-3.5504,-3.5504,-3.5504,-3.6073,-3.6432,-3.6492,-3.7689,-3.8332,-3.8392,-3.908,-3.9388,-3.9388,-3.9388,-3.9388,-1.3024,-1.3355,-1.3568,-1.3652,-1.3439,-1.3179,-1.3179,-1.2641,-1.2179,-1.2291,-1.2125,-1.1983,-1.2202,-1.2466,-1.2876,-1.364,-1.4116,-1.4816,-1.6079,-1.6342,-1.6816,-1.7824,-1.7728,-1.7948,-1.8803,-1.8706,-1.8829,-1.9366,-2.027,-2.146,-2.2918,-2.4842,-2.6291,-2.7152,-2.7323,-2.7593,-2.8067,-2.8237,-2.8291,-2.8291,-2.8291,-2.8291,-2.8291,-2.8291,-2.8291,-2.8291,-2.8291,0.0,0.0,-2.8408,-2.847,-2.8438,-2.8097,-2.8575,-2.9485,-2.9988,-3.0812,-3.1757,-3.2754,-3.3124,-3.3124,-3.3124,-3.3124,-3.3124,-3.3124,-3.3124,-3.3124,-3.3124,-3.3124,-3.3124,-3.3124,-3.3283,-3.3513,-3.3852,-3.4105,-3.4314,-3.4397,-3.4397,-3.4397,-3.4397,-3.4397,-3.4786,-3.5963,-3.6582,-3.7281,-3.8501,-3.9083,-3.9275,-3.8856,-3.8212,-3.7554,-3.6926,-3.6626,-3.6222,-3.5564,-3.5504,-3.5504,-3.5504,-3.5504,-3.5684,-3.6088,-3.6357,-3.6656,-3.703,-3.7928,-3.8392,-3.8392,-3.908,-3.9388,-3.9388,-3.9388,-3.9388,-1.275,-1.3117,-1.3307,-1.3392,-1.3101,-1.281,-1.281,-1.2235,-1.1744,-1.1892,-1.1851,-1.1853,-1.1911,-1.2138,-1.2482,-1.3006,-1.3485,-1.4173,-1.5301,-1.5645,-1.6172,-1.7216,-1.7146,-1.7361,-1.8436,-1.888,-1.9165,-1.9366,-2.0046,-2.1231,-2.2918,-2.4953,-2.6345,-2.6989,-2.726,-2.7584,-2.7906,-2.8184,-2.8291,-2.8291,-2.8291,-2.8291,-2.8291,-2.8291,-2.8291,-2.8291,-2.8291,0.0,0.0,-2.8261,-2.8209,-2.8134,-2.7834,-2.8121,-2.8731,-2.9483,-3.017,-3.0946,-3.2208,-3.2667,-3.2711,-3.2982,-3.3124,-3.3124,-3.3124,-3.3124,-3.3124,-3.3124,-3.3124,-3.3124,-3.3124,-3.3398,-3.3755,-3.3937,-3.4189,-3.4397,-3.4397,-3.4397,-3.4397,-3.4397,-3.4397,-3.4675,-3.5548,-3.636,-3.7218,-3.8075,-3.8885,-3.917,-3.8482,-3.7808,-3.7165,-3.6552,-3.6312,-3.6013,-3.5549,-3.5504,-3.5504,-3.5504,-3.5504,-3.5714,-3.6178,-3.6387,-3.6776,-3.7404,-3.8063,-3.8497,-3.8691,-3.9185,-3.9388,-3.9388,-3.9388,-3.9388,-1.2506,-1.2895,-1.3137,-1.3355,-1.2978,-1.2611,-1.2611,-1.212,-1.1706,-1.1706,-1.1904,-1.2112,-1.219,-1.2416,-1.2697,-1.3037,-1.3344,-1.3888,-1.4956,-1.5336,-1.5795,-1.6604,-1.6706,-1.6922,-1.7571,-1.9482,-2.03,-1.9482,-2.1631,0.0,-2.2974,-2.4167,-2.5496,-2.6935,-2.726,-2.7584,-2.7906,-2.8184,-2.8291,-2.8291,-2.8291,-2.8291,-2.8291,-2.8291,-2.8291,0.0,0.0,0.0,0.0,-2.8137,-2.7857,-2.74,-2.7569,-2.7337,-2.7092,-2.8269,-2.8724,-2.9002,-3.0946,-3.1625,-3.1769,-3.2766,-3.3124,-3.3124,-3.3124,-3.3124,-3.3124,-3.3124,-3.3124,-3.3124,-3.3124,-3.3398,-3.3713,-3.3713,-3.405,-3.4397,-3.4397,-3.4397,-3.4397,-3.4397,-3.4397,-3.4675,-3.5548,-3.636,-3.7218,-3.8075,-3.8885,-3.917,-3.8482,-3.7808,-3.7165,-3.6552,-3.5908,-3.5519,-3.5504,-3.5504,-3.5504,-3.5504,-3.5504,-3.5504,-3.5519,-3.6148,-3.6776,-3.7404,-3.8063,-3.8721,-3.9373,-3.9388,-3.9388,-3.9388,-3.9388,-3.9388,-1.1982,-1.2357,-1.2506,-1.2419,-1.2376,-1.2322,-1.2089,-1.1792,-1.1771,-1.2554,-1.2184,-1.2019,-1.3038,-1.2785,-1.294,-1.4527,-1.4218,-1.437,-1.6013,-1.5838,-1.5734,-1.6356,-1.7088,-1.7743,-1.8101,-1.972,-2.0694,-2.0608,-2.2078,-2.3376,-2.4214,-2.4612,-2.5395,-2.6682,-2.7161,-2.7431,-2.7539,-2.8023,-2.8291,-2.8291,-2.8291,-2.8291,-2.8291,-2.8291,-2.8291,0.0,0.0,0.0,0.0,-2.7819,-2.7576,-2.7192,-2.725,-2.7219,-2.7309,-2.8315,-2.8678,-2.9002,-3.0946,-3.1581,-3.1769,-3.2754,-3.3124,-3.3124,-3.3124,-3.3124,-3.3124,-3.3124,-3.3124,-3.3111,-3.3283,-3.3513,-3.3768,-3.3937,-3.4189,-3.4397,-3.4397,-3.4397,-3.4397,-3.4397,-3.4397,-3.4868,-3.6267,-3.6724,-3.7396,-3.8797,-3.8841,-3.8467,-3.7808,-3.7165,-3.6537,-3.5893,-3.5624,-3.5504,-3.5504,-3.5504,-3.5504,-3.5504,-3.5504,-3.5714,-3.6148,-3.6372,-3.6776,-3.7404,-3.8063,-3.8497,-3.8721,-3.9185,-3.9388,-3.9388,-3.9388,-3.9388,-1.1805,-1.2165,-1.2552,-1.2393,-1.2627,-1.2856,-1.2626,-1.2431,-1.2492,-1.3313,-1.3018,-1.2929,-1.4006,-1.3783,-1.3971,-1.5462,-1.4897,-1.4952,-1.6932,-1.6621,-1.6407,-1.7075,-1.7931,-1.8436,-1.8262,-2.0165,-2.1316,-2.1231,-2.2757,-2.3991,-2.4778,-2.4778,-2.534,-2.6537,-2.6999,-2.7323,-2.7377,-2.7916,-2.8184,-2.8291,-2.8291,-2.8291,-2.8291,-2.8291,-2.8203,0.0,0.0,0.0,0.0,-2.7246,-2.7068,-2.6844,-2.6871,-2.6932,-2.7109,-2.7904,-2.8175,-2.8409,-2.9943,-3.0767,-3.1214,-3.222,-3.281,-3.3124,-3.3124,-3.3124,-3.3124,-3.3124,-3.3124,-3.3154,-3.3356,-3.3556,-3.3768,-3.4034,-3.4243,-3.4397,-3.4397,-3.4397,-3.4397,-3.4397,-3.4397,-3.4703,-3.5762,-3.6503,-3.7242,-3.8308,-3.8438,-3.8153,-3.7494,-3.6866,-3.6237,-3.5579,-3.5504,-3.5504,-3.5504,-3.5504,-3.5504,-3.5504,-3.5504,-3.5684,-3.6103,-3.6118,-3.6522,-3.7389,-3.7808,-3.8272,-3.8781,-3.9215,-3.9388,-3.9388,-3.9388,-3.9388,0.0,-1.2369,-1.3139,-1.3139,-1.353,-1.3893,-1.3871,-1.3689,0.0,-1.3999,-1.424,-1.4562,-1.502,-1.5278,-1.5582,-1.607,-1.5497,-1.5696,-1.7776,-1.7739,-1.7791,-1.8577,-1.9172,-1.9201,-1.8369,-2.0905,-2.2322,-2.1509,-2.36,-2.4953,-2.4953,-2.4953,-2.5459,-2.6537,-2.6836,-2.7098,-2.7377,-2.7745,-2.8014,-2.8291,-2.8291,-2.8291,-2.8291,-2.8291,-2.8066,0.0,0.0,0.0,0.0,-2.6543,-2.6417,-2.6398,-2.6473,-2.6496,-2.664,-2.7119,-2.7309,-2.7441,-2.8351,-2.936,-3.0351,-3.1403,-3.2351,-3.3124,-3.3124,-3.3124,-3.3124,-3.3124,-3.3124,-3.3154,-3.3356,-3.3556,-3.3768,-3.4034,-3.4243,-3.4397,-3.4397,-3.4397,-3.4397,-3.4397,-3.4397,-3.4439,-3.4551,-3.5869,-3.6919,-3.7035,-3.777,-3.8093,-3.7479,-3.6821,-3.6178,-3.5564,-3.5504,-3.5504,-3.5504,-3.5504,-3.5504,-3.5504,-3.5504,-3.5504,-3.5504,-3.5504,-3.6103,-3.7389,-3.7494,-3.8167,-3.9388,-3.9388,-3.9388,-3.9388,-3.9388,-3.9388,-1.3257,0.0,-1.3423,-1.3423,-1.3657,-1.3835,0.0,-1.3704,-1.403,-1.4754,-1.466,-1.4793,-1.6048,-1.6027,-1.6311,-1.7981,-1.7393,-1.7406,-1.9432,-1.9613,-1.97,-2.0154,-2.071,-2.1084,-2.1106,-2.2783,-2.3902,-2.3935,-2.534,-2.619,-2.619,-2.619,-2.6309,-2.6582,-2.6636,-2.6899,-2.7377,-2.7745,-2.8014,-2.8291,-2.8291,-2.8291,-2.8291,-2.8291,-2.8066,0.0,0.0,0.0,-2.6533,-2.6426,-2.6438,-2.6502,-2.6488,-2.6736,-2.7119,-2.7262,-2.7309,-2.7441,-2.8351,-2.936,-3.0486,-3.2208,-3.2896,-3.3124,-3.3124,-3.3124,-3.3124,-3.3124,-3.3124,-3.3154,-3.3356,-3.3556,-3.3768,-3.4034,-3.4243,-3.4397,-3.4397,-3.4397,-3.4397,-3.4397,-3.4397,-3.4827,-3.6108,-3.6646,-3.7357,-3.862,-3.813,-3.7584,-3.7434,-3.6432,-3.5669,-3.5519,-3.5504,-3.5504,-3.5504,-3.5504,-3.5504,-3.5504,-3.5504,-3.5504,-3.5504,-3.5504,-3.6103,-3.7389,-3.8422,-3.911,-3.9388,-3.9388,-3.9388,-3.9388,-3.9388,-3.9388,-1.4661,-1.4519,-1.4529,-1.4529,-1.49,-1.5257,-1.5104,-1.4925,-1.4951,-1.5598,-1.5608,-1.5871,-1.6893,-1.7121,-1.7589,-1.8891,-1.8452,-1.8649,-2.0604,-2.1428,-2.1798,-2.1783,-2.2166,-2.2338,0.0,-2.3407,-2.442,-2.4778,-2.5907,-2.6591,-2.6591,-2.6591,-2.6591,-2.6591,-2.6591,-2.68,-2.7206,-2.753,-2.7799,-2.813,-2.8043,-2.8008,-2.7998,-2.7793,-2.748,0.0,0.0,0.0,-2.6094,-2.6094,-2.6094,-2.6169,-2.64,-2.6688,-2.6976,-2.7214,-2.7309,-2.7357,-2.7904,-2.8991,-3.0441,-3.1933,-3.2711,-3.3074,-3.2754,-3.2867,-3.3124,-3.3124,-3.3124,-3.3154,-3.3484,-3.3641,-3.381,-3.4147,-3.4314,-3.4397,-3.4397,-3.4397,-3.4397,-3.4397,-3.4397,-3.4827,-3.6122,-3.6674,-3.7234,-3.8238,-3.7818,-3.73,-3.7015,-3.6118,-3.5504,-3.5504,-3.5504,-3.5504,-3.5504,-3.5504,-3.5504,-3.5504,-3.5504,-3.5504,-3.5504,-3.5504,-3.6103,-3.7389,-3.8736,-3.9388,-3.9388,-3.9388,-3.9388,-3.9388,-3.9388,-3.9388,-1.5865,-1.5968,-1.6,-1.5839,-1.6392,-1.6987,-1.6898,-1.643,-1.6062,-1.6317,-1.6693,-1.7132,-1.76,-1.8252,-1.8845,-1.9402,-1.941,-1.9942,-2.1609,-2.2908,-2.3589,-2.3295,-2.3495,0.0,-2.2692,-2.3766,-2.4629,-2.4977,-2.5873,-2.6408,-2.6408,-2.6408,-2.6408,-2.6408,-2.6408,-2.6507,-2.6749,-2.7203,-2.7555,-2.7863,-2.7727,-2.7679,-2.7559,-2.7178,-2.6787,-2.6387,0.0,0.0,-2.5693,-2.5693,-2.5732,-2.583,-2.6304,-2.6554,-2.664,-2.7119,-2.7258,-2.7185,-2.7264,-2.8449,-3.012,-3.1065,-3.2062,-3.2729,-3.224,-3.2428,-3.2842,-3.2918,-3.3048,-3.3197,-3.3598,-3.3713,-3.3797,-3.4272,-3.4397,-3.4397,-3.4397,-3.4397,-3.4397,-3.4397,-3.4397,-3.4675,-3.5548,-3.6304,-3.683,-3.7126,-3.7246,-3.7075,-3.6552,-3.5908,-3.5504,-3.5504,-3.5504,-3.5504,-3.5504,-3.5504,-3.5504,-3.5504,-3.5504,-3.5549,-3.5654,-3.5744,-3.6357,-3.7539,-3.8781,-3.9388,-3.9388,-3.9388,-3.9388,-3.9388,-3.9388,-3.9388,-1.6129,-1.6915,-1.7423,-1.6466,-1.6826,-1.7304,-1.6987,-1.6795,-1.6764,-1.6816,-1.7124,-1.7634,-1.8288,-1.8785,-1.9418,-2.0454,-2.1403,-2.2206,-2.2817,-2.3329,-2.3903,-2.4441,0.0,-2.4671,-2.5093,-2.5277,-2.546,-2.5783,-2.5686,-2.5555,-2.5555,-2.5555,-2.5555,-2.5555,-2.5555,-2.5607,-2.566,-2.6814,-2.7519,-2.7711,-2.7695,-2.7471,-2.7119,-2.7041,-2.6787,0.0,0.0,-2.6143,-2.5693,-2.5693,-2.582,-2.6052,-2.64,-2.6651,-2.69,-2.7167,-2.7061,-2.6749,-2.7149,-2.801,-2.91,-3.0024,-3.092,-3.1637,-3.1537,-3.1587,-3.175,-3.2215,-3.2704,-3.3197,-3.3598,-3.3713,-3.3797,-3.4272,-3.4397,-3.4397,-3.4397,-3.4397,-3.4397,-3.4397,-3.4397,-3.4675,-3.5548,-3.5892,-3.6307,-3.7069,-3.6876,-3.6596,-3.6492,-3.5908,-3.5504,-3.5504,-3.5504,-3.5504,-3.5504,-3.5504,-3.5504,-3.5504,-3.5504,-3.5744,-3.6312,-3.6836,-3.7479,-3.8227,-3.902,-3.9388,-3.9388,-3.9388,-3.9388,-3.9388,-3.9388,-3.9388,-1.5404,-1.6196,-1.7005,-1.6686,-1.7514,-1.8389,-1.8177,-1.7817,-1.7478,-1.7478,-1.7817,-1.8218,-1.8519,-1.9076,-1.9924,-2.1268,-2.191,-2.2518,-2.3306,-2.3383,-2.3571,-2.4127,0.0,-2.4321,-2.4763,-2.489,-2.511,-2.5427,0.0,0.0,-2.5424,-2.5424,-2.5424,-2.5424,-2.5424,-2.5476,-2.5631,-2.6351,-2.6812,-2.6891,-2.6978,-2.6865,-2.667,-2.6426,-2.6221,-2.6035,0.0,-2.5918,-2.5693,-2.5693,-2.5868,-2.6149,-2.64,-2.6651,-2.6918,-2.6935,-2.6635,-2.6256,-2.6478,-2.7481,-2.8783,-2.9211,-3.0276,-3.1336,-3.106,-3.1173,-3.1386,-3.1361,-3.1951,-3.2701,-3.3164,-3.3466,-3.3733,-3.3949,-3.4188,-3.4397,-3.4397,-3.4397,-3.4397,-3.4397,-3.4397,-3.457,-3.5129,-3.5601,-3.5967,-3.615,-3.6379,-3.6357,-3.6013,-3.5684,-3.5504,-3.5504,-3.5504,-3.5504,-3.5504,-3.5504,-3.5504,-3.5504,-3.5504,-3.5639,-3.5953,-3.6567,-3.721,-3.7853,-3.8512,-3.905,-3.9388,-3.9388,-3.9388,-3.9388,-3.9388,-3.9388,-1.4917,-1.547,-1.6179,-1.6653,-1.7696,-1.8761,-1.9204,-1.8633,-1.8097,-1.8358,-1.8656,-1.8853,-1.8853,-1.9555,-2.0434,-2.1559,-2.203,-2.2526,-2.3349,-2.3237,-2.3254,-2.3675,-2.3694,-2.3782,-2.4184,-2.4376,-2.4584,0.0,0.0,0.0,-2.5139,-2.5139,-2.5139,-2.5139,-2.5139,-2.5242,-2.5396,-2.5735,-2.5986,-2.6184,-2.6332,-2.6338,-2.6221,-2.584,-2.5693,-2.5693,-2.5693,-2.5625,-2.5586,-2.5586,-2.5614,-2.5745,-2.6089,-2.6384,-2.6617,-2.6377,-2.603,-2.5754,-2.5853,-2.6933,-2.8341,-2.8595,-2.9747,-3.0947,-3.0545,-3.0696,-3.0959,-3.0696,-3.1251,-3.2028,-3.2564,-3.3034,-3.3363,-3.3401,-3.3692,-3.4005,-3.4005,-3.411,-3.4201,-3.4201,-3.4306,-3.449,-3.4724,-3.5259,-3.5563,-3.534,-3.5828,-3.6073,-3.5564,-3.5504,-3.5504,-3.5504,-3.5504,-3.5504,-3.5504,-3.5504,-3.5504,-3.5504,-3.5504,-3.5579,-3.5729,-3.6222,-3.6776,-3.7404,-3.7898,-3.8532,-3.9221,-3.9185,-3.926,-3.9445,-3.9409,-3.9388,-1.5538,-1.5556,-1.5514,-1.618,-1.6653,-1.7473,-1.9235,-1.8802,-1.8288,-1.9339,-1.9597,-1.9614,-1.9614,-2.0549,-2.1216,-2.0994,-2.2133,-2.2937,-2.2714,0.0,-2.3254,-2.3675,-2.3574,-2.3756,-2.442,-2.4396,-2.4446,0.0,0.0,0.0,-2.4293,-2.4293,-2.4293,-2.4293,-2.4293,-2.4293,-2.4293,-2.478,-2.5324,-2.6016,-2.6297,-2.6172,-2.5732,-2.5703,-2.5693,-2.5693,-2.5693,-2.5508,-2.5117,-2.5117,-2.492,-2.4558,-2.5085,-2.5579,-2.5927,-2.5492,-2.5261,-2.53,-2.5679,-2.6429,-2.7376,-2.825,-2.915,-2.9905,-2.9867,-2.988,-3.0005,-3.0482,-3.0777,-3.1193,-3.1968,-3.2175,-3.2309,-3.2697,-3.279,-3.2816,-3.2816,-3.326,-3.3652,-3.3652,-3.4058,-3.4449,-3.4658,-3.4861,-3.5046,-3.5177,-3.5425,-3.5549,-3.5504,-3.5504,-3.5504,-3.5504,-3.5504,-3.5504,-3.5504,-3.5504,-3.5504,-3.5504,-3.5504,-3.5774,-3.6387,-3.6462,-3.6776,-3.7404,-3.7464,-3.7878,-3.8742,-3.8572,-3.8887,-3.9681,-3.9481,-3.9388,-1.4427,-1.4593,-1.4947,-1.5475,-1.578,-1.6423,-1.8374,-1.8932,-1.9231,-2.007,-2.0547,-2.0711,-2.0489,-2.0977,-2.1362,-2.1234,-2.1893,-2.2449,-2.2585,-2.2475,-2.2552,-2.2972,-2.2945,-2.3123,-2.3518,0.0,0.0,0.0,0.0,0.0,-2.4202,-2.4202,-2.4202,-2.4202,-2.4202,-2.4202,-2.4202,-2.4489,-2.486,-2.5326,-2.578,-2.5849,-2.5693,-2.5693,-2.5538,-2.5322,-2.5322,-2.5068,-2.4668,-2.4668,-2.4663,-2.47,-2.5234,-2.547,-2.5461,-2.5251,-2.5003,-2.4778,-2.4924,-2.5924,-2.7151,-2.7516,-2.8633,-2.9792,-2.9792,-2.9792,-2.9829,-3.0043,-3.0249,-3.0558,-3.1354,-3.1923,-3.2263,-3.2176,-3.2437,-3.2685,-3.2685,-3.2868,-3.3038,-3.3038,-3.3195,-3.3236,-3.296,-3.3721,-3.4303,-3.398,-3.4848,-3.5504,-3.5504,-3.5504,-3.5504,-3.5504,-3.5504,-3.5504,-3.5504,-3.5504,-3.5504,-3.5504,-3.5504,-3.5609,-3.5863,-3.5878,-3.6178,-3.6821,-3.6836,-3.7184,-3.7897,-3.7828,-3.8227,-3.9078,-3.9008,-3.9284,-1.4158,-1.4316,-1.4645,-1.5188,-1.5378,-1.5828,-1.7573,-1.8512,-1.9266,-2.0227,-2.076,-2.102,-2.09,-2.1079,-2.1242,-2.1242,-2.1559,-2.1859,-2.2053,-2.1901,-2.1901,-2.2208,-2.2292,-2.2432,-2.2728,0.0,0.0,0.0,0.0,0.0,0.0,-2.3776,-2.3776,-2.3776,-2.3776,-2.3776,-2.3776,-2.4098,-2.4341,-2.4534,-2.5025,-2.5421,-2.5684,-2.5596,-2.5361,-2.5106,-2.4922,-2.4619,-2.4219,-2.4219,-2.4323,-2.4521,-2.4901,-2.503,-2.4972,-2.4972,-2.4766,-2.454,-2.4818,-2.5673,-2.6771,-2.7354,-2.8383,-2.9456,-2.9714,-2.9792,-2.9792,-2.9792,-2.9972,-3.0318,-3.0804,-3.1396,-3.1798,-3.1589,-3.1862,-3.215,-3.215,-3.2293,-3.2424,-3.2424,-3.2568,-3.2581,-3.2236,-3.3071,-3.3715,-3.3591,-3.4457,-3.5198,-3.5472,-3.5504,-3.5504,-3.5504,-3.5504,-3.5504,-3.5504,-3.5504,-3.5504,-3.5504,-3.5504,-3.5504,-3.5504,-3.5504,-3.5714,-3.6178,-3.6178,-3.651,-3.7192,-3.7173,-3.7635,-3.8469,-3.8454,-3.8765,-1.5097,-1.4887,-1.4767,-1.5408,-1.5517,-1.5725,-1.6994,-1.7506,-1.8154,-1.978,-2.0243,-2.042,-2.0814,-2.0883,-2.0883,-2.0874,-2.1174,-2.1276,-2.0925,-2.1182,-2.1405,-2.1413,-2.1644,-2.1882,0.0,0.0,0.0,0.0,0.0,0.0,0.0,-2.2904,-2.2904,-2.2904,-2.2904,-2.2904,-2.2904,-2.3448,-2.3672,-2.3728,-2.4183,-2.4826,-2.5664,-2.5264,-2.5106,-2.5077,-2.46,-2.417,-2.3779,-2.3779,-2.3801,-2.3797,-2.3797,-2.411,-2.4497,-2.4497,-2.4497,-2.4615,-2.5505,-2.5788,-2.611,-2.7879,-2.8502,-2.8673,-2.9546,-2.9792,-2.9792,-2.9792,-3.0075,-3.0406,-3.0406,-3.0533,-3.0736,-3.0949,-3.0986,-3.0986,-3.0986,-3.1431,-3.1797,-3.1797,-3.228,-3.2764,-3.2955,-3.2972,-3.3294,-3.4162,-3.4312,-3.461,-3.5392,-3.5504,-3.5504,-3.5504,-3.5504,-3.5504,-3.5504,-3.5504,-3.5504,-3.5504,-3.5504,-3.5504,-3.5504,-3.5504,-3.5504,-3.5504,-3.5504,-3.5902,-3.67,-3.6697,-3.7141,-3.8007,-3.7928,-3.7879,-1.4279,-1.4472,-1.4888,-1.4827,-1.5482,-1.6309,-1.7143,-1.7866,-1.8885,-2.0843,-2.0848,-2.064,-2.1178,-2.1045,-2.0788,-2.0514,-2.0788,-2.1002,-2.0891,-2.0968,-2.1131,-2.1379,-2.1453,0.0,0.0,0.0,0.0,0.0,0.0,0.0,0.0,-2.2904,-2.2904,-2.2904,-2.2904,-2.2904,-2.2904,-2.3045,-2.3317,-2.3719,-2.3858,-2.4225,-2.4805,-2.4668,-2.4443,-2.416,-2.4033,-2.373,-2.3286,-2.3286,-2.3515,-2.3797,-2.3797,-2.411,-2.4497,-2.4497,-2.4497,-2.454,-2.4775,-2.5306,-2.5986,-2.7139,-2.7959,-2.8673,-2.9546,-2.9792,-2.9792,-2.9792,-3.0075,-3.0406,-3.0406,-3.0634,-3.0911,-3.0986,-3.0986,-3.0986,-3.0986,-3.1117,-3.1248,-3.1248,-3.1378,-3.1507,-3.1587,-3.2005,-3.2617,-3.3416,-3.3973,-3.461,-3.5392,-3.5504,-3.5504,-3.5504,-3.5504,-3.5504,-3.5504,-3.5504,-3.5504,-3.5504,-3.5504,-3.5504,-3.5504,-3.5504,-3.5504,-3.5504,-3.5504,-3.5627,-3.5872,-3.5854,-3.6282,-3.7098,-3.7083,-3.7392,-1.5196,-1.5519,-1.589,-1.6011,-1.6296,-1.6741,-1.7208,-1.8065,-1.9113,-2.0433,-2.0532,-2.0475,-2.09,-2.0788,-2.0617,-2.054,-2.0591,-2.0643,-2.0643,-2.0643,-2.0728,-2.0942,-2.0968,0.0,0.0,0.0,0.0,0.0,0.0,0.0,0.0,-2.2428,-2.2428,-2.2428,-2.2428,-2.2428,-2.2428,-2.252,-2.2787,-2.3189,-2.3281,-2.3544,-2.3871,-2.4092,-2.4033,-2.3779,-2.3603,-2.3379,-2.3091,-2.3091,-2.3406,-2.3797,-2.3797,-2.411,-2.4497,-2.4497,-2.4497,-2.4497,-2.4497,-2.4818,-2.5463,-2.6689,-2.7476,-2.8136,-2.9156,-2.9453,-2.9402,-2.9176,-2.9403,-2.9753,-2.9971,-3.0336,-3.0699,-3.0934,-3.0986,-3.0986,-3.0986,-3.0986,-3.0986,-3.0986,-3.0986,-3.0986,-3.0986,-3.1603,-3.2362,-3.3073,-3.409,-3.4938,-3.5439,-3.5504,-3.5504,-3.5504,-3.5504,-3.5504,-3.5504,-3.5504,-3.5504,-3.5504,-3.5504,-3.5504,-3.5504,-3.5504,-3.5504,-3.5504,-3.5554,-3.5572,-3.5572,-3.5701,-3.6025,-3.6503,-3.6582,-3.6907,-1.7047,-1.7276,-1.7382,-1.8028,-1.7598,-1.7057,-1.7267,-1.8144,-1.8941,-1.9082,-1.9492,-1.9939,-2.0207,-2.0221,-2.0369,-2.0763,-2.0523,-2.0292,-2.0292,-2.0292,-2.0292,-2.0292,0.0,0.0,0.0,0.0,0.0,0.0,0.0,0.0,0.0,-2.1696,-2.1696,-2.1696,-2.1696,-2.1696,-2.1696,-2.1919,-2.2176,0.0,-2.2662,-2.2882,-2.311,-2.3545,-2.373,-2.3711,-2.331,-2.3091,-2.3091,-2.3091,-2.3406,-2.3787,-2.3757,-2.4049,-2.4435,-2.4435,-2.4435,-2.4445,-2.4487,-2.454,-2.4903,-2.6479,-2.7082,-2.7353,-2.8508,-2.8813,-2.8712,-2.8247,-2.8401,-2.8805,-2.9281,-2.9755,-3.0231,-3.079,-3.0947,-3.0986,-3.0986,-3.0986,-3.0986,-3.0986,-3.0986,-3.0986,-3.0986,-3.1566,-3.2254,-3.3073,-3.4505,-3.5504,-3.5504,-3.5504,-3.5504,-3.5504,-3.5504,-3.5504,-3.5504,-3.5504,-3.5504,-3.5504,-3.5504,-3.5504,-3.5504,-3.5504,-3.5504,-3.5504,-3.5621,-3.5688,-3.5688,-3.599,-3.6148,-3.6164,-3.6352,-3.6429,-1.5786,-1.6508,-1.7349,-1.736,-1.7499,-1.756,-1.7369,-1.768,-1.8119,-1.8364,-1.8533,-1.8899,-1.9604,-1.9782,-1.9984,-2.036,-2.0343,-2.0292,-2.0292,-2.0292,-2.0292,-2.0292,0.0,0.0,0.0,0.0,0.0,0.0,0.0,0.0,-2.1696,-2.1696,-2.1696,-2.1696,-2.1696,-2.1696,-2.1696,-2.1785,-2.1998,0.0,-2.2441,-2.2706,-2.3101,-2.3188,-2.3237,-2.3227,-2.314,-2.3091,-2.3091,-2.3091,-2.3406,-2.3757,-2.3468,-2.3634,-2.4022,-2.4022,-2.4022,-2.4074,-2.4373,-2.4946,-2.565,-2.6237,-2.6951,-2.76,-2.8102,-2.8285,-2.826,-2.8134,-2.8401,-2.8715,-2.8843,-2.9458,-3.0127,-3.0244,-3.066,-3.0986,-3.0986,-3.0986,-3.0986,-3.0986,-3.0986,-3.0986,-3.0986,-3.1123,-3.1676,-3.3017,-3.4505,-3.5504,-3.5504,-3.5504,-3.5504,-3.5504,-3.5504,-3.5504,-3.5504,-3.5504,-3.5504,-3.5504,-3.5504,-3.5504,-3.5504,-3.5504,-3.5504,-3.5504,-3.5522,-3.5554,-3.5554,-3.5619,-3.5686,-3.5816,-3.5847,-3.5958,-1.6218,-1.6963,-1.7619,-1.7569,-1.7764,-1.7784,-1.7226,-1.723,-1.736,-1.7356,-1.7993,-1.8694,-1.92,-1.9695,-2.0069,-2.0266,-2.0292,-2.0292,-2.0292,-2.0292,-2.0292,-2.0292,0.0,0.0,0.0,0.0,0.0,0.0,0.0,-2.094,-2.1262,-2.135,-2.1485,-2.1687,-2.1495,-2.1394,-2.1394,-2.1394,-2.1556,-2.1835,-2.2,-2.226,-2.2549,-2.2916,-2.2984,-2.2789,-2.2789,-2.2682,-2.2539,-2.2539,-2.2709,-2.3018,-2.2924,-2.3082,-2.3423,-2.3546,-2.3546,-2.3577,-2.3805,-2.4168,-2.4712,-2.5645,-2.6259,-2.6783,-2.7494,-2.7708,-2.7657,-2.7394,-2.7601,-2.7959,-2.8251,-2.8782,-2.9431,-2.997,-3.0568,-3.0986,-3.0986,-3.0986,-3.0986,-3.0986,-3.0986,-3.0986,-3.0986,-3.1296,-3.1919,-3.3038,-3.4172,-3.4953,-3.4953,-3.5246,-3.5504,-3.5504,-3.5504,-3.5504,-3.5504,-3.5504,-3.5504,-3.5504,-3.5504,-3.5504,-3.5504,-3.5504,-3.5504,-3.5504,-3.5572,-3.5636,-3.5733,-3.5797,-3.591,-3.6085,-3.6085,-3.6132,-1.6682,-1.7414,-1.7855,-1.8198,-1.8226,-1.7995,-1.7204,-1.7077,-1.7048,-1.6684,-1.7695,-1.8648,-1.8754,-1.9524,-2.0095,-2.0095,-2.0095,-2.0095,-2.0095,-2.0095,-2.0095,0.0,0.0,0.0,0.0,0.0,0.0,0.0,0.0,-2.0123,-2.0661,-2.0878,-2.1172,-2.1467,-2.119,-2.1007,-2.1007,-2.1007,-2.1046,-2.1182,-2.1636,-2.1847,-2.1904,-2.2607,-2.2691,-2.2402,-2.2402,-2.2207,-2.1885,-2.1885,-2.205,-2.2277,-2.2361,-2.2575,-2.2868,-2.303,-2.307,-2.308,-2.3163,-2.3305,-2.3636,-2.5042,-2.5536,-2.5873,-2.6853,-2.7178,-2.7077,-2.6625,-2.6739,-2.7126,-2.7622,-2.8079,-2.8621,-2.9565,-3.0346,-3.0869,-3.096,-3.0986,-3.0986,-3.0986,-3.0986,-3.0986,-3.0986,-3.1603,-3.229,-3.2932,-3.3768,-3.4312,-3.4312,-3.4986,-3.5504,-3.5504,-3.5504,-3.5504,-3.5504,-3.5504,-3.5504,-3.5504,-3.5504,-3.5504,-3.5504,-3.5504,-3.5504,-3.5504,-3.5621,-3.575,-3.591,-3.6037,-3.6195,-3.6352,-3.6398,-3.6429,-1.5034,-1.6208,-1.7631,-1.8643,-1.8787,-1.8502,-1.7705,-1.7801,-1.7973,-1.7522,-1.7702,-1.7942,-1.7981,-1.8711,-1.9367,-1.9367,-1.9367,-1.9367,-1.9367,-1.9367,-1.9367,0.0,0.0,0.0,0.0,0.0,0.0,0.0,-1.9896,-2.0177,-2.0274,-2.0477,-2.058,-2.0677,-2.0622,-2.0594,-2.0594,-2.0594,-2.0778,-2.1224,-2.1684,-2.1902,-2.1894,-2.2002,-2.2021,-2.1973,-2.1973,-2.1934,-2.1885,-2.1885,-2.2122,-2.2401,-2.205,-2.2138,-2.2555,-2.2584,-2.2594,-2.2646,-2.3049,-2.3676,-2.4412,-2.4789,-2.544,-2.6093,-2.6484,-2.66,-2.6587,-2.6512,-2.6739,-2.7003,-2.7114,-2.7747,-2.8459,-2.8569,-2.9457,-3.0348,-3.0882,-3.0986,-3.0986,-3.0986,-3.0986,-3.0986,-3.0986,-3.1603,-3.211,-3.2218,-3.3408,-3.4312,-3.4312,-3.4986,-3.5504,-3.5504,-3.5504,-3.5504,-3.5504,-3.5504,-3.5504,-3.5504,-3.5504,-3.5504,-3.5504,-3.5504,-3.5504,-3.5504,-3.5537,-3.5522,-3.5569,-3.5587,-3.5668,-3.5816,-3.6005,-3.6132,-1.5309,-1.6495,-1.7676,-1.874,-1.8962,-1.8822,-1.8361,-1.8415,-1.8451,-1.8073,-1.8265,-1.8462,-1.8462,-1.8874,-1.9213,-1.9213,-1.9213,-1.9213,-1.9213,-1.9213,-1.9213,0.0,0.0,0.0,0.0,0.0,0.0,0.0,-1.8982,-1.9336,-1.9683,-1.9891,-2.0158,-2.047,-2.0259,-2.0149,-2.0149,-2.0149,-2.0388,-2.0882,-2.1049,-2.1182,-2.1182,-2.1182,-2.1279,-2.1523,-2.1523,-2.1377,-2.1182,-2.1182,-2.1262,-2.1432,-2.145,-2.1614,-2.1808,-2.203,-2.2108,-2.2139,-2.2335,-2.267,-2.3082,-2.3625,-2.4317,-2.5085,-2.5667,-2.6129,-2.6499,-2.6499,-2.6739,-2.699,-2.699,-2.7462,-2.802,-2.8464,-2.8869,-2.9366,-3.015,-3.0673,-3.0895,-3.0568,-3.0516,-3.0411,-3.0085,-3.056,-3.1122,-3.1514,-3.2521,-3.3503,-3.4201,-3.4986,-3.5504,-3.5504,-3.5504,-3.5504,-3.5504,-3.5504,-3.5504,-3.5504,-3.5504,-3.5504,-3.5504,-3.5504,-3.5504,-3.5504,-3.5504,-3.5522,-3.5621,-3.5733,-3.5846,-3.5975,-3.6195,-3.632,-1.5249,-1.6295,-1.7064,-1.8288,-1.8854,-1.9021,-1.8886,-1.8921,-1.894,-1.8538,-1.8692,-1.8912,-1.8912,-1.8998,-1.899,-1.8905,-1.8888,-1.8888,-1.8888,-1.8888,-1.8888,0.0,0.0,0.0,0.0,0.0,0.0,0.0,-1.8241,-1.8605,-1.9059,-1.9313,-1.9652,-2.0117,-1.9884,-1.9729,-1.9729,-1.9819,-2.0012,-2.0406,-2.0487,-2.0566,-2.0605,-2.0605,-2.0752,-2.1064,-2.1064,-2.0869,-2.0605,-2.0605,-2.0644,-2.077,-2.1089,-2.1244,-2.1397,-2.1693,-2.1807,-2.1807,-2.1807,-2.1807,-2.1911,-2.274,-2.3486,-2.4264,-2.5052,-2.5851,-2.6499,-2.6499,-2.6739,-2.699,-2.699,-2.7235,-2.7646,-2.8234,-2.8399,-2.8621,-2.9483,-3.0137,-3.0424,-2.9993,-2.9879,-2.9784,-2.9353,-2.9627,-3.0082,-3.0636,-3.153,-3.2557,-3.3691,-3.4655,-3.531,-3.5489,-3.5504,-3.5504,-3.5504,-3.5504,-3.5504,-3.5504,-3.5504,-3.5504,-3.5504,-3.5504,-3.5504,-3.5504,-3.5504,-3.5554,-3.5638,-3.5782,-3.591,-3.6037,-3.6226,-3.6289,-1.3793,-1.4512,-1.5274,-1.7124,-1.84,-1.9169,-1.9013,-1.9318,-1.9495,-1.9071,-1.8767,-1.8606,-1.8606,-1.8631,-1.8502,-1.8111,-1.8059,-1.8059,-1.8059,-1.8059,0.0,0.0,0.0,0.0,0.0,0.0,0.0,0.0,-1.8241,-1.8411,-1.8469,-1.8829,-1.9038,-1.9065,-1.9228,-1.9329,-1.9329,-1.9506,-1.9713,-1.994,-2.0196,-2.042,-2.0605,-2.0605,-2.0615,-2.0635,-2.0635,-2.0625,-2.0605,-2.0605,-2.0809,-2.1167,-2.1205,-2.1425,-2.1769,-2.1807,-2.1807,-2.1807,-2.1807,-2.1807,-2.1911,-2.274,-2.3486,-2.4264,-2.5052,-2.5851,-2.6499,-2.6499,-2.6739,-2.699,-2.699,-2.7235,-2.7503,-2.7542,-2.7994,-2.859,-2.9205,-2.9375,-2.9401,-2.9362,-2.9327,-2.9314,-2.9287,-2.9301,-2.9362,-2.9385,-3.0583,-3.172,-3.2408,-3.3718,-3.4786,-3.5429,-3.5504,-3.5504,-3.5504,-3.5504,-3.5504,-3.5504,-3.5504,-3.5504,-3.5504,-3.5504,-3.5504,-3.5504,-3.5504,-3.5504,-3.5504,-3.5537,-3.5537,-3.5537,-3.5686,-3.5752,-1.316,-1.4016,-1.5,-1.6114,-1.7064,-1.7786,-1.799,-1.8523,-1.8888,-1.8439,-1.8489,-1.8519,-1.828,-1.8188,-1.8153,-1.8017,-1.8,-1.8,-1.8,-1.8,0.0,0.0,0.0,0.0,0.0,0.0,0.0,0.0,0.0,-1.8282,-1.8571,-1.8732,-1.8922,-1.9192,-1.9262,-1.9301,-1.9301,-1.9518,-1.9645,-1.9715,-2.0108,-2.0342,-2.042,-2.0527,-2.0605,-2.0605,-2.0605,-2.0605,-2.0605,-2.0605,-2.0683,-2.0848,-2.1089,-2.1282,-2.1436,-2.1693,-2.1807,-2.1807,-2.1807,-2.1807,-2.1845,-2.2149,-2.308,-2.4145,-2.4445,-2.5429,-2.6499,-2.6499,-2.6739,-2.699,-2.699,-2.7235,-2.749,-2.749,-2.7659,-2.7889,-2.8111,-2.8438,-2.8734,-2.8734,-2.8734,-2.8582,-2.8216,-2.8464,-2.8873,-2.9361,-2.9854,-3.0594,-3.1673,-3.2645,-3.3324,-3.3542,-3.3968,-3.4218,-3.4218,-3.4218,-3.4218,-3.4218,-3.4607,-3.4846,-3.4846,-3.5265,-3.5504,-3.5504,-3.5504,-3.5554,-3.5621,-3.5765,-3.5861,-3.5941,-3.6132,-3.6211,-1.2526,-1.3339,-1.4382,-1.5352,-1.5977,-1.6576,-1.7458,-1.7852,-1.7989,-1.7869,-1.804,-1.8134,-1.7894,-1.7914,-1.8,-1.8,-1.8,-1.8,-1.8,-1.8,0.0,0.0,0.0,0.0,0.0,0.0,0.0,0.0,0.0,0.0,-1.8451,-1.862,-1.8891,-1.9301,-1.9301,-1.9301,-1.9301,-1.9429,-1.9518,-1.9606,-1.999,-2.0225,-2.0303,-2.0489,-2.0605,-2.0605,-2.0605,-2.0605,-2.0605,-2.0605,-2.0644,-2.0731,-2.0974,-2.1167,-2.132,-2.1617,-2.1731,-2.1807,-2.1807,-2.1807,-2.1807,-2.1807,-2.2857,-2.4108,-2.4108,-2.5205,-2.6499,-2.6499,-2.6705,-2.6909,-2.6977,-2.7235,-2.749,-2.749,-2.749,-2.749,-2.749,-2.7824,-2.8098,-2.8098,-2.8098,-2.7968,-2.7555,-2.7837,-2.8255,-2.8746,-2.9031,-2.9578,-3.0679,-3.1407,-3.2006,-3.246,-3.2882,-3.3254,-3.3499,-3.3499,-3.3499,-3.3499,-3.3934,-3.4174,-3.4174,-3.4592,-3.4831,-3.4831,-3.5055,-3.5242,-3.5356,-3.5676,-3.5893,-3.5973,-3.6163,-3.6258,0.0,0.0,0.0,-1.4761,-1.5129,-1.5599,-1.7444,-1.7316,-1.697,-1.7394,-1.7471,-1.748,-1.7505,-1.7766,-1.7965,-1.7965,-1.7983,-1.8,-1.8,-1.8,0.0,0.0,0.0,0.0,0.0,0.0,0.0,0.0,-1.8,-1.8,-1.7991,-1.8451,-1.8882,-1.9262,-1.9301,-1.9301,-1.9301,-1.9301,-1.939,-1.9597,-1.9794,-2.002,-2.0303,-2.0489,-2.0605,-2.0605,-2.0605,-2.0605,-2.0605,-2.0605,-2.0731,-2.0906,-2.0906,-2.1128,-2.1464,-2.1502,-2.1617,-2.1807,-2.1807,-2.1807,-2.1807,-2.1845,-2.2857,-2.4108,-2.412,-2.524,-2.6499,-2.6499,-2.6589,-2.676,-2.6943,-2.7268,-2.749,-2.749,-2.749,-2.749,-2.749,-2.749,-2.749,-2.749,-2.749,-2.749,-2.749,-2.749,-2.749,-2.749,-2.8039,-2.8717,-2.9366,-3.003,-3.0949,-3.2263,-3.2431,-3.2729,-3.3363,-3.344,-3.344,-3.344,-3.3455,-3.3469,-3.3469,-3.3484,-3.3499,-3.3499,-3.4159,-3.4536,-3.4678,-3.5242,-3.5504,-3.5537,-3.5653,-3.5831,-1.1576,0.0,0.0,0.0,0.0,0.0,-1.4581,-1.5043,-1.5557,-1.651,-1.6653,-1.6816,-1.7402,-1.7338,-1.7188,-1.7188,-1.7641,-1.8,-1.8,-1.8,0.0,0.0,0.0,0.0,0.0,0.0,0.0,0.0,-1.8,-1.808,-1.8282,-1.8683,-1.8962,-1.9073,-1.9222,-1.9301,-1.9301,-1.9301,-1.9341,-1.939,-1.9745,-1.9942,-2.002,-2.0411,-2.0605,-2.0605,-2.0605,-2.0605,-2.0605,-2.0605,-2.0644,-2.0693,-2.0829,-2.0984,-2.1099,-2.1397,-2.155,-2.1617,-2.1769,-2.1807,-2.1883,-2.2478,-2.3338,-2.4228,-2.4791,-2.5699,-2.6499,-2.6499,-2.6705,-2.6977,-2.7268,-2.7436,-2.749,-2.749,-2.749,-2.749,-2.749,-2.749,-2.749,-2.749,-2.749,-2.749,-2.749,-2.749,-2.749,-2.749,-2.7656,-2.7842,-2.8033,-2.8646,-2.9366,-3.023,-3.0756,-3.1334,-3.2019,-3.2049,-3.2049,-3.2049,-3.2497,-3.2781,-3.2781,-3.3245,-3.3499,-3.3499,-3.3679,-3.3785,-3.383,-3.5192,-3.591,-3.6005,-3.6195,-3.632,-1.2051,-1.2401,-1.2946,-1.2817,0.0,0.0,-1.399,-1.4204,-1.4512,0.0,-1.6065,-1.6351,-1.6733,-1.6796,-1.6753,-1.667,-1.7047,-1.7441,-1.7757,-1.8138,0.0,0.0,0.0,0.0,0.0,-1.8,-1.8,-1.8,-1.8,-1.8052,-1.8127,-1.8434,-1.8671,-1.874,-1.9091,-1.9301,-1.9301,-1.9301,-1.9301,-1.9301,-1.9627,-1.9824,-1.9902,-2.0294,-2.0527,-2.0605,-2.0605,-2.0605,-2.0605,-2.0605,-2.0605,-2.0605,-2.0731,-2.0896,-2.1061,-2.1282,-2.1464,-2.1655,-2.1769,-2.1807,-2.1883,-2.2327,-2.3228,-2.4192,-2.4671,-2.5594,-2.6499,-2.6499,-2.6739,-2.7045,-2.7335,-2.7469,-2.749,-2.749,-2.749,-2.749,-2.749,-2.749,-2.749,-2.749,-2.749,-2.749,-2.749,-2.749,-2.749,-2.749,-2.749,-2.749,-2.749,-2.7842,-2.8352,-2.9016,-2.9425,-3.0056,-3.0999,-3.1087,-3.119,-3.1467,-3.1869,-3.2079,-3.2079,-3.2452,-3.2677,-3.2677,-3.2946,-3.3276,-3.3713,-3.4543,-3.5213,-3.5705,-3.6104,-3.6367,-1.2978,-1.2952,-1.3304,-1.3889,-1.3296,0.0,-1.4538,-1.4176,-1.3773,0.0,-1.5462,-1.58,-1.573,-1.612,-1.6373,-1.6184,-1.6297,-1.6624,-1.7342,-1.821,0.0,0.0,0.0,0.0,-1.8012,-1.7937,-1.7929,-1.7931,-1.7897,-1.7814,-1.7713,-1.7881,-1.8095,-1.8278,-1.8825,-1.9125,-1.9125,-1.9173,-1.9173,-1.9164,-1.9379,-1.9575,-1.9722,-2.0042,-2.0265,-2.0498,-2.0537,-2.0556,-2.0605,-2.0605,-2.0605,-2.0605,-2.0605,-2.0848,-2.1167,-2.1167,-2.1436,-2.1769,-2.1807,-2.1807,-2.1807,-2.1921,-2.2931,-2.412,-2.4228,-2.5288,-2.6499,-2.6568,-2.6773,-2.7045,-2.7268,-2.7403,-2.749,-2.749,-2.749,-2.749,-2.749,-2.749,-2.749,-2.749,-2.749,-2.749,-2.749,-2.749,-2.749,-2.749,-2.749,-2.749,-2.749,-2.749,-2.7756,-2.8417,-2.8514,-2.8998,-3.0269,-3.045,-3.0748,-3.1351,-3.1467,-3.1511,-3.1511,-3.1511,-3.1511,-3.1511,-3.2079,-3.2841,-3.3772,-3.3638,-3.4045,-3.4942,-3.5566,-3.5981,-1.4031,-1.3969,-1.4053,-1.3711,-1.357,0.0,-1.3171,-1.32,-1.3379,0.0,-1.406,-1.4437,-1.495,-1.5265,-1.5375,-1.5342,-1.5903,-1.6481,-1.6956,-1.7348,-1.7497,0.0,0.0,0.0,-1.7844,-1.7544,-1.7406,-1.76,-1.7304,-1.7107,-1.7068,-1.7287,-1.7383,-1.7421,-1.7879,-1.8104,-1.8104,-1.8235,-1.8319,-1.8357,-1.8536,-1.8648,-1.8714,-1.9069,-1.9475,-1.9878,-1.9973,-2.0244,-2.0605,-2.0605,-2.0605,-2.0605,-2.0605,-2.0731,-2.0984,-2.1128,-2.1359,-2.1578,-2.1731,-2.1807,-2.1921,-2.2553,-2.3375,-2.4228,-2.4862,-2.5734,-2.6568,-2.6841,-2.6956,-2.7079,-2.7369,-2.7503,-2.749,-2.749,-2.749,-2.749,-2.749,-2.749,-2.749,-2.749,-2.749,-2.749,-2.749,-2.749,-2.749,-2.749,-2.749,-2.749,-2.749,-2.749,-2.7756,-2.8417,-2.8514,-2.8807,-2.9642,-3.0208,-3.0554,-3.0673,-3.119,-3.1511,-3.1511,-3.1511,-3.1511,-3.1511,-3.163,-3.1881,-3.2234,-3.3454,-3.4255,-3.4616,-3.4739,-3.483,-1.5029,-1.4809,-1.4744,-1.4431,-1.4161,0.0,0.0,-1.3433,-1.345,-1.3965,-1.4061,-1.4134,-1.4391,-1.4595,-1.4658,-1.4564,-1.5219,-1.5805,-1.5974,-1.7212,-1.7977,0.0,0.0,0.0,-1.7964,-1.7506,-1.7284,-1.748,-1.6944,-1.6675,-1.6872,-1.6925,-1.697,-1.697,-1.7518,-1.7803,-1.7803,-1.8007,-1.8091,-1.8091,-1.8193,-1.8295,-1.8406,-1.8701,-1.9036,-1.9378,-1.9759,-2.0039,-2.0254,-2.0517,-2.0605,-2.0605,-2.0605,-2.0731,-2.0906,-2.1138,-2.132,-2.154,-2.1731,-2.1807,-2.1883,-2.2252,-2.3191,-2.4192,-2.4564,-2.5546,-2.6568,-2.6773,-2.6909,-2.7045,-2.7335,-2.7469,-2.749,-2.749,-2.749,-2.749,-2.749,-2.749,-2.749,-2.749,-2.749,-2.749,-2.749,-2.749,-2.749,-2.749,-2.749,-2.749,-2.749,-2.749,-2.7623,-2.7973,-2.8006,-2.8403,-2.9411,-2.9827,-3.0299,-3.097,-3.1307,-3.1511,-3.1511,-3.1511,-3.1511,-3.1511,-3.1597,-3.1698,-3.1799,-3.2664,-3.3354,-3.388,-3.4173,-3.4401,-1.5954,-1.5632,-1.5432,-1.5322,-1.4899,-1.4457,0.0,0.0,0.0,-1.4178,-1.424,-1.412,-1.3954,0.0,0.0,0.0,0.0,0.0,0.0,-1.6994,0.0,0.0,0.0,0.0,0.0,-1.7362,-1.7078,-1.723,-1.6576,-1.6359,-1.6752,-1.6672,-1.6654,-1.6617,-1.7166,-1.7503,-1.7503,-1.7697,-1.7816,-1.7853,-1.7853,-1.7954,-1.8136,-1.8309,-1.8575,-1.8862,-1.9383,-1.9679,-1.9814,-2.0176,-2.0361,-2.037,-2.0537,-2.0731,-2.0984,-2.1128,-2.1359,-2.1578,-2.1731,-2.1807,-2.1845,-2.1997,-2.3069,-2.4373,-2.4516,-2.5464,-2.6533,-2.6692,-2.6863,-2.7045,-2.7268,-2.7436,-2.749,-2.749,-2.749,-2.749,-2.749,-2.749,-2.749,-2.749,-2.749,-2.749,-2.749,-2.749,-2.749,-2.749,-2.749,-2.749,-2.749,-2.749,-2.749,-2.749,-2.749,-2.7927,-2.9016,-2.9237,-2.9827,-3.1029,-3.1248,-3.138,-3.1511,-3.1511,-3.1511,-3.1511,-3.167,-3.1756,-3.1841,-3.194,-3.2355,-3.3016,-3.3551,-3.3914,-1.6855,-1.658,-1.6305,-1.5774,-1.5695,-1.5434,-1.4096,0.0,-1.3994,-1.3261,0.0,-1.3755,0.0,0.0,0.0,0.0,0.0,0.0,-1.4583,-1.573,-1.651,-1.6262,0.0,0.0,0.0,-1.6634,-1.6245,-1.6253,-1.6015,-1.6019,-1.6342,-1.6407,-1.6418,-1.6336,-1.6313,-1.6334,-1.6475,-1.6677,-1.6853,-1.7046,-1.7046,-1.7046,-1.7081,-1.7281,-1.7687,-1.8223,-1.8459,-1.8879,-1.9365,-1.9414,-1.9434,-1.9512,-2.0312,-2.0848,-2.1167,-2.1167,-2.1436,-2.1769,-2.1807,-2.1807,-2.1921,-2.2628,-2.39,-2.53,-2.6025,-2.6349,-2.6568,-2.6875,-2.6977,-2.7079,-2.7403,-2.749,-2.749,-2.749,-2.749,-2.749,-2.749,-2.749,-2.749,-2.749,-2.749,-2.749,-2.749,-2.749,-2.749,-2.749,-2.749,-2.749,-2.749,-2.749,-2.749,-2.749,-2.749,-2.7556,-2.7709,-2.8287,-2.8935,-2.9659,-3.0269,-3.0866,-3.1467,-3.1511,-3.1511,-3.1511,-3.1511,-3.1683,-3.1968,-3.1996,-3.2112,-3.2313,-3.239,-3.2489,-1.7009,-1.683,-1.6658,-1.616,-1.5935,-1.561,-1.4708,-1.4462,-1.4296,0.0,0.0,0.0,0.0,0.0,0.0,0.0,-1.3882,0.0,0.0,0.0,-1.546,0.0,0.0,0.0,0.0,0.0,0.0,0.0,0.0,-1.5964,-1.6767,-1.6332,-1.6167,-1.6336,-1.6191,-1.6167,-1.6307,-1.6508,-1.6682,-1.6908,-1.6908,-1.6908,-1.6908,-1.722,-1.7521,-1.777,-1.8299,-1.8644,-1.8926,-1.918,-1.9287,-1.9326,-1.9678,-1.9936,-2.0133,-2.0366,-2.0552,-2.0767,-2.1246,-2.1404,-2.1632,-2.3139,-2.4396,-2.5453,-2.6245,-2.6499,-2.6568,-2.676,-2.6909,-2.7045,-2.7302,-2.7436,-2.749,-2.749,-2.749,-2.749,-2.749,-2.749,-2.749,-2.749,-2.749,-2.749,-2.749,-2.749,-2.749,-2.749,-2.749,-2.749,-2.749,-2.749,-2.749,-2.749,-2.749,-2.7656,-2.8039,-2.8352,-2.8789,-2.9442,-3.0133,-3.0807,-3.1467,-3.1511,-3.1511,-3.1511,-3.1511,-3.1568,-3.1712,-3.1712,-3.1798,-3.1968,-3.2219,-3.2342,-1.6991,0.0,0.0,0.0,0.0,0.0,0.0,0.0,0.0,0.0,0.0,0.0,0.0,0.0,-1.3424,-1.3314,0.0,-1.3616,0.0,-1.38,0.0,0.0,0.0,0.0,0.0,0.0,0.0,0.0,0.0,0.0,-1.7059,-1.6519,-1.6254,-1.6454,-1.6295,-1.6281,-1.6307,-1.6508,-1.6682,-1.6908,-1.6908,-1.6908,-1.6908,-1.7185,-1.7401,-1.7523,-1.8062,-1.8362,-1.8451,-1.8809,-1.8936,-1.8936,-1.8936,-1.8936,-1.9001,-1.9653,-1.9923,-2.0072,-2.0705,-2.1063,-2.1515,-2.3153,-2.4343,-2.527,-2.6009,-2.6361,-2.6521,-2.6658,-2.6794,-2.6977,-2.7235,-2.7369,-2.7469,-2.749,-2.749,-2.749,-2.749,-2.749,-2.749,-2.749,-2.749,-2.749,-2.749,-2.749,-2.749,-2.749,-2.749,-2.749,-2.749,-2.749,-2.749,-2.749,-2.749,-2.7689,-2.8189,-2.8384,-2.8839,-2.9721,-3.0389,-3.0999,-3.1467,-3.1511,-3.1511,-3.1511,-3.1511,-3.1539,-3.1568,-3.1568,-3.1683,-3.187,-3.2122,-3.2259,0.0,0.0,0.0,-1.5909,0.0,0.0,0.0,0.0,-1.4974,0.0,0.0,0.0,-1.4561,-1.4148,-1.3736,-1.336,-1.3305,0.0,0.0,0.0,0.0,0.0,0.0,0.0,0.0,0.0,0.0,0.0,0.0,0.0,-1.6855,-1.7088,-1.6965,-1.6617,-1.6591,-1.6481,-1.6316,-1.6508,-1.6682,-1.6908,-1.6908,-1.6908,-1.6908,-1.6908,-1.7116,-1.7505,-1.7523,-1.7729,-1.8037,-1.8047,-1.8047,-1.8047,-1.8047,-1.8047,-1.8189,-1.9433,-2.0031,-2.0201,-2.038,-2.0938,-2.1699,-2.2412,-2.3544,-2.4735,-2.5423,-2.6047,-2.6521,-2.6658,-2.6679,-2.6794,-2.7201,-2.7302,-2.7335,-2.7469,-2.749,-2.749,-2.749,-2.749,-2.749,-2.749,-2.749,-2.749,-2.749,-2.749,-2.749,-2.749,-2.749,-2.749,-2.749,-2.749,-2.749,-2.749,-2.749,-2.749,-2.7523,-2.8124,-2.9062,-3.0389,-3.1087,-3.1467,-3.1511,-3.1511,-3.1511,-3.1511,-3.1511,-3.1597,-3.1799,-3.1799,-3.187,-3.1996,-3.187,-3.1968,0.0,0.0,-1.6386,-1.5826,0.0,0.0,0.0,0.0,0.0,0.0,0.0,0.0,-1.4558,-1.4167,-1.3865,-1.3708,-1.3259,-1.2909,0.0,0.0,0.0,0.0,0.0,-1.4909,0.0,0.0,0.0,0.0,-1.5461,0.0,0.0,-1.6634,-1.665,-1.6809,-1.6527,-1.644,-1.6508,-1.6568,-1.6682,-1.6908,-1.6908,-1.6908,-1.6908,-1.7038,-1.7254,-1.7505,-1.7588,-1.7759,-1.8008,-1.8008,-1.8008,-1.8008,-1.8008,-1.8008,-1.8081,-1.872,-1.9002,-1.918,-1.9778,-2.0698,-2.1642,-2.1874,-2.2913,-2.4123,-2.4356,-2.4868,-2.5481,-2.6033,-2.6001,-2.5928,-2.6543,-2.681,-2.6896,-2.6961,-2.7249,-2.749,-2.749,-2.749,-2.749,-2.749,-2.749,-2.749,-2.749,-2.749,-2.749,-2.749,-2.749,-2.749,-2.749,-2.749,-2.749,-2.749,-2.749,-2.749,-2.749,-2.7723,-2.8403,-2.9766,-3.0042,-3.0584,-3.1467,-3.1511,-3.1511,-3.1511,-3.1511,-3.1597,-3.1799,-3.1799,-3.187,-3.1996,-3.194,-3.2025,-1.5762,-1.589,0.0,-1.5579,-1.5478,0.0,-1.4983,0.0,-1.4992,0.0,0.0,0.0,0.0,-1.4295,-1.4011,-1.3717,-1.3286,-1.2896,0.0,-1.2838,0.0,0.0,-1.3812,-1.4252,-1.4478,-1.4478,-1.4634,-1.5065,-1.5087,0.0,0.0,0.0,-1.6465,-1.6572,-1.6474,-1.6313,-1.6163,-1.6401,-1.6551,-1.6697,-1.6697,-1.6771,-1.6899,-1.6733,-1.6964,-1.7495,-1.7436,-1.7625,-1.8008,-1.8008,-1.8008,-1.8008,-1.8008,-1.8008,-1.8042,-1.8381,-1.8583,-1.8782,-1.9349,-2.0073,-2.0762,-2.1001,-2.2014,-2.3182,-2.3436,-2.4116,-2.4895,-2.5378,-2.5299,-2.5269,-2.5865,-2.6104,-2.6284,-2.6621,-2.6948,-2.7288,-2.7451,-2.749,-2.749,-2.749,-2.749,-2.749,-2.749,-2.749,-2.749,-2.749,-2.749,-2.749,-2.749,-2.749,-2.749,-2.749,-2.749,-2.759,-2.7842,-2.7842,-2.8338,-2.9442,-2.9721,-3.0238,-3.1117,-3.138,-3.1511,-3.1511,-3.1511,-3.1568,-3.1698,-3.1698,-3.1769,-3.1927,-3.1927,-3.2025]}]]